     2              OBSERVATION DATA    GPS                 RINEX VERSION / TYPE
ASRINEXO V2.4.4 UX USGS 23-APR-96 11:17                     PGM / RUN BY / DATE
                                                            COMMENT
Original Marker Name: edom Edom_2_1974_NCER                 COMMENT
Campaign Name: usgs.coach.monit                             COMMENT
4-Character Station Name: EDOM                              COMMENT
6-Character Antenna Code: ASHP12                            COMMENT
Vertical Measurement Point: EGP                             COMMENT
Vertical Offset to Rinex Ref. Point: 0.0593                 COMMENT
Radial Measurement Point: EGP                               COMMENT
Radial Offset to Rinex Ref. Point: 0.1425                   COMMENT
Antenna Height from Field Measurement: 1.3630 m             COMMENT
Additional Antenna Identification Info.:                    COMMENT
Ashtech L1/L2 Revision B                                    COMMENT
Original XYZ: -2359757.8200 -4747510.9800 3534987.7000      COMMENT
New XYZ position is based on association with SCEC monument COMMENT
E1D0U1U6+0011. Position of that monument is believed to be  COMMENT
valid to within 1 m horizontally; vertical accuracy         COMMENT
should be no worse than 3-times this value.                 COMMENT
                                                            COMMENT
Revised Rinex header created by UCSD GPS archive for        COMMENT
GSAC on 10-Nov-1999 (1999:314) 22:19:08 GMT                 COMMENT
For assistance contact dagnew@ucsd.edu or hjohnson@ucsd.edu COMMENT
                                                            COMMENT
EDOM EDOM_2_1974_NCER                                       MARKER NAME
CHS US GEOLOGICAL SURVEY                                    OBSERVER / AGENCY
582 ASHTECH Z-XII3 1F00                                     REC # / TYPE / VERS
68 ASHTECH GEODETIC P                                       ANT # / TYPE
 -2359882.0000 -4747477.0000  3534774.0000                  APPROX POSITION XYZ
        1.2962        0.0000        0.0000                  ANTENNA: DELTA H/E/N
     1     1     0                                          WAVELENGTH FACT L1/2
     5    C1    L1    L2    P1    P2                        # / TYPES OF OBSERV
    30                                                      INTERVAL
  1996     4    17    14    48   30.000000                  TIME OF FIRST OBS
  1996     4    17    23    59   30.000000                  TIME OF LAST OBS
                                                            END OF HEADER
 96  4 17 14 48 30.0000000  0  7  3 19 18 14 31 29 27
  21070566.813      -17254.16319
  19131295.981      -77535.76119    -47217.80059                  19131301.2974
  18059721.920      -54989.28919    -35587.15459                  18059727.1054
  22161325.478       22446.43919
  20564344.598      -73877.02719
  19107359.945          93.37019        41.57559                  19107364.7604
  21604825.209
 96  4 17 14 49  0.0000000  0  7  3 19 18 14 31 29 27
  21057282.362      -87056.53119    -58570.24759                  21057292.0684
  19114248.326     -167123.39759   -117026.33449  19114248.3544   19114252.7144
  18046905.993     -122346.93159    -88073.61549  18046905.3724   18046909.2714
  22172588.020       81628.849 9
  20541001.164     -196545.539 9
  19107338.486         -17.39059       -44.75049  19107339.5994   19107343.8334
  21581506.963     -166761.40519
 96  4 17 14 49 30.0000000  0  5 19 18 14 31 29
  21195681.856     -257044.50349   -187094.72349  21195684.1934   21195688.3204
  20132618.557     -189782.27049   -140620.63649  20132619.8094   20132624.0654
  24282289.840      140232.823 9     95337.18159                  24282293.0914
  22616168.894     -319426.479 9
  21205837.230        -273.18749      -244.08949  21205838.2594   21205842.3174
 96  4 17 14 50  0.0000000  0  7  3 19 18 14 31 29 27
  23429046.691     -226739.78259   -167414.27959  23429045.6634   23429051.1334
  21478299.320     -347309.92959   -257431.41159  21478299.4224   21478303.7554
  20419564.651     -257297.42059   -193229.84559  20419564.6794   20419568.8004
  24593122.690      198284.05859    140571.85949  24593126.7894   24593132.6944
  22892535.716     -442545.724 9
  21505557.088        -659.88959      -545.43159  21505557.0434   21505560.9874
  23932923.732     -413332.797 9   -275895.07859                  23932925.1244
 96  4 17 14 50 30.0000000  0  7  3 19 18 14 31 29 27
  23415758.226     -296535.63749   -221800.65649  23415764.2364   23415769.2014
  21461073.991     -437827.86549   -327964.87649  21461074.5714   21461079.0784
  20406716.222     -324813.09449   -245839.47049  20406716.9444   20406720.9544
  24604077.970      255840.49449    185420.99459  24604079.4944   24604084.5814
  22869077.901     -565795.395 9   -135368.52659                  22869083.4444
  21505469.883       -1112.13449      -897.84549  21505470.9504   21505474.8284
  23909343.826     -537228.64859   -372437.28949  23909345.2114   23909349.5624
 96  4 17 14 51  0.0000000  0  7  3 19 18 14 31 29 27
  23402504.642     -366196.80049   -276082.07049  23402507.8274   23402512.8844
  21443811.363     -528542.56849   -398651.64749  21443812.0724   21443816.6524
  20393881.259     -392263.42449   -298398.16749  20393881.7824   20393885.6634
  24614948.418      312958.67059    229928.62549  24614948.4034   24614954.3494
  22845613.926     -689096.85559   -231447.57749  22845614.8034   22845619.4014
  21505385.151       -1559.88149     -1246.74649  21505385.7394   21505389.5054
  23885712.653     -661432.70849   -469219.64259  23885711.5484   23885712.7314
 96  4 17 14 51 30.0000000  0  7  3 19 18 14 31 29 27
  23389279.668     -435725.25749   -330260.07349  23389277.8394   23389282.4384
  21426508.977     -619462.16949   -469498.08449  21426510.7344   21426515.9164
  20381061.014     -459633.04049   -350893.97449  20381061.7554   20381065.9764
  24625738.073      369652.82549    274105.85849  24625737.1824   24625742.8114
  22822143.273     -812435.85949   -327555.86849  22822143.8994   22822149.0064
  21505301.213       -1997.72749     -1587.94349  21505302.6104   21505306.8564
  23862015.165     -785944.56459   -566241.86249  23862016.6014   23862020.5704
 96  4 17 14 52  0.0000000  0  7  3 19 18 14 31 29 27
  23376075.900     -505110.68549   -384326.65949  23376073.7994   23376079.1604
  21409172.891     -710566.14549   -540488.19649  21409174.2074   21409179.1284
  20368262.895     -526892.68849   -403304.09149  20368262.5474   20368266.4194
  24636454.192      425966.21349    317986.37749  24636453.2774   24636459.1144
  22798671.858     -935780.56249   -423668.59849  22798672.9554   22798676.9554
  21505223.360       -2410.07749     -1909.26249  21505223.9504   21505227.9524
  23838266.954     -910739.52149   -663484.68349  23838269.1124   23838272.4834
 96  4 17 14 52 30.0000000  0  7  3 19 18 14 31 29 27
  23362897.287     -574341.91549   -438273.05649  23362898.9414   23362905.5134
  21391803.511     -801844.52949   -611614.20549  21391804.7444   21391809.4164
  20355488.142     -594018.98549   -455610.30249  20355488.9514   20355492.9434
  24647103.661      481929.79549    361594.32349  24647103.0914   24647107.9904
  22775204.669    -1059103.31249   -519764.23749  22775204.9924   22775210.0754
  21505154.682       -2766.39849     -2186.92649  21505156.5234   21505160.6934
  23814468.381    -1035817.00249   -760947.61549  23814467.8154   23814471.0224
 96  4 17 14 53  0.0000000  0  7  3 19 18 14 31 29 27
  23349755.774     -643395.18149   -492080.77349  23349758.7634   23349764.2374
  21374407.574     -893265.56949   -682851.37749  21374408.1164   21374412.6804
  20342746.625     -660973.71949   -507782.82449  20342747.7564   20342751.7744
  24657689.253      537586.69249    404963.29949  24657694.3834   24657699.7634
  22751747.599    -1182369.00249   -615815.41249  22751747.8314   22751752.8724
  21505105.620       -3029.13149     -2391.66949  21505106.0614   21505110.5394
  23790614.802    -1161150.64649   -858610.19449  23790617.3764   23790621.5734
 96  4 17 14 53 30.0000000  0  7  3 19 18 14 31 29 27
  23336650.206     -712262.28949   -545743.44249  23336654.1254   23336658.5394
  21356984.131     -984820.93249   -754193.21249  21356985.4454   21356990.6584
  20330040.665     -727751.25849   -559817.27249  20330040.2124   20330044.5034
  24668230.778      592959.35049    448110.78249  24668230.6804   24668235.8644
  22728302.758    -1305567.91449   -711814.54749  22728304.4794   22728309.2144
  21505073.644       -3193.82549     -2520.00849  21505074.5084   21505079.6014
  23766720.614    -1286725.83249   -956460.96349  23766721.3864   23766725.5074
 96  4 17 14 54  0.0000000  0  8  3 19 18 14 31 29 27 28
  23323587.490     -780926.09949   -599247.71949  23323588.1884   23323593.5584
  21339536.589    -1076503.05949   -825633.82749  21339538.7584   21339543.5624
  20317365.805     -794351.90049   -611713.87549  20317367.0164   20317371.1654
  24678712.489      648053.29749    491041.06249  24678715.4284   24678720.3104
  22704875.800    -1428684.91649   -807749.86349  22704875.3794   22704880.7724
  21505063.150       -3245.83549     -2560.55549  21505064.7954   21505069.1154
  23742782.539    -1412516.74949  -1054479.84349  23742783.7474   23742789.1114
  23701694.700     -159786.82119   -111897.27419  23701698.550    23701702.635
 96  4 17 14 54 30.0000000  0  8  3 19 18 14 31 29 27 28
  23310566.510     -849356.42349   -652570.03449  23310565.3284   23310571.0514
  21322070.355    -1168293.22149   -897158.62449  21322071.9984   21322076.1964
  20304725.443     -860779.86849   -663475.92949  20304726.0604   20304730.1914
  24689147.877      702871.16949    533756.23849  24689146.5164   24689152.6344
  22681464.706    -1551706.81249   -903611.05249  22681466.1134   22681471.0884
  21505078.985       -3168.86149     -2500.58149  21505079.6434   21505083.6754
  23718805.572    -1538522.97549  -1152666.50249  23718806.0814   23718809.6744
  23692290.754     -209214.56119   -150412.38919  23692292.481    23692298.072
 96  4 17 14 55  0.0000000  0  8  3 19 18 14 31 29 27 28
  23297598.377     -917512.35249   -705678.54249  23297596.0994   23297601.5014
  21304587.303    -1260169.84849   -968750.79949  21304588.3874   21304593.1134
  20292118.007     -927037.10149   -715104.94749  20292117.8164   20292121.8064
  24699528.665      757431.88759    576271.00859  24699529.3314   24699535.7614
  22658076.353    -1674615.02249   -999383.66249  22658077.4334   22658080.9794
  21505120.148       -2946.12649     -2327.03149  21505122.0964   21505126.2294
  23694791.187    -1664724.51949  -1251005.34349  23694791.2974   23694795.4194
  23682941.573     -258364.797 9   -188711.255 9  23682939.908    23682945.210
 96  4 17 14 55 30.0000000  0  8  3 19 18 14 31 29 27 28
  23284682.068     -985374.46449   -758558.12149  23284682.2254   23284687.7574
  21287089.206    -1352126.69949  -1040405.48849  21287089.5944   21287094.2144
  20279542.368     -993117.22649   -766595.95849  20279543.2284   20279547.5984
  24709860.944      811722.38859    618575.22559  24709859.4354   24709865.6764
  22634711.849    -1797396.18149  -1095057.28649  22634712.3664   22634717.6084
  21505193.302       -2572.59349     -2035.98249  21505193.2104   21505197.3784
  23670740.092    -1791102.07149  -1349481.34649  23670741.0224   23670745.7934
  23673641.498     -307229.582 9   -226787.711 9  23673641.478    23673645.672
 96  4 17 14 56  0.0000000  0  8  3 19 18 14 31 29 27 28
  23271823.396    -1052932.35549   -811200.61149  23271826.3874   23271831.6834
  21269574.938    -1444160.31049  -1112119.98449  21269576.0994   21269580.7794
  20267004.592    -1059007.95049   -817939.37749  20267004.4364   20267008.7724
  24720135.668      865731.00159    660659.77959  24720138.4514   24720143.2914
  22611373.748    -1920039.88649  -1190623.78349  22611374.1514   22611378.3164
  21505291.662       -2047.10549     -1626.51849  21505293.4564   21505297.6384
  23646656.752    -1917662.58949  -1448099.90049  23646658.1374   23646661.7214
  23664397.931     -355797.177 9   -264632.589 9  23664399.475    23664403.975
 96  4 17 14 56 30.0000000  0  8  3 19 18 14 31 29 27 28
  23259029.624    -1120178.16749   -863599.94149  23259029.3874   23259034.7124
  21252049.458    -1536258.50649  -1183884.80649  21252050.5224   21252054.9834
  20254506.547    -1124685.32849   -869116.55649  20254506.5904   20254510.5564
  24730364.885      919455.60859    702523.02059  24730360.9964   24730370.9594
  22588058.783    -2042554.36549  -1286089.58649  22588060.2634   22588065.5534
  21505421.680       -1368.09549     -1097.43649  21505422.6304   21505427.0444
  23622537.883    -2044421.19749  -1546872.83949  23622536.9354   23622540.5964
  23655214.062     -404059.638 9   -302239.703 9  23655214.946    23655220.049
 96  4 17 14 57  0.0000000  0  8  3 19 18 14 31 29 27 28
  23246287.511    -1187142.38749   -915779.85949  23246287.6734   23246292.9384
  21234506.634    -1628446.37749  -1255719.50649  21234507.6124   21234512.0424
  20242050.768    -1190139.09949   -920119.49549  20242051.2304   20242055.2294
  24740521.109      972862.05859    744138.36859  24740524.4494   24740528.8774
  22564765.448    -2164967.42649  -1381476.38749  22564765.9744   22564770.9384
  21505576.438        -556.85849      -465.32049  21505577.0124   21505580.8434
  23598374.813    -2171387.97549  -1645807.96549  23598374.8104   23598379.3084
  23646089.065     -452034.282 9   -339622.525 9  23646085.894    23646090.780
 96  4 17 14 57 30.0000000  0  8  3 19 18 14 31 29 27 28
  23233596.609    -1253835.90649   -967748.82849  23233595.3284   23233601.2864
  21216949.009    -1720712.42549  -1327615.12349  21216949.8154   21216954.5044
  20229645.519    -1255330.10249   -970917.68149  20229645.7324   20229649.6314
  24750624.228     1025945.48259    785502.00559  24750625.8354   24750630.1554
  22541491.384    -2287275.61549  -1476781.45549  22541491.1884   22541496.4774
  21505754.880         384.89549       268.50749  21505756.4224   21505760.2814
  23574177.393    -2298548.98049  -1744894.44149  23574178.6014   23574182.8464
  23637013.220     -499710.450 9   -376772.780 9  23637014.031    23637018.454
 96  4 17 14 58  0.0000000  0  8  3 19 18 14 31 29 27 28
  23220956.180    -1320239.09149  -1019491.55649  23220959.9484   23220965.2224
  21199380.487    -1813032.46149  -1399552.80649  21199382.0384   21199386.6984
  20217295.453    -1320232.02749  -1021490.61549  20217295.3794   20217299.4394
  24760668.279     1078733.46349    826635.46849  24760672.4094   24760677.6124
  22518238.684    -2409461.41049  -1571991.13749  22518240.6944   22518245.4024
  21505964.304        1483.58249      1124.60749  21505965.6054   21505969.2684
  23549947.843    -2425890.86849  -1844121.86349  23549946.5754   23549950.3754
  23628001.748     -547070.132 9   -413676.432 9  23628001.467    23628005.551
 96  4 17 14 58 30.0000000  0  7  3 19 18 31 29 27 28
  23208378.816    -1386348.35749  -1071005.26449  23208379.5984   23208383.6564
  21181804.903    -1905396.28849  -1471524.61749  21181806.0514   21181810.6134
  20205000.494    -1384837.08249  -1071832.22149  20205001.4414   20205005.5974
  22495014.599    -2531514.76649  -1667097.65749  22495014.1774   22495019.2994
  21506204.763        2743.32549      2106.21149  21506205.2694   21506208.7024
  23525684.181    -2553384.04149  -1943467.16049  23525684.9744   23525688.8374
  23619046.985     -594113.969 9   -450333.994 9  23619049.023    23619053.701
 96  4 17 14 59  0.0000000  0  7  3 19 18 31 29 27 28
  23195855.028    -1452156.75049  -1122284.54649  23195856.7914   23195861.3704
  21164221.279    -1997799.58049  -1543527.18149  21164222.2254   21164226.5204
  20192762.012    -1449153.45549  -1121948.87749  20192762.0624   20192766.1334
  22471818.685    -2653404.89749  -1762076.94849  22471820.1874   22471824.1884
  21506474.313        4164.04149      3213.24449  21506475.2464   21506479.1154
  23501398.432    -2681004.34849  -2042911.54049  23501398.6124   23501404.0224
  23610155.754     -640835.270 9   -486740.202 9  23610157.897    23610162.516
 96  4 17 14 59 30.0000000  0  7  3 19 18 31 29 27 28
  23183395.944    -1517634.06649  -1173305.83649  23183397.0724   23183402.1464
  21146632.726    -2090223.58549  -1615545.88349  21146634.3394   21146638.7844
  20180577.032    -1513184.81949  -1171843.44649  20180577.5674   20180581.5014
  22448660.927    -2775102.45549  -1856906.20149  22448661.3084   22448665.5874
  21506778.376        5761.30949      4457.84949  21506779.5424   21506783.1634
  23477091.347    -2808744.35749  -2142449.19149  23477090.6214   23477094.6654
  23601334.573     -687219.275 9   -522883.567 9  23601331.113    23601335.619
 96  4 17 15  0  0.0000000  0  7  3 19 18 31 29 27 28
  23170999.665    -1582766.88949  -1224058.68349  23171001.5784   23171007.2644
  21129038.761    -2182682.29749  -1687591.63449  21129040.3884   21129044.7234
  20168442.044    -1576955.47349  -1221534.87049  20168442.4344   20168446.5244
  22425540.020    -2896605.75349  -1951584.08649  22425540.1884   22425543.7374
  21507115.714        7536.15549      5840.82949  21507117.0604   21507121.0924
  23452759.301    -2936608.19849  -2242083.33849  23452758.2854   23452762.4424
  23592571.231     -733271.361 9   -558768.318 9  23592568.929    23592573.358
 96  4 17 15  0 30.0000000  0  7  3 19 18 31 29 27 28
  23158670.564    -1647552.72149  -1274541.14049  23158673.8234   23158678.4484
  21111437.795    -2275174.58149  -1759663.54149  21111439.4544   21111444.0314
  20156358.224    -1640458.27449  -1271017.57449  20156358.0504   20156361.9714
  22402455.935    -3017913.33749  -2046109.45649  22402456.4074   22402459.3024
  21507487.791        9491.36449      7364.34649  21507489.1054   21507492.9994
  23428400.696    -3064594.87049  -2341813.17949  23428403.7254   23428408.7254
  23583869.268     -778986.228 9   -594390.311 9  23583869.676    23583874.365
 96  4 17 15  1  0.0000000  0  7  3 19 18 31 29 27 28
  23146413.025    -1711980.59649  -1324744.68149  23146414.1374   23146419.1464
  21093832.836    -2367689.01549  -1831752.70849  21093834.3624   21093839.1484
  20144326.199    -1703687.02749  -1320286.73149  20144326.3134   20144330.2524
  22379410.356    -3139016.17549  -2140475.31149  22379411.1514   22379415.4194
  21507899.605       11653.77149      9049.32049  21507900.7854   21507904.8144
  23404025.244    -3192706.21949  -2441640.17949  23404025.6724   23404030.7224
  23575237.627     -824344.509 9   -629734.426 9  23575237.927    23575242.920
 96  4 17 15  1 30.0000000  0  7  3 19 18 31 29 27 28
  23134219.599    -1776065.08949  -1374680.66049  23134219.7214   23134224.2534
  21076222.591    -2460237.79349  -1903868.63349  21076223.2494   21076227.3564
  20132344.127    -1766652.38949  -1369350.65649  20132344.4704   20132348.3024
  22356400.829    -3259929.46749  -2234693.43349  22356401.4214   22356406.5834
  21508348.936       14012.38849     10887.18849  21508349.4104   21508353.7254
  23379619.330    -3320955.45549  -2541574.62649  23379619.4404   23379625.3234
  23566670.565     -869357.056 9   -664809.123 9  23566671.248    23566677.299
 96  4 17 15  2  0.0000000  0  7  3 19 18 31 29 27 28
  23122080.030    -1839846.08349  -1424380.12349  23122082.0094   23122087.2494
  21058599.768    -2552840.01349  -1976026.20649  21058601.7434   21058605.9854
  20120409.805    -1829368.18249  -1418220.10649  20120409.7714   20120413.9424
  22333423.821    -3380679.69949  -2328784.51349  22333424.2394   22333428.1034
  21508831.208       16544.16849     12859.98549  21508831.6024   21508835.2664
  23355185.012    -3449360.01649  -2641630.11749  23355185.5574   23355188.7254
  23558167.216     -914046.145 9   -699631.764 9  23558168.267    23558172.796
 96  4 17 15  2 30.0000000  0  7  3 19 18 31 29 27 28
  23110004.981    -1903313.67749  -1473835.40749  23110004.9064   23110009.0484
  21040978.251    -2645446.10449  -2048186.79149  21040979.2454   21040983.3824
  20108528.909    -1891800.16049  -1466868.40349  20108529.5444   20108533.3554
  22310485.067    -3501225.69349  -2422716.45149  22310484.7224   22310489.1094
  21509352.768       19289.20349     14998.95949  21509353.7914   21509357.3924
  23330721.874    -3577899.89449  -2741791.01849  23330724.0634   23330729.4064
  23549733.560     -958379.252 9   -734177.074 9  23549733.255    23549734.908
 96  4 17 15  3  0.0000000  0  7  3 19 18 31 29 27 28
  23097985.131    -1966476.53249  -1523053.19849  23097983.9664   23097990.2794
  21023356.572    -2738048.91349  -2120344.81449  21023357.3294   21023361.7044
  20096699.101    -1953968.97049  -1515311.63549  20096699.5204   20096703.1254
  22287586.473    -3621556.31949  -2516480.56149  22287586.0774   22287591.4584
  21509912.628       22232.68549     17292.56049  21509914.0384   21509917.8094
  23306237.262    -3706587.88849  -2842067.37649  23306236.8994   23306241.1664
  23541360.915    -1002364.655 9   -768451.444 9  23541362.233    23541366.555
 96  4 17 15  3 30.0000000  0  7  3 19 18 31 29 27 28
  23086027.742    -2029313.88449  -1572017.37049  23086028.3124   23086032.8474
  21005740.234    -2830624.34549  -2192481.51749  21005741.1164   21005745.1284
  20084926.464    -2015838.08349  -1563521.33649  20084926.0154   20084930.0044
  22264735.034    -3741639.75949  -2610052.05549  22264735.6314   22264739.4724
  21510513.082       25388.02849     19751.24749  21510514.3514   21510518.4984
  23281725.343    -3835398.05049  -2942438.92549  23281725.3814   23281727.6684
  23533061.232    -1045985.867 9   -802442.003 9  23533059.965    23533065.566
 96  4 17 15  3 59.9990000  0  7  3 19 18 31 29 27 28
  23074129.779    -2091832.89549  -1620733.49749  23074129.9484   23074134.7294
  20988126.577    -2923182.90449  -2264605.06549  20988127.7944   20988131.9734
  20073207.864    -2077411.60849  -1611500.70649  20073208.7644   20073212.6464
  22241928.885    -3861483.20449  -2703436.54949  22241929.7654   22241933.8664
  21511156.070       28759.56249     22378.40149  21511155.8394   21511159.7864
  23257189.290    -3964339.48749  -3042912.72849  23257189.0604   23257192.9844
  23524826.612    -1089253.867 9   -836157.307 9  23524825.997    23524832.006
 96  4 17 15  4 29.9990000  0  7  3 19 18 31 29 27 28
  23062299.158    -2154008.82049  -1669182.26249  23062298.9954   23062303.4354
  20970516.863    -3015722.72649  -2336714.01349  20970517.8054   20970522.1464
  20061550.841    -2138673.36749  -1659237.14849  20061551.1844   20061554.8774
  22219175.081    -3981059.35149  -2796612.74849  22219175.8984   22219180.0314
  21511839.915       32362.60949     25185.94849  21511841.8894   21511845.1384
  23232627.907    -4093395.30649  -3143475.69249  23232629.6854   23232634.1674
  23516665.472    -1132155.578 9   -869587.202 9  23516664.262    23516668.073
 96  4 17 15  4 59.9990000  0  7  3 19 18 31 29 27 28
  23050540.908    -2215801.83749  -1717332.66449  23050539.9684   23050545.3524
  20952907.742    -3108258.82149  -2408820.05849  20952908.9244   20952913.0644
  20049956.755    -2199604.26049  -1706715.76649  20049956.4114   20049960.2704
  22196473.436    -4100358.29249  -2889572.95149  22196473.8444   22196477.2364
  21512567.501       36181.08549     28161.37649  21512568.8954   21512571.9674
  23208054.849    -4222531.20149  -3244101.03649  23208055.1004   23208059.2314
  23508570.704    -1174683.127 9   -902725.574 9  23508571.877    23508574.104
 96  4 17 15  5 29.9990000  0  7  3 19 18 31 29 27 28
  23038855.660    -2277198.19149  -1765173.98449  23038856.9944   23038861.5234
  20935294.235    -3200818.65649  -2480944.60049  20935295.3234   20935300.0044
  20038428.255    -2260184.27249  -1753920.96949  20038428.5434   20038432.4494
  22173822.453    -4219382.49349  -2982319.05949  22173823.3044   22173827.5894
  21513334.538       40214.94249     31304.62349  21513336.0154   21513339.3124
  23183469.091    -4351734.96349  -3344779.28349  23183469.6294   23183473.3264
  23500547.823    -1216835.931 9   -935571.946 9  23500550.203    23500552.868
 96  4 17 15  5 59.9990000  0  7  3 19 18 31 29 27 28
  23027247.230    -2338198.60349  -1812706.77249  23027249.0774   23027253.5144
  20917673.979    -3293411.86549  -2553095.14649  20917675.5014   20917679.8084
  20026964.673    -2320427.83649  -1800864.01549  20026964.4824   20026968.6284
  22151226.060    -4338131.49649  -3074850.72649  22151226.2514   22151231.2004
  21514140.326       44448.55149     34603.51749  21514141.5074   21514145.3864
  23158863.687    -4481024.62249  -3445524.47349  23158865.8414   23158869.8764
  23492600.097    -1258618.596 9   -968129.892 9  23492598.388    23492602.056
 96  4 17 15  6 29.9990000  0  7  3 19 18 31 29 27 28
  23015719.847    -2398786.37649  -1859918.02549  23015719.3364   23015724.4424
  20900052.595    -3386013.08449  -2625251.93649  20900053.9324   20900058.6774
  20015568.560    -2380307.38349  -1847523.40349  20015569.9364   20015573.7684
  22128685.018    -4456587.08849  -3167153.77249  22128685.7034   22128688.8454
  21514982.609       48875.43449     38053.02249  21514984.0594   21514987.6714
  23134246.364    -4610393.25349  -3546331.18249  23134247.6634   23134252.4434
  23484718.644    -1300013.647 9  -1000385.766 9  23484720.328    23484725.992
 96  4 17 15  6 59.9990000  0  7  3 19 18 31 29 27 28
  23004262.269    -2458982.22249  -1906823.88149  23004263.7044   23004268.6094
  20882425.928    -3478643.07649  -2697431.15149  20882427.2094   20882431.3654
  20004239.437    -2439844.03349  -1893915.60249  20004240.3004   20004244.1994
  22106193.698    -4574772.75749  -3259246.48449  22106195.1054   22106198.9124
  21515858.777       53479.37349     41640.48449  21515860.1464   21515863.9774
  23109605.336    -4739875.52049  -3647226.43049  23109608.0214   23109612.9394
  23476913.748    -1341037.900 9  -1032352.691 9  23476914.627    23476919.446
 96  4 17 15  7 29.9990000  0  7  3 19 18 31 29 27 28
  22992884.863    -2518775.63749  -1953416.15949  22992886.8604   22992890.6864
  20864803.342    -3571249.92849  -2769592.32749  20864804.5004   20864808.9304
  19992983.152    -2499001.80749  -1940012.57949  19992982.9754   19992987.0394
  22083764.544    -4692644.64349  -3351094.69049  22083764.3944   22083768.1124
  21516780.371       58319.32949     45411.85749  21516781.2064   21516784.7614
  23084950.134    -4869458.21949  -3748199.94949  23084950.7164   23084954.0024
  23469189.380    -1381654.085 9  -1064001.677 9  23469186.436    23469190.115
 96  4 17 15  7 59.9990000  0  8  3  2 19 18 31 29 27 28
  22981573.891    -2578211.02649  -1999729.44449  22981575.5444   22981581.5294
  24433917.620     -340822.63419   -246358.17759                  24433927.3704
  20847185.158    -3663836.48949  -2841737.69549  20847186.1534   20847190.4214
  19981789.836    -2557819.85949  -1985844.83749  19981790.3234   19981794.3314
  22061385.743    -4810237.67449  -3442725.60049  22061387.4894   22061390.9514
  21517740.084       63366.63549     49344.80649  21517741.6244   21517745.1904
  23060263.185    -4999180.25349  -3849282.01849  23060263.9804   23060269.3004
  23461528.189    -1421892.177 9  -1095356.060 9  23461529.624    23461532.271
 96  4 17 15  8 29.9990000  0  8  3  2 19 18 31 29 27 28
  22970335.771    -2637261.93549  -2045743.13849  22970339.4834   22970344.0534
  24404927.303     -493176.42359   -365075.40159  24404929.3914   24404935.5774
  20829573.384    -3756389.42149  -2913856.85949  20829573.7474   20829578.0754
  19970665.223    -2616276.35949  -2031395.36049  19970666.4404   19970670.3144
  22039065.289    -4927532.20749  -3534123.91749  22039065.7454   22039071.7174
  21518746.318       68651.56549     53462.91849  21518747.4184   21518750.8634
  23035560.254    -5128999.96449  -3950440.21949  23035559.7094   23035564.6974
  23453950.023    -1461725.245 9  -1126394.842 9  23453949.448    23453952.407
 96  4 17 15  8 59.9990000  0  8  3  2 19 18 31 29 27 28
  22959172.995    -2695939.95049  -2091466.28249  22959173.0784   22959177.5444
  24375936.027     -645533.68259   -483795.30749  24375937.6254   24375942.9524
  20811961.759    -3848934.85549  -2985970.18249  20811962.9344   20811967.4294
  19959605.873    -2674398.45649  -2076685.30849  19959606.3394   19959610.1344
  22016797.912    -5044545.95349  -3625303.43749  22016799.4064   22016804.5894
  21519796.012       74170.77949     57763.58049  21519797.4934   21519801.2504
  23010837.816    -5258917.22249  -4051674.43149  23010837.7174   23010843.1994
  23446439.614    -1501170.683 9  -1157131.555 9  23446442.047    23446446.496
 96  4 17 15  9 29.9990000  0  8  3  2 19 18 31 29 27 28
  22948081.842    -2754208.30649  -2136870.17849  22948084.6564   22948089.2864
  24346952.477     -797853.46549   -602486.02349  24346952.3134   24346958.5444
  20794364.568    -3941411.56849  -3058029.95149  20794365.1194   20794369.5594
  19948617.038    -2732145.11249  -2121682.70249  19948617.4264   19948621.2754
  21994589.478    -5161256.38849  -3716246.61849  21994590.5654   21994595.3794
  21520898.873       79963.96949     62277.72849  21520900.0324   21520904.0144
  22986107.818    -5388880.30849  -4152944.37149  22986106.9504   22986110.3894
  23439017.233    -1540191.100 9  -1187537.056 9  23439015.544    23439021.327
 96  4 17 15  9 59.9990000  0  8  3  2 19 18 31 29 27 28
  22937078.318    -2812048.06749  -2181940.11549  22937079.1994   22937083.0684
  24317977.315     -950120.91849   -721135.96149  24317976.9694   24317982.4434
  20776777.456    -4033830.37049  -3130044.59949  20776778.3654   20776782.7414
  19937699.667    -2789514.58649  -2166386.19749  19937700.4834   19937704.4104
  21972437.003    -5277671.94849  -3806960.02749  21972437.8054   21972442.0904
  21522051.442       86022.39049     66998.55649  21522052.4394   21522056.6864
  22961370.226    -5518871.34349  -4254236.04349  22961370.8224   22961375.1224
  23431668.740    -1578786.555 9  -1217611.452 9  23431672.496    23431677.585
 96  4 17 15 10 29.9990000  0  8  3  2 19 18 31 29 27 28
  22926142.589    -2869510.35449  -2226715.94449  22926144.1174   22926147.3244
  24288997.612    -1102406.53649   -839800.03249  24288997.2674   24289003.5224
  20759186.969    -4126272.27649  -3202077.24649  20759187.4514   20759191.6364
  19926841.050    -2846578.23649  -2210851.38349  19926841.6064   19926845.3474
  21950327.363    -5393854.99049  -3897492.25349  21950328.7144   21950333.2584
  21523242.351       92285.41649     71878.82149  21523244.9004   21523248.9484
  22936616.362    -5648949.22149  -4355595.42549  22936618.1284   22936623.0994
  23424397.428    -1617023.444 9  -1247406.447 9  23424396.656    23424400.950
 96  4 17 15 10 59.9990000  0  8  3  2 19 18 31 29 27 28
  22915295.841    -2926510.49349  -2271131.62949  22915297.2234   22915301.8394
  24260031.567    -1254634.40449   -958419.08649  24260028.1364   24260034.4054
  20741610.250    -4218634.95149  -3274048.15849  20741611.2684   20741615.4904
  19916057.585    -2903245.44849  -2255007.65849  19916058.0584   19916061.9874
  21928280.708    -5509721.24549  -3987777.62949  21928280.2944   21928283.9664
  21524490.749       98839.12749     76985.59249  21524492.1394   21524495.9094
  22911859.086    -5779046.40049  -4456969.83349  22911860.6204   22911863.5454
  23417204.494    -1654823.893 9  -1276861.339 9  23417203.858    23417208.675
 96  4 17 15 11 29.9990000  0  8  3  2 19 18 31 29 27 28
  22904540.263    -2983038.86449  -2315179.72049  22904540.4334   22904544.6094
  24231071.391    -1406806.26549  -1076994.56249  24231072.2884   24231078.1434
  20724049.425    -4310915.77549  -3345955.28649  20724050.7284   20724055.1394
  19905349.015    -2959518.20349  -2298856.56749  19905349.6634   19905353.7864
  21906296.978    -5625244.91449  -4077796.06149  21906297.3694   21906300.4924
  21525791.732      105674.32149     82311.70349  21525792.6864   21525796.7234
  22887099.582    -5909169.78649  -4558364.67449  22887100.0804   22887104.3484
  23410092.662    -1692183.997 9  -1305973.116 9  23410093.824    23410098.367
 96  4 17 15 11 59.9990000  0  8  3  2 19 18 31 29 27 28
  22893859.904    -3039162.36249  -2358912.31549  22893860.2964   22893865.1784
  24202117.556    -1558978.95849  -1195570.65749  24202115.0724   24202119.9474
  20706489.089    -4403199.75249  -3417864.87149  20706489.8314   20706493.9124
  19894701.499    -3015472.87149  -2342457.60949  19894702.1474   19894705.7164
  21884373.440    -5740457.07949  -4167571.75449  21884372.3814   21884376.4304
  21527131.285      112717.75949     87800.08049  21527132.8164   21527137.2064
  22862314.765    -6039400.80849  -4659843.36549  22862315.8914   22862321.6094
  23403053.268    -1729171.630 9  -1334794.652 9  23403054.661    23403060.167
 96  4 17 15 12 29.9990000  0  8  3  2 19 18 31 29 27 28
  22883275.109    -3094780.15249  -2402250.85949  22883276.4224   22883280.6644
  24173176.574    -1711045.37459  -1314063.89859  24173177.4064   24173180.5174
  20688951.178    -4495360.67849  -3489678.58149  20688952.2334   20688956.3604
  19884133.609    -3071007.01249  -2385730.96749  19884134.3364   19884137.9054
  21862531.002    -5855233.15049  -4257007.64549  21862532.1524   21862535.6414
  21528532.373      120073.47349     93531.77649  21528532.5594   21528536.5074
  22837532.061    -6169646.17949  -4761333.27049  22837532.4844   22837535.5234
  23396110.165    -1765679.673 9  -1363242.482 9  23396108.848    23396111.498
 96  4 17 15 12 59.9990000  0  8  3  2 19 18 31 29 27 28
  22872768.246    -3149981.46849  -2445264.86149  22872771.4234   22872776.4614
  24144246.844    -1863058.14659  -1432515.33659  24144249.2054   24144253.4304
  20671424.426    -4587464.96549  -3561448.15249  20671425.4794   20671429.5064
  19873635.241    -3126176.95449  -2428720.53149  19873635.6794   19873639.4814
  21840763.936    -5969621.80549  -4346141.64349  21840764.2134   21840767.9094
  21529974.803      127661.36649     99444.39049  21529976.5324   21529980.6164
  22812729.071    -6299976.48049  -4862889.32749  22812730.4074   22812733.7054
  23389239.649    -1801777.661 9  -1391370.803 9  23389239.720    23389242.350
 96  4 17 15 13 29.9990000  0  8  3  2 19 18 31 29 27 28
  22862346.693    -3204765.93049  -2487954.05349  22862346.8704   22862351.1344
  24115335.200    -2014991.38159  -1550904.83759  24115337.6964   24115341.4364
  20653910.159    -4679502.07049  -3633165.36849  20653911.3414   20653915.5944
  19863208.235    -3180971.63849  -2471417.69549  19863208.2964   19863212.1084
  21819073.207    -6083609.06949  -4434962.86349  21819074.0334   21819076.7434
  21531465.831      135491.44049    105545.73549  21531466.9734   21531470.6684
  22787916.804    -6430376.64549  -4964499.82149  22787916.2264   22787922.1394
  23382451.914    -1837451.972 9  -1419168.992 9  23382451.719    23382453.713
 96  4 17 15 13 59.9990000  0  8  3  2 19 18 31 29 27 28
  22851998.386    -3259144.82349  -2530327.21649  22851998.8344   22852003.1764
  24086441.091    -2166850.42849  -1669236.57049  24086440.4814   24086444.4934
  20636409.588    -4771465.01849  -3704824.80849  20636411.2334   20636415.5824
  19852854.965    -3235375.66749  -2513810.45849  19852855.8554   19852859.6624
  21797455.439    -6197211.91349  -4523484.55649  21797455.0744   21797459.0144
  21533003.149      143571.40249    111841.77949  21533004.4244   21533008.3824
  22763086.562    -6560851.68549  -5066168.66649  22763087.9804   22763093.2234
  23375742.494    -1872705.738 9  -1446639.487 9  23375743.214    23375746.052
 96  4 17 15 14 29.9990000  0  8  3  2 19 18 31 29 27 28
  22841732.174    -3313092.06649  -2572364.04449  22841733.1084   22841736.6234
  24057554.571    -2318636.85959  -1787511.68159  24057555.5054   24057560.8064
  20618924.235    -4863353.64349  -3776426.32349  20618925.3334   20618929.5664
  19842581.220    -3289365.35749  -2555880.33749  19842581.9804   19842585.9154
  21775908.860    -6310433.84949  -4611709.41649  21775909.8964   21775913.9114
  21534592.373      151918.21149    118345.76749  21534592.5634   21534596.9034
  22738250.583    -6691369.20749  -5167870.61749  22738250.6244   22738255.4094
  23369116.763    -1907524.024 9  -1473770.637 9  23369116.135    23369120.327
 96  4 17 15 14 59.9990000  0  8  3  2 19 18 31 29 27 28
  22831542.490    -3366651.30249  -2614098.50949  22831540.7884   22831545.9974
  24028671.914    -2470414.51659  -1905779.89159  24028673.6944   24028677.2304
  20601440.587    -4955231.21649  -3848019.23849  20601441.8994   20601445.9544
  19832379.461    -3342978.96649  -2597657.17349  19832379.8384   19832383.4944
  21754424.069    -6423337.09849  -4699685.95349  21754425.3094   21754429.9764
  21536221.176      160484.69949    125020.93049  21536223.0704   21536226.3994
  22713397.617    -6821964.85549  -5269633.44049  22713399.6844   22713404.0704
  23362561.920    -1941957.670 9  -1500602.057 9  23362562.658    23362568.270
 96  4 17 15 15 29.9990000  0  8  3  2 19 18 31 29 27 28
  22821440.796    -3419730.90749  -2655459.24549  22821439.3544   22821444.7824
  23999804.336    -2622129.48549  -2023999.30949  23999802.6264   23999808.2804
  20583973.189    -5047025.35049  -3919547.12949  20583973.9384   20583978.0454
  19822261.491    -3396146.79449  -2639086.65449  19822262.2294   19822266.1514
  21733009.970    -6535869.29649  -4787373.35749  21733011.4134   21733015.8014
  21537907.765      169345.01749    131925.05549  21537908.9614   21537912.3804
  22688547.666    -6952570.60249  -5371404.15149  22688546.0674   22688551.3934
  23356094.908    -1975936.023 9  -1527078.692 9  23356095.169    23356101.598
 96  4 17 15 15 59.9990000  0  8  3  2 19 18 31 29 27 28
  22811420.416    -3472390.29149  -2696492.51549  22811419.7444   22811424.7394
  23970929.798    -2773856.29949  -2142227.99949  23970930.6284   23970934.8384
  20566503.739    -5138826.45049  -3991080.45649  20566504.9854   20566508.9704
  19812214.431    -3448945.65149  -2680228.62449  19812214.9104   19812218.5634
  21711654.892    -6648092.62749  -4874820.09449  21711654.9054   21711660.5644
  21539634.689      178419.51449    138996.07949  21539635.5124   21539640.5954
  22663677.140    -7083243.41849  -5473227.09949  22663680.6924   22663684.9634
  23349703.818    -2009527.630 9  -1553253.965 9  23349704.248    23349709.742
 96  4 17 15 16 29.9990000  0  8  3  2 19 18 31 29 27 28
  22801489.310    -3524577.93849  -2737158.22249  22801489.4504   22801493.5454
  23942070.055    -2925515.00549  -2260403.60949  23942069.9224   23942076.4984
  20549045.140    -5230571.58249  -4062570.16649  20549046.2834   20549050.5744
  19802245.384    -3501328.17249  -2721046.18149  19802246.8904   19802250.7834
  21690368.183    -6759954.49549  -4961985.16849  21690369.7314   21690373.5854
  21541411.125      187753.72349    146269.46149  21541412.1404   21541415.5734
  22638812.910    -7213918.62249  -5575051.90249  22638813.9014   22638818.7284
  23343398.253    -2042676.089 9  -1579083.942 9  23343397.564    23343401.799
 96  4 17 15 16 59.9980000  0  8  3  2 19 18 31 29 27 28
  22791642.681    -3576319.78649  -2777476.55049  22791643.1114   22791647.9894
  23913225.439    -3077083.41549  -2378508.79549  23913227.2994   23913235.0914
  20531602.944    -5322233.03249  -4133994.67449  20531603.5604   20531607.8374
  19792357.767    -3553294.86149  -2761539.70949  19792357.8414   19792361.6094
  21669152.089    -6871447.31749  -5048862.67449  21669152.6754   21669157.6054
  21543235.338      197341.90549    153740.75249  21543236.6884   21543240.5404
  22613941.742    -7344620.01649  -5676897.13749  22613942.4604   22613946.1624
  23337172.368    -2075384.894 9  -1604571.344 9  23337174.241    23337177.810
 96  4 17 15 17 29.9980000  0  8  3  2 19 18 31 29 27 28
  22781868.953    -3627669.92149  -2817489.65549  22781870.6224   22781875.2904
  23884398.118    -3228587.22349  -2496563.67249  23884398.5414   23884405.3474
  20514168.761    -5413847.51449  -4205382.57549  20514170.0604   20514174.5874
  19782537.543    -3604897.99649  -2801749.94549  19782538.1124   19782541.9184
  21648001.141    -6982595.51749  -5135471.64649  21648002.2194   21648006.8804
  21545101.908      207144.97449    161379.48349  21545102.2924   21545105.8724
  22589053.395    -7475406.76849  -5778808.86749  22589054.1694   22589058.9014
  23331025.911    -2107690.812 9  -1629744.812 9  23331025.482    23331030.090
 96  4 17 15 17 59.9980000  0  8  3  2 19 18 31 29 27 28
  22772169.554    -3678637.19249  -2857204.41149  22772171.6034   22772176.0964
  23855582.934    -3380002.55649  -2614549.61049  23855584.0254   23855589.6514
  20496744.185    -5505415.25149  -4276734.05449  20496745.0244   20496749.4724
  19772785.866    -3656145.79449  -2841683.30249  19772786.1954   19772790.0884
  21626920.574    -7093380.91249  -5221797.91949  21626919.8584   21626924.5154
  21547006.069      217158.99949    169182.60649  21547007.9044   21547011.2904
  22564151.770    -7606263.05349  -5880774.80649  22564152.5684   22564157.2274
  23324954.023    -2139593.437 9  -1654604.012 9  23324954.948    23324959.447
 96  4 17 15 18 29.9980000  0  8  3  2 19 18 31 29 27 28
  22762562.858    -3729126.11749  -2896546.43449  22762564.4654   22762569.2744
  23826807.424    -3531234.88249  -2732392.94549  23826806.6734   23826810.7634
  20479351.680    -5596815.36949  -4347954.92349  20479352.2284   20479356.6944
  19763123.012    -3706924.36649  -2881251.03249  19763123.2684   19763127.2044
  21605925.283    -7203701.45849  -5307761.96549  21605926.8164   21605931.1024
  21548973.335      227492.89749    177234.97249  21548973.6534   21548978.0534
  22539256.036    -7737099.33149  -5982725.12849  22539257.1494   22539259.2914
  23318978.341    -2170995.995 9  -1679073.549 9  23318979.674    23318983.307
 96  4 17 15 18 59.9980000  0  8  3  2 19 18 31 29 27 28
  22753030.170    -3779223.65549  -2935583.48849  22753031.2274   22753036.5484
  23798035.991    -3682418.17849  -2850198.08749  23798036.8584   23798042.0914
  20461968.303    -5688163.16249  -4419135.02449  20461969.4344   20461973.8254
  19753530.716    -3757332.71749  -2920530.27949  19753530.6694   19753534.4964
  21585003.562    -7313647.03849  -5393433.83149  21585004.4824   21585008.7794
  21550982.327      238056.99549    185466.71249  21550984.0934   21550988.1454
  22514341.210    -7868014.36449  -6084736.82549  22514342.9304   22514347.8484
  23313075.952    -2202004.564 9  -1703236.076 9  23313078.136    23313083.617
 96  4 17 15 19 29.9980000  0  8  3  2 19 18 31 29 27 28
  22743596.270    -3828819.97349  -2974229.97649  22743593.8074   22743597.8914
  23769289.784    -3833487.76249  -2967914.62349  23769290.0684   23769293.4934
  20444608.712    -5779388.72949  -4490219.87549  20444609.8204   20444614.0784
  19744024.900    -3807282.55449  -2959452.24249  19744025.5824   19744029.6964
  21564166.978    -7423145.20949  -5478757.05249  21564167.2254   21564172.1924
  21553054.184      248931.82249    193940.58349  21553054.1604   21553057.5134
  22489437.142    -7998892.51049  -6186719.79549  22489438.3214   22489443.5744
  23307269.279    -2232534.649 9  -1727025.785 9  23307269.366    23307273.642
 96  4 17 15 19 59.9980000  0  8  3  2 19 18 31 29 27 28
  22734242.750    -3877964.48249  -3012524.40849  22734240.8994   22734245.6724
  23740544.115    -3984524.05549  -3085605.21449  23740547.3594   23740552.8994
  20427259.660    -5870557.38049  -4561260.38349  20427260.8664   20427265.0464
  19734597.353    -3856827.84349  -2998058.96849  19734597.7714   19734601.4154
  21543399.267    -7532272.77749  -5563791.50349  21543401.0354   21543406.2754
  21555167.785      260044.98149    202600.16249  21555168.8834   21555172.7074
  22464525.394    -8129793.86649  -6288720.82349  22464528.4814   22464532.2664
  23301536.494    -2262655.101 9  -1750496.286 9  23301538.063    23301541.250
 96  4 17 15 20 29.9980000  0  8  3  2 19 18 31 29 27 28
  22724983.676    -3926604.68449  -3050425.85549  22724984.4564   22724990.5774
  23711817.501    -4135492.54149  -3203242.95449  23711819.1354   23711824.6964
  20409932.103    -5961616.03549  -4632215.17649  20409933.1264   20409937.5244
  19725256.326    -3905914.69649  -3036308.47049  19725256.7584   19725260.6354
  21522713.747    -7640984.92349  -5648502.25749  21522714.3304   21522718.6984
  21557337.432      271445.56849    211483.71749  21557338.3814   21557342.3184
  22439618.297    -8260695.96149  -6390722.45349  22439618.2334   22439621.9824
  23295892.945    -2292325.850 9  -1773616.366 9  23295892.194    23295895.582
 96  4 17 15 20 59.9980000  0  8  3  2 19 18 31 29 27 28
  22715818.740    -3974765.97849  -3087954.14649  22715821.2614   22715824.6624
  23683096.872    -4286416.75049  -3320846.20149  23683098.3394   23683105.8574
  20392617.906    -6052606.21749  -4703116.61749  20392618.2804   20392622.4324
  19715993.643    -3954585.36249  -3074233.67149  19715995.1614   19715998.9064
  21502099.396    -7749313.71849  -5732914.29549  21502100.3114   21502105.1294
  21559553.442      283093.51749    220560.02549  21559554.9544   21559558.3844
  22414701.895    -8391628.60249  -6492747.86449  22414702.1984   22414707.3534
  23290323.791    -2321578.633 9  -1796410.765 9  23290324.545    23290328.644
 96  4 17 15 21 29.9980000  0  8  3  2 19 18 31 29 27 28
  22706746.877    -4022434.05149  -3125098.11749  22706750.0254   22706754.6394
  23654398.892    -4437243.83449  -3438373.77649  23654399.1884   23654403.1064
  20375320.666    -6143501.16749  -4773943.84649  20375321.5484   20375325.8084
  19706817.107    -4002812.77149  -3111813.47449  19706817.6604   19706821.2944
  21481565.294    -7857221.31349  -5816998.12049  21481566.2524   21481570.3604
  21561818.484      294994.46049    229833.46749  21561819.4164   21561823.5354
  22389781.822    -8522581.14649  -6594788.78649  22389783.5494   22389788.4504
  23284842.625    -2350386.319 9  -1818858.332 9  23284842.154    23284847.939
 96  4 17 15 21 59.9980000  0  8  3  2 19 18 31 29 27 28
  22697767.909    -4069635.10149  -3161878.17249  22697767.7994   22697772.2944
  23625713.687    -4587970.81249  -3555823.33149  23625715.1644   23625719.3344
  20358041.840    -6234298.56549  -4844695.06149  20358043.3564   20358047.4324
  19697720.664    -4050615.83649  -3149062.61849  19697721.0604   19697724.7154
  21461115.185    -7964697.37949  -5900745.70149  21461114.8544   21461118.0314
  21564131.144      307146.98849    239302.94749  21564131.9254   21564135.6334
  22364852.840    -8653583.40149  -6696868.45749  22364854.2204   22364857.7254
  23279441.078    -2378759.021 9  -1840966.940 9  23279442.919    23279447.998
 96  4 17 15 22 29.9980000  0  8  3  2 19 18 31 29 27 28
  22688885.434    -4116331.59949  -3198265.07049  22688881.7554   22688886.6054
  23597064.966    -4738539.54749  -3673149.55249  23597063.8304   23597066.7014
  20340794.043    -6324942.00149  -4915326.31249  20340794.3004   20340798.4994
  19688711.063    -4097958.28849  -3185952.85049  19688712.1324   19688715.3924
  21440753.575    -8071688.29149  -5984115.22649  21440754.6464   21440759.1124
  21566505.097      319617.68449    249020.35649  21566505.6574   21566509.1304
  22339923.472    -8784582.45749  -6798945.62949  22339925.2404   22339929.8664
  23274134.519    -2406645.158 9  -1862696.401 9  23274136.348    23274141.240
 96  4 17 15 22 59.9980000  0  8  3  2 19 18 31 29 27 28
  22680070.902    -4162629.41249  -3234341.30149  22680070.8174   22680077.1604
  23568420.574    -4889051.11549  -3790431.27549  23568422.8244   23568424.5874
  20323552.870    -6415540.78649  -4985922.77049  20323553.8994   20323558.0504
  19679770.483    -4144941.36849  -3222563.05349  19679771.5664   19679775.1934
  21420465.619    -8178300.73249  -6067189.83849  21420466.4134   21420470.0884
  21568917.617      332300.25349    258902.86449  21568918.5734   21568922.4674
  22314980.826    -8915664.62749  -6901087.57849  22314981.3544   22314986.0784
  23268904.743    -2434144.331 9  -1884124.329 9  23268904.170    23268909.409
 96  4 17 15 23 29.9980000  0  8  3  2 19 18 31 29 27 28
  22671337.425    -4208507.02449  -3270090.08449  22671340.3844   22671345.9154
  23539796.542    -5039473.74549  -3907643.69849  23539798.3744   23539802.3084
  20306326.272    -6506066.75549  -5056462.48149  20306327.5094   20306331.5904
  19670903.465    -4191537.19149  -3258871.49349  19670904.5624   19670908.1394
  21400256.141    -8284505.38849  -6149946.71749  21400256.3294   21400260.4394
  21571376.615      345223.69849    268973.05749  21571377.8724   21571381.2404
  22290024.168    -9046806.42049  -7003275.96949  22290025.9234   22290030.7724
  23263749.865    -2461231.545 9  -1905231.262 9  23263749.003    23263754.275
 96  4 17 15 23 59.9980000  0  8  3  2 19 18 31 29 27 28
  22662695.744    -4253933.07849  -3305487.01549  22662697.4154   22662701.3354
  23511192.183    -5189785.80349  -4024769.94249  23511192.4754   23511200.0644
  20289119.016    -6596496.19849  -5126926.97849  20289119.6264   20289123.8454
  19662114.581    -4237727.33849  -3294863.82549  19662114.7324   19662118.4924
  21380126.021    -8390287.35949  -6232374.21449  21380126.9834   21380131.1614
  21573889.271      358428.38949    279262.42349  21573890.7794   21573894.9114
  22265066.635    -9177971.39249  -7105482.43349  22265065.8874   22265070.9384
  23258678.839    -2487880.391 9  -1925996.625 9  23258678.492    23258682.621
 96  4 17 15 24 29.9980000  0  8  3  2 19 18 31 29 27 28
  22654146.857    -4298852.84949  -3340489.43849  22654149.9594   22654153.1534
  23482621.564    -5339940.11849  -4141773.22649  23482622.1194   23482625.4894
  20271932.694    -6686807.04049  -5197299.06149  20271933.8704   20271938.1214
  19653411.782    -4283460.01249  -3330499.68249  19653412.0384   19653415.9554
  21360085.678    -8495600.86349  -6314436.66049  21360087.1154   21360090.7064
  21576461.674      371946.07049    289795.65349  21576462.9334   21576466.1224
  22240111.231    -9309109.24349  -7207667.75749  22240111.5214   22240116.0184
  23253698.728    -2514050.593 9  -1946388.999 9  23253699.604    23253702.945
 96  4 17 15 24 59.9980000  0  8  3  2 19 18 31 29 27 28
  22645682.428    -4343341.57049  -3375155.99549  22645683.4074   22645687.6264
  23454065.176    -5490001.50949  -4258704.16549  23454064.4384   23454069.2234
  20254751.787    -6777094.37249  -5267652.81949  20254752.6754   20254756.8234
  19644784.456    -4328796.67749  -3365826.96149  19644784.8414   19644788.7874
  21340122.197    -8600516.09849  -6396188.79749  21340121.8814   21340125.8044
  21579073.895      385674.92349    300493.44549  21579075.5064   21579078.5224
  22215145.975    -9440298.61549  -7309893.22449  22215147.0494   22215150.6754
  23248793.093    -2539825.120 9  -1966473.076 9  23248794.201    23248798.064
 96  4 17 15 25 29.9980000  0  8  3  2 19 18 31 29 27 28
  22637311.649    -4387335.08949  -3409436.68049  22637311.6084   22637315.6494
  23425538.962    -5639897.43649  -4375506.17549  23425540.1154   23425546.8114
  20237588.684    -6867286.95949  -5337932.75749  20237589.7414   20237593.9134
  19636244.343    -4373674.78149  -3400796.91849  19636244.8244   19636248.7214
  21320246.059    -8704958.97749  -6477572.84449  21320247.2934   21320250.6134
  21581739.738      399683.25849    311409.01449  21581741.1504   21581745.0694
  22190186.064    -9571472.93849  -7412106.97949  22190185.4014   22190189.3744
  23243976.354    -2565135.774 9  -1986195.694 9  23243976.889    23243981.742
 96  4 17 15 25 59.9980000  0  8  3  2 19 18 31 29 27 28
  22629022.882    -4430883.04049  -3443370.15949  22629024.4414   22629029.2114
  23397038.717    -5789686.37249  -4492224.76449  23397037.2294   23397043.0704
  20220437.232    -6957422.94449  -5408168.58449  20220437.2974   20220441.7204
  19627783.158    -4418138.09049  -3435443.65549  19627783.7814   19627788.0024
  21300453.801    -8808971.81249  -6558621.80549  21300454.0784   21300457.5914
  21584449.289      413919.31449    322502.03349  21584450.7714   21584453.4464
  22165216.647    -9702680.65149  -7514346.73749  22165217.5074   22165222.5934
  23239239.819    -2590032.975 9  -2005596.124 9  23239239.698    23239243.262
 96  4 17 15 26 29.9980000  0  8  3  2 19 18 31 29 27 28
  22620823.424    -4473958.93449  -3476935.78649  22620825.9684   22620832.2834
  23368559.733    -5939327.59249  -4608828.27649  23368560.2824   23368565.0954
  20203302.912    -7047455.07049  -5478323.48849  20203304.9734   20203309.0674
  19619410.106    -4462141.56549  -3469732.08849  19619410.2434   19619414.3074
  21280751.501    -8912506.95349  -6639298.53249  21280751.6374   21280755.9334
  21587205.806      428407.83349    333791.76449  21587207.1314   21587211.3864
  22140249.101    -9833888.67349  -7616586.74749  22140249.7284   22140254.4134
  23234587.934    -2614484.012 9  -2024648.893 9  23234587.454    23234590.067
 96  4 17 15 26 59.9980000  0  8  3  2 19 18 31 29 27 28
  22612713.104    -4516599.79049  -3510162.42849  22612713.4804   22612718.5494
  23340108.337    -6088848.80349  -4725338.32249  23340108.8394   23340111.9394
  20186189.201    -7137392.42149  -5548404.53549  20186190.2344   20186194.4034
  19611119.869    -4505709.43949  -3503681.08349  19611119.6384   19611123.3534
  21261133.258    -9015599.33949  -6719630.24949  21261134.2444   21261138.9864
  21590006.875      443125.69349    345260.19849  21590008.1324   21590012.5264
  22115276.244    -9965121.70549  -7718846.22849  22115276.6574   22115281.9994
  23230012.649    -2638514.382 9  -2043373.870 9  23230013.714    23230017.503
 96  4 17 15 27 29.9980000  0  8  3  2 19 18 31 29 27 28
  22604682.533    -4558788.24249  -3543036.55349  22604685.0734   22604690.5204
  23311677.513    -6238255.20849  -4841758.84549  23311676.1114   23311681.9054
  20169096.458    -7227215.61549  -5618396.63449  20169097.4664   20169101.6084
  19602913.537    -4548830.99349  -3537282.30049  19602913.8014   19602917.3944
  21241603.325    -9118225.96349  -6799599.03749  21241604.5994   21241609.1764
  21592857.560      458107.22149    356934.11149  21592859.0034   21592863.0174
  22090300.792   -10096367.62049  -7821115.77749  22090301.7294   22090305.8464
  23225524.642    -2662106.016 9  -2061757.002 9  23225524.710    23225528.972
 96  4 17 15 27 59.9980000  0  8  3  2 19 18 31 29 27 28
  22596736.751    -4600557.69249  -3575584.18249  22596737.5614   22596742.6434
  23283262.613    -6387571.02349  -4958108.81149  23283262.1694   23283268.2624
  20152019.188    -7316957.97649  -5688325.74549  20152020.2814   20152024.3824
  19594786.915    -4591533.12849  -3570556.68949  19594787.9654   19594791.6374
  21222159.998    -9220405.39449  -6879219.35949  21222161.3054   21222164.2624
  21595752.771      473320.55749    368788.63349  21595753.6044   21595757.6524
  22065318.397   -10227646.36449  -7923410.88549  22065319.6004   22065324.0134
  23221114.267    -2685293.242 9  -2079824.984 9  23221112.844    23221116.405
 96  4 17 15 28 29.9980000  0  8  3  2 19 18 31 29 27 28
  22588871.904    -4641888.06949  -3607789.68249  22588873.0354   22588877.4834
  23254871.920    -6536773.25849  -5074370.26049  23254870.8754   23254877.0784
  20134955.668    -7406625.52749  -5758196.56049  20134957.0594   20134961.2194
  19586741.834    -4633807.75749  -3603497.95849  19586743.1694   19586747.0174
  21202802.745    -9322130.53149  -6958485.68949  21202802.9754   21202807.3684
  21598696.301      488788.40449    380841.49349  21598696.8974   21598701.3714
  22040337.323   -10358929.11549  -8025709.11449  22040337.9214   22040341.9394
  23216779.188    -2708060.160 9  -2097565.458 9  23216780.573    23216782.884
 96  4 17 15 28 59.9970000  0  8  3  2 19 18 31 29 27 28
  22581093.969    -4682758.58149  -3639636.85449  22581095.1204   22581099.6204
  23226496.702    -6685872.63049  -5190551.55249  23226498.3424   23226503.5954
  20117908.017    -7496213.64549  -5828005.48649  20117909.0184   20117913.2464
  19578781.037    -4675650.10849  -3636102.39349  19578781.2514   19578785.2464
  21183531.918    -9423395.89649  -7037393.75949  21183532.7104   21183537.3444
  21601691.345      504528.68949    393106.62649  21601692.9204   21601696.5244
  22015359.038   -10490195.65949  -8127994.74249  22015359.2644   22015362.6304
  23212529.374    -2730397.336 9  -2114971.056 9  23212530.306    23212534.267
 96  4 17 15 29 29.9970000  0  8  3  2 19 18 31 29 27 28
  22573411.536    -4723119.60149  -3671087.00649  22573413.4854   22573418.2414
  23198148.001    -6834852.50949  -5306639.70149  23198147.5564   23198152.8264
  20100880.898    -7585692.79549  -5897729.49649  20100881.9444   20100885.9814
  19570904.723    -4717037.32349  -3668352.17849  19570905.1554   19570908.9514
  21164357.921    -9524160.36949  -7115911.52649  21164358.5774   21164361.6814
  21604744.989      520580.06849    405614.17949  21604747.5304   21604751.4974
  21990386.068   -10621424.34449  -8230250.84549  21990386.6974   21990390.8194
  23208365.417    -2752272.715 9  -2132016.843 9  23208367.137    23208370.871
 96  4 17 15 29 59.9970000  0  9  3  2 19 18 31 29 27 16 28
  22565820.558    -4763006.99649  -3702168.10749  22565822.0464   22565828.2584
  23169816.659    -6983729.12649  -5422647.46349  23169816.6214   23169823.6634
  20083869.382    -7675084.92549  -5967385.70449  20083871.0334   20083875.6514
  19563105.925    -4758014.08849  -3700282.13849  19563107.6194   19563111.5964
  21145266.903    -9624474.57049  -7194078.42749  21145268.8014   21145272.3744
  21607851.091      536894.05549    418326.35049  21607851.5434   21607855.7314
  21965415.069   -10752647.04649  -8332502.28949  21965415.5154   21965420.4924
  24099736.064    -7261064.74559  -5630505.97859  24099732.1934   24099739.8714
  23204285.593    -2773727.674 9  -2148734.987 9  23204284.876    23204287.589
 96  4 17 15 30 29.9970000  0  9  3  2 19 18 31 29 27 16 28
  22558323.458    -4802405.44749  -3732868.21549  22558325.7774   22558330.4214
  23141504.370    -7132506.49049  -5538577.86349  23141505.4494   23141512.3054
  20066875.916    -7764387.32049  -6036971.98149  20066877.1254   20066881.4054
  19555390.794    -4798565.85249  -3731880.91649  19555390.4804   19555394.4974
  21126262.721    -9724348.75149  -7271902.45049  21126263.3214   21126267.5364
  21611006.492      553475.84849    431247.20949  21611007.7774   21611011.4864
  21940441.571   -10883882.83949  -8434763.94349  21940442.2524   21940446.6204
  24075458.318    -7388583.36549  -5729871.15649  24075464.9994   24075470.0044
  23200281.347    -2794755.335 9  -2165120.206 9  23200282.183    23200287.227
 96  4 17 15 30 59.9970000  0  9  3  2 19 18 31 29 27 16 28
  22550920.365    -4841319.47649  -3763190.84449  22550921.9444   22550925.0974
  23113216.095    -7281184.28849  -5654430.62749  23113214.5624   23113217.7464
  20049902.497    -7853582.70949  -6106474.88249  20049903.8844   20049908.1644
  19547758.363    -4838675.01349  -3763134.81549  19547758.4354   19547762.5674
  21107344.429    -9823768.06749  -7349372.05249  21107344.6894   21107349.1494
  21614209.316      570314.51449    444368.22849  21614211.4754   21614215.6574
  21915461.002   -11015144.65549  -8537045.85949  21915463.9604   21915467.5784
  24051270.714    -7515749.04649  -5828961.28049  24051268.3204   24051273.0144
  23196363.504    -2815353.654 9  -2181170.877 9  23196363.125    23196367.062
 96  4 17 15 31 29.9970000  0  9  3  2 19 18 31 29 27 16 28
  22543605.204    -4879769.17249  -3793151.65649  22543605.5604   22543609.3614
  23084943.340    -7429742.42849  -5770190.19049  23084943.6204   23084950.2744
  20032946.653    -7942688.65849  -6175908.08649  20032947.7514   20032952.1624
  19540208.222    -4878346.03249  -3794047.31049  19540209.3274   19540213.0184
  21088508.718    -9922747.24149  -7426498.66749  21088509.6064   21088514.2864
  21617458.767      587382.99249    457668.32049  21617458.9234   21617463.8404
  21890475.469   -11146454.70349  -8639365.35949  21890476.5324   21890480.8374
  24027131.710    -7642574.16549  -5927786.03349  24027133.8974   24027139.7234
  23192519.954    -2835535.585 9  -2196897.053 9  23192522.148    23192527.491
 96  4 17 15 31 59.9970000  0  9  3  2 19 18 31 29 27 16 28
  22536375.069    -4917761.00549  -3822755.69849  22536375.9604   22536380.1054
  23056698.585    -7578153.23949  -5885834.96549  23056701.8774   23056707.8294
  20016009.403    -8031695.71149  -6245264.23049  20016010.1404   20016014.4154
  19532747.180    -4917558.79949  -3824602.72049  19532747.4994   19532751.3584
  21069757.873   -10021285.03049  -7503281.36349  21069758.1174   21069762.2634
  21620751.297      604688.83649    471153.37449  21620752.5664   21620757.4314
  21865484.727   -11277795.06749  -8741708.50049  21865483.9934   21865487.2724
  24003068.004    -7769039.35649  -6026330.33349  24003068.6534   24003073.6214
  23188761.602    -2855292.041 9  -2212291.714 9  23188763.053    23188767.373
 96  4 17 15 32 29.9970000  0  9  3  2 19 18 31 29 27 16 28
  22529227.127    -4955325.12449  -3852026.45849  22529226.9644   22529231.6654
  23028480.207    -7726447.53349  -6001388.93649  23028481.7154   23028488.1314
  19999086.054    -8120625.60549  -6314560.25249  19999087.4644   19999091.4474
  19525369.361    -4956325.10549  -3854810.24049  19525370.2974   19525374.2824
  21051089.174   -10119388.98449  -7579725.99149  21051090.0944   21051094.3064
  21624083.280      622194.96549    484794.50649  21624084.3364   21624087.7614
  21840479.276   -11409183.35049  -8844088.97149  21840481.2934   21840485.0244
  23979065.442    -7895170.72549  -6124614.50349  23979065.2214   23979072.7464
  23185080.144    -2874644.107 9  -2227371.269 9  23185079.442    23185084.028
 96  4 17 15 32 59.9970000  0  9  3  2 19 18 31 29 27 16 28
  22522165.957    -4992418.63249  -3880930.47949  22522168.0434   22522173.6014
  23000296.009    -7874565.29449  -6116805.31649  23000298.0084   23000304.0484
  19982189.641    -8209416.28049  -6383747.78849  19982191.0634   19982195.3714
  19518083.007    -4994615.09049  -3884646.59449  19518084.2574   19518088.0244
  21032515.150   -10216994.15449  -7655781.95449  21032516.3774   21032520.4714
  21627458.647      639939.78949    498621.61249  21627460.6424   21627465.6484
  21815484.590   -11540543.55349  -8946447.56749  21815483.8474   21815488.2054
  23955138.397    -8020921.32049  -6222601.96849  23955137.7484   23955140.7504
  23181482.307    -2893545.973 9  -2242100.021 9  23181483.825    23181488.073
 96  4 17 15 33 29.9970000  0  9  3  2 19 18 31 29 27 16 28
  22515197.485    -5029045.07049  -3909470.55549  22515197.3614   22515202.6834
  22972145.379    -8022502.47849  -6232081.03649  22972145.9784   22972149.9154
  19965320.259    -8298066.68749  -6452826.03049  19965321.4534   19965325.7904
  19510882.806    -5032456.99649  -3914133.80049  19510883.1784   19510887.0234
  21014035.388   -10314108.87749  -7731455.75449  21014035.9144   21014040.0924
  21630881.835      657921.24649    512633.11549  21630882.9644   21630885.9524
  21790491.892   -11671868.98649  -9048779.06749  21790494.0584   21790497.6544
  23931279.357    -8146286.77649  -6320289.33049  23931280.6904   23931286.3414
  23177971.462    -2912008.599 9  -2256486.510 9  23177968.930    23177974.210
 96  4 17 15 33 59.9970000  0  9  3  2 19 18 31 29 27 16 28
  22508318.726    -5065190.97049  -3937636.19849  22508320.2304   22508323.6634
  22944028.511    -8170259.19049  -6347216.11249  22944028.0954   22944033.2294
  19948480.813    -8386560.47949  -6521782.23049  19948481.9424   19948486.0454
  19503766.191    -5069857.73149  -3943277.23749  19503765.8564   19503769.6694
  20995654.011   -10410702.36049  -7806723.40349  20995654.4754   20995659.4494
  21634350.973      676156.28149    526842.21649  21634352.6974   21634356.5064
  21765512.814   -11803138.06749  -9151066.65249  21765514.5294   21765518.1974
  23907493.083    -8271257.65749  -6417669.24249  23907498.4804   23907504.1224
  23174539.336    -2930021.873 9  -2270522.854 9  23174541.333    23174546.511
 96  4 17 15 34 29.9970000  0  9  3  2 19 18 31 29 27 16 28
  22501523.189    -5100899.18349  -3965460.80249  22501526.1344   22501528.8174
  22915934.442    -8317895.47649  -6462257.35049  22915934.6894   22915939.0654
  19931657.245    -8474966.02249  -6590669.66849  19931658.5834   19931662.6804
  19496720.770    -5106878.37149  -3972124.49549  19496721.0654   19496724.9444
  20977363.825   -10506815.43049  -7881616.68849  20977364.7984   20977369.5314
  21637860.057      694590.44149    541206.47949  21637860.2514   21637865.5614
  21740531.843   -11934414.72649  -9253360.14349  21740532.7334   21740536.6844
  23883787.207    -8395877.90849  -6514775.92849  23883785.1284   23883789.8284
  23171188.040    -2947640.212 9  -2284251.456 9  23171189.973    23171193.913
 96  4 17 15 34 59.9970000  0  9  3  2 19 18 31 29 27 16 28
  22494828.814    -5136096.40349  -3992887.23249  22494828.0124   22494831.3094
  22887874.687    -8465343.95549  -6577152.24749  22887875.7184   22887881.3604
  19914860.961    -8563235.35449  -6659450.96449  19914861.4784   19914865.8094
  19489758.206    -5143461.84449  -4000631.10749  19489759.7494   19489763.5164
  20959178.659   -10602383.35549  -7956085.20249  20959179.1934   20959182.8724
  21641420.888      713313.67949    555795.98649  21641423.6964   21641427.5314
  21715560.932   -12065642.95049  -9355615.88649  21715561.2564   21715564.4714
  23860147.900    -8520076.59749  -6611554.13949  23860150.2904   23860156.8174
  23167923.184    -2964802.559 9  -2297624.751 9  23167922.240    23167927.092
 96  4 17 15 35 29.9970000  0  9  3  2 19 18 31 29 27 16 28
  22488219.215    -5170821.44449  -4019945.73749  22488219.9234   22488224.1644
  22859840.475    -8612653.06749  -6691938.52649  22859841.7904   22859849.3764
  19898079.581    -8651423.40949  -6728168.93249  19898080.0204   19898084.2844
  19482875.508    -5179633.13949  -4028816.53849  19482876.3634   19482880.3304
  20941087.192   -10697447.45749  -8030161.11049  20941088.4784   20941092.8704
  21645036.080      732301.17449    570591.42449  21645037.0174   21645040.8664
  21690584.587   -12196882.99249  -9457880.85249  21690586.3274   21690591.0794
  23836588.792    -8643899.88749  -6708039.80649  23836588.5004   23836591.6894
  23164737.688    -2981548.245 9  -2310673.343 9  23164736.959    23164741.685
 96  4 17 15 35 59.9970000  0  9  3  2 19 18 31 29 27 16 28
  22481697.050    -5205092.01549  -4046650.09949  22481697.7774   22481703.5784
  22831831.346    -8759856.79449  -6806642.70749  22831831.8374   22831837.3104
  19881307.936    -8739557.57749  -6796844.91049  19881308.7524   19881312.9244
  19476072.518    -5215388.35549  -4056677.75249  19476072.5634   19476076.5434
  20923091.305   -10792026.45649  -8103859.03449  20923091.5904   20923095.4194
  21648694.867      751533.14249    585577.35449  21648696.8234   21648700.2374
  21665603.536   -12328168.12549  -9560180.95949  21665604.3854   21665607.8554
  23813090.297    -8767373.41949  -6804252.95449  23813091.5124   23813097.6824
  23161626.603    -2997896.368 9  -2323412.200 9  23161626.669    23161629.519
 96  4 17 15 36 29.9970000  0  9  3  2 19 18 31 29 27 16 28
  22475273.697    -5238839.05249  -4072946.48449  22475275.2324   22475281.5694
  22803852.632    -8906880.63049  -6921206.71949  22803853.9054   22803858.2254
  19864562.510    -8827554.70149  -6865414.09849  19864563.2694   19864567.3074
  19469364.441    -5250633.44249  -4084141.46449  19469365.3724   19469369.3404
  20905197.275   -10886053.99749  -8177127.23449  20905198.3084   20905202.5724
  21652413.298      771072.92449    600803.13949  21652414.6594   21652418.9884
  21640623.328   -12459439.84349  -9662470.60249  21640623.9874   21640628.6564
  23789679.342    -8890418.34049  -6900132.12249  23789677.4244   23789681.4264
  23158605.196    -3013773.436 9  -2335783.921 9  23158604.943    23158606.757
 96  4 17 15 36 59.9970000  0  9  3  2 19 18 31 29 27 16 28
  22468942.395    -5272118.28649  -4098878.34249  22468943.0714   22468948.3334
  22775899.670    -9053769.41349  -7035665.49849  22775901.1734   22775905.5954
  19847838.261    -8915439.45449  -6933895.72649  19847839.3044   19847843.4864
  19462747.292    -5285407.26349  -4111237.96249  19462748.2944   19462752.0004
  20887401.112   -10979580.19449  -8250004.78749  20887401.5344   20887405.5924
  21656179.927      790866.04049    616226.33049  21656181.2594   21656185.0844
  21615638.378   -12590728.71849  -9764773.60949  21615640.3184   21615644.2064
  23766330.682    -9013098.89549  -6995727.36149  23766331.7144   23766336.8114
  23155663.370    -3029228.339 9  -2347826.730 9  23155664.962    23155668.284
 96  4 17 15 37 29.9970000  0  9  3  2 19 18 31 29 27 16 28
  22462696.007    -5304942.58349  -4124455.72949  22462696.5384   22462702.1684
  22747973.385    -9200520.61549  -7150017.03849  22747975.2154   22747982.0114
  19831137.237    -9003202.56949  -7002282.57249  19831138.8354   19831142.6584
  19456220.057    -5319711.59449  -4137968.62849  19456220.3184   19456224.3404
  20869698.347   -11072603.95649  -8322490.83749  20869699.3274   20869703.8494
  21659989.765      810885.63349    631825.99449  21659990.8014   21659995.2884
  21590654.798   -12722032.85849  -9867088.52049  21590654.4694   21590657.9964
  23743056.025    -9135408.07049  -7091033.20949  23743056.5954   23743062.2904
  23152803.514    -3044265.583 9  -2359544.070 9  23152802.616    23152805.379
 96  4 17 15 37 59.9970000  0  9  3  2 19 18 31 29 27 16 28
  22456532.638    -5337327.05049  -4149690.38449  22456535.2214   22456538.8494
  22720074.588    -9347135.56049  -7264262.43849  22720076.0674   22720081.9264
  19814461.115    -9090841.70749  -7070572.81649  19814461.5684   19814465.5654
  19449776.776    -5353563.09149  -4164346.43349  19449778.6004   19449782.2154
  20852090.485   -11165133.69549  -8394591.91449  20852091.6624   20852095.5454
  21663838.919      831112.59049    647587.23849  21663840.2604   21663844.1284
  21565661.377   -12853363.45849  -9969424.03849  21565662.4814   21565666.7224
  23719852.607    -9257346.86249  -7186050.47449  23719852.1174   23719858.2104
  23150017.917    -3058897.612 9  -2370945.662 9  23150018.176    23150022.118
 96  4 17 15 38 29.9970000  0  9  3  2 19 18 31 29 27 16 28
  22450460.886    -5369242.86349  -4174559.87049  22450461.6404   22450465.5144
  22692209.925    -9493563.01049  -7378361.71349  22692211.8084   22692217.0874
  19797813.205    -9178321.64049  -7138738.99449  19797814.7534   19797818.7904
  19443427.343    -5386936.89149  -4190351.99949  19443427.8324   19443431.7874
  20834585.372   -11257124.13549  -8466272.77949  20834586.4134   20834589.7494
  21667734.142      851583.68549    663538.71249  21667734.7294   21667739.6204
  21540675.736   -12984667.47449 -10071738.85349  21540676.3694   21540680.2874
  23696726.326    -9378872.44349  -7280745.70949  23696727.4304   23696731.3084
  23147319.881    -3073087.748 9  -2382002.959 9  23147318.228    23147321.848
 96  4 17 15 38 59.9970000  0  9  3  2 19 18 31 29 27 16 28
  22444475.596    -5400689.82349  -4199064.01249  22444477.9784   22444481.5084
  22664382.837    -9639801.87649  -7492314.05349  22664383.2194   22664388.6144
  19781194.262    -9265655.59349  -7206791.42849  19781195.5144   19781199.6164
  19437164.113    -5419851.76449  -4215999.96249  19437164.4744   19437168.2944
  20817182.176   -11348582.96749  -8537539.39049  20817182.3344   20817186.3214
  21671677.345      872309.38249    679688.58549  21671679.2804   21671683.1984
  21515696.093   -13115930.32649 -10174021.58949  21515697.6114   21515701.9024
  23673679.171    -9499982.05349  -7375116.85349  23673680.4714   23673685.7974
  23144697.246    -3086843.485 9  -2392721.760 9  23144698.432    23144704.714
 96  4 17 15 39 29.9970000  0  9  3  2 19 18 31 29 27 16 28
  22438578.085    -5431691.78149  -4223221.41449  22438577.8764   22438580.9374
  22636581.817    -9785880.57649  -7606141.58649  22636584.3014   22636591.4494
  19764597.299    -9352874.48149  -7274754.19749  19764598.3234   19764602.5164
  19430979.868    -5452349.31949  -4241322.74249  19430980.4194   19430984.4004
  20799873.211   -11439540.58749  -8608415.45449  20799873.4274   20799877.7384
  21675666.966      893271.00349    696022.29949  21675668.3054   21675672.5494
  21490719.200   -13247186.86349 -10276299.39749  21490720.4184   21490723.9654
  23650710.668    -9620697.27549  -7469180.66849  23650709.7744   23650714.2584
  23142160.131    -3100192.493 9  -2403123.623 9  23142159.135    23142165.035
 96  4 17 15 39 59.9970000  0  9  3  2 19 18 31 29 27 16 28
  22432766.956    -5462222.23749  -4247011.41149  22432767.5954   22432771.0464
  22608818.199    -9931780.60149  -7719829.89049  22608821.2574   22608828.1244
  19748025.801    -9439959.11049  -7342612.34849  19748026.8644   19748031.0024
  19424879.922    -5484402.84049  -4266299.52049  19424880.7224   19424884.4584
  20782661.346   -11529988.76749  -8678894.53949  20782661.4124   20782666.3344
  21679705.489      914491.80049    712557.95049  21679706.1534   21679710.6014
  21465748.213   -13378409.19749 -10378550.56349  21465749.5594   21465753.8774
  23627808.722    -9741012.16449  -7562932.53149  23627813.3254   23627819.2524
  23139701.951    -3113115.062 9  -2413193.183 9  23139701.249    23139705.593
 96  4 17 15 40 29.9970000  0  9  3  2 19 18 31 29 27 16 28
  22427046.321    -5492261.33149  -4270418.51849  22427049.4604   22427056.2554
  22581097.210   -10077487.24549  -7833367.52449  22581095.0974   22581100.6994
  19731481.897    -9526895.61749  -7410355.08349  19731483.1834   19731487.3534
  19418868.441    -5515992.39449  -4290914.76749  19418869.4004   19418873.3744
  20765546.989   -11619922.60049  -8748972.84749  20765547.4564   20765552.5344
  21683796.625      935986.20649    729306.82149  21683796.8244   21683801.3854
  21440793.873   -13509556.25749 -10480743.07649  21440793.2644   21440797.5034
  23605000.596    -9860906.23249  -7656356.46549  23605000.0504   23605004.0294
  23137323.107    -3125592.092 9  -2422915.582 9  23137325.848    23137330.874
 96  4 17 15 40 59.9960000  0  9  3  2 19 18 31 29 27 16 28
  22421421.563    -5521829.84849  -4293458.93049  22421422.8424   22421428.2594
  22553399.186   -10223032.72549  -7946779.56049  22553398.4664   22553403.7144
  19714962.974    -9613707.57349  -7478000.76449  19714963.4444   19714967.5284
  19412941.329    -5547142.09849  -4315187.27649  19412941.6884   19412945.8744
  20748523.717   -11709376.30849  -8818677.03549  20748525.2904   20748529.8494
  21687929.358      957712.47349    746236.35049  21687931.0464   21687934.7574
  21415843.442   -13640664.60349 -10582905.41149  21415844.3274   21415848.3644
  23582254.534    -9980410.44249  -7749476.66249  23582257.8404   23582263.5554
  23135029.839    -3137653.488 9  -2432314.089 9  23135031.508    23135036.355
 96  4 17 15 41 29.9960000  0  9  3  2 19 18 31 29 27 16 28
  22415884.238    -5550925.88149  -4316131.17849  22415886.7434   22415893.2764
  22525728.746   -10368432.55549  -8060078.10049  22525729.8094   22525735.4074
  19698465.083    -9700401.44149  -7545554.43349  19698466.2134   19698470.5454
  19407101.004    -5577830.50449  -4339100.33149  19407101.9574   19407106.2584
  20731595.812   -11798337.43349  -8887997.39349  20731596.3264   20731600.5604
  21692106.646      979657.46949    763336.31149  21692107.6064   21692111.1044
  21390897.489   -13771760.97649 -10685058.42449  21390897.6154   21390901.7074
  23559589.211   -10099542.81049  -7842307.06549  23559589.0224   23559593.5554
  23132817.155    -3149299.930 9  -2441389.277 9  23132816.142    23132819.406
 96  4 17 15 41 59.9960000  0  9  3  2 19 18 31 29 27 16 28
  22410443.856    -5579537.36549  -4338425.83449  22410444.1144   22410447.7294
  22498092.364   -10513667.02049  -8173247.78749  22498092.8994   22498098.1394
  19681990.544    -9786977.69149  -7613016.44449  19681991.3784   19681995.7894
  19401354.686    -5608030.44749  -4362632.76049  19401355.2224   19401359.2754
  20714764.560   -11886780.86249  -8956914.35149  20714766.1464   20714770.4164
  21696325.070     1001823.43149    780608.45649  21696326.1564   21696329.1704
  21365953.422   -13902834.98549 -10787194.01449  21365954.6034   21365959.7304
  23536988.400   -10218283.01149  -7934831.91149  23536991.2454   23536999.1294
  23130678.437    -3160524.967 9  -2450136.070 9  23130678.817    23130683.576
 96  4 17 15 42 29.9960000  0  9  3  2 19 18 31 29 27 16 28
  22405093.556    -5607640.03749  -4360324.04149  22405096.4114   22405100.2604
  22470492.087   -10658715.66949  -8286272.70049  22470491.9134   22470496.3024
  19665542.547    -9873412.41649  -7680368.18549  19665543.1354   19665547.3904
  19395703.615    -5637725.02149  -4385771.40049  19395704.6214   19395708.7224
  20698043.275   -11974660.09049  -9025391.66649  20698043.7744   20698047.7334
  21700590.301     1024238.75149    798074.92049  21700590.4934   21700594.8114
  21341016.721   -14033878.53549 -10889305.86249  21341017.9974   21341022.3334
  23514480.295   -10336591.37549  -8027020.25949  23514479.5124   23514483.6544
  23128625.719    -3171308.150 9  -2458538.593 9  23128627.276    23128630.863
 96  4 17 15 42 59.9960000  0  9  3  2 19 18 31 29 27 16 28
  22399848.238    -5635219.37249  -4381814.44649  22399848.4514   22399851.8894
  22442925.978   -10803560.32549  -8399138.63449  22442927.1304   22442933.0184
  19649123.775    -9959690.39649  -7747597.78249  19649125.1254   19649129.4634
  19390150.436    -5666906.06449  -4408509.88749  19390151.6314   19390155.5314
  20681432.373   -12061946.47449  -9093407.03049  20681433.4014   20681436.9794
  21704906.146     1046922.01549    815750.15249  21704906.8694   21704911.6904
  21316084.908   -14164899.20449 -10991399.87849  21316085.8784   21316090.3894
  23492049.162   -10454460.91149  -8118866.64149  23492049.6684   23492056.4974
  23126658.367    -3181645.254 9  -2466593.490 9  23126660.370    23126664.279
 96  4 17 15 43 29.9960000  0  9  3  2 19 18 31 29 27 16 28
  22394688.762    -5662327.29449  -4402937.52749  22394689.3554   22394692.1784
  22415396.357   -10948243.39049  -8511878.66149  22415395.1774   22415401.1444
  19632728.301   -10045848.50949  -7814733.97749  19632729.5924   19632734.1014
  19384684.476    -5695632.91049  -4430894.44749  19384685.0074   19384689.1804
  20664925.216   -12148686.71649  -9160996.81549  20664927.0814   20664931.8974
  21709268.192     1069847.86249    833614.42449  21709270.4324   21709274.4924
  21291152.553   -14295921.79349 -11093495.39949  21291152.6974   21291157.5124
  23469695.350   -10571929.75249  -8210400.82449  23469695.9264   23469701.0044
  23124767.324    -3191585.004 9  -2474338.793 9  23124769.133    23124773.060
 96  4 17 15 43 59.9960000  0  9  3  2 19 18 31 29 27 16 28
  22389621.100    -5688961.17449  -4423691.21149  22389622.5884   22389624.3134
  22387899.105   -11092735.44549  -8624469.86849  22387899.5974   22387904.3244
  19616359.962   -10131863.54049  -7881758.67649  19616361.9234   19616365.7354
  19379302.474    -5723913.12449  -4452930.98949  19379303.5204   19379307.6404
  20648524.438   -12234887.26349  -9228166.07749  20648524.1694   20648527.7544
  21713684.165     1093042.90649    851688.46649  21713684.4364   21713687.7894
  21266225.519   -14426912.59549 -11195566.15649  21266226.8314   21266230.1104
  23447429.082   -10688966.21649  -8301598.06449  23447425.5584   23447430.4574
  23122953.950    -3201111.225 9  -2481761.851 9  23122955.624    23122960.468
 96  4 17 15 44 29.9960000  0  9  3  2 19 18 31 29 27 16 28
  22384634.502    -5715156.07149  -4444102.85449  22384635.6264   22384640.0194
  22360437.505   -11237049.45549  -8736922.31549  22360437.3894   22360442.7224
  19600019.062   -10217732.39349  -7948669.47149  19600021.1784   19600025.4974
  19374001.633    -5751771.54649  -4474638.86249  19374002.2614   19374005.9974
  20632218.028   -12320573.68549  -9294934.70149  20632218.2874   20632222.4054
  21718143.851     1116487.46249    869956.91549  21718145.9454   21718149.1684
  21241302.009   -14557881.18049 -11297619.58749  21241303.8404   21241307.5864
  23425233.350   -10805586.17449  -8392470.76749  23425234.1474   23425237.1224
  23121217.122    -3210237.030 9  -2488872.891 9  23121219.358    23121223.366
 96  4 17 15 44 59.9960000  0  9  3  2 19 18 31 29 27 16 28
  22379737.089    -5740901.12349  -4464163.96249  22379736.8064   22379740.0804
  22333014.923   -11381155.85349  -8849212.99549  22333014.3284   22333020.1264
  19583709.302   -10303444.28249  -8015457.96049  19583710.7634   19583715.0344
  19368783.969    -5779187.36349  -4496001.85149  19368785.1524   19368789.2234
  20616013.572   -12405727.43449  -9361288.27049  20616014.1774   20616018.6904
  21722656.993     1140200.32149    888434.43949  21722657.9024   21722662.0744
  21216392.792   -14688782.71149 -11399620.77749  21216393.6924   21216398.5744
  23403124.505   -10921766.81149  -8483001.12649  23403124.6874   23403128.8304
  23119560.944    -3218937.996 9  -2495652.891 9  23119563.536    23119568.175
 96  4 17 15 45 29.9960000  0  9  3  2 19 18 31 29 27 16 28
  22374915.279    -5766217.12949  -4483890.71349  22374918.6474   22374922.7794
  22305629.883   -11525067.79749  -8961352.18249  22305629.1224   22305634.9934
  19567425.430   -10389018.00249  -8082138.78349  19567427.0144   19567430.8734
  19363651.251    -5806162.86549  -4517021.73749  19363651.8594   19363655.8924
  20599909.804   -12490350.07349  -9427227.98549  20599911.2504   20599915.3914
  21727215.615     1164156.07949    907101.23149  21727216.9214   21727221.0644
  21191493.085   -14819628.91049 -11501578.84649  21191494.7094   21191499.1514
  23381095.109   -11037504.49349  -8573186.34649  23381099.2734   23381103.8694
  23117988.471    -3227223.023 9  -2502108.802 9  23117987.018    23117991.676
 96  4 17 15 45 59.9960000  0  9  3  2 19 18 31 29 27 16 28
  22370188.284    -5791079.56149  -4503264.06249  22370187.9874   22370191.7424
  22278283.048   -11668762.30349  -9073321.89049  22278284.6934   22278291.1574
  19551171.327   -10474438.87549  -8148700.50249  19551171.8374   19551176.2614
  19358608.855    -5832659.13649  -4537668.19749  19358609.9634   19358613.7344
  20583916.500   -12574399.46749  -9492721.01749  20583916.9054   20583921.0734
  21731821.668     1188354.44849    925957.07849  21731821.0064   21731825.7954
  21166604.291   -14950424.30949 -11603497.33349  21166605.1944   21166609.9524
  23359164.010   -11152767.74249  -8663001.88649  23359165.5734   23359171.9754
  23116491.376    -3235068.383 9  -2508222.098 9  23116494.220    23116498.536
 96  4 17 15 46 29.9960000  0  9  3  2 19 18 31 29 27 16 28
  22365534.646    -5815524.94049  -4522312.42549  22365535.9644   22365540.8964
  22250968.151   -11812309.37949  -9185176.74449  22250968.5364   22250974.4204
  19534935.253   -10559758.18349  -8215183.08449  19534935.9134   19534940.2404
  19353649.913    -5858721.63149  -4557976.65549  19353650.4074   19353654.3254
  20568025.774   -12657905.48049  -9557790.63849  20568026.6594   20568030.2924
  21736459.791     1212738.98749    944957.99049  21736461.8014   21736466.6354
  21141714.733   -15081220.50349 -11705416.44449  21141715.4474   21141720.3724
  23337314.994   -11267599.22649  -8752480.97449  23337314.5254   23337321.9124
  23115073.068    -3242527.628 9  -2514034.525 9  23115074.743    23115079.473
 96  4 17 15 46 59.9960000  0  9  3  2 19 18 31 29 27 16 28
  22360977.778    -5839480.36349  -4540979.00549  22360978.6004   22360982.7844
  22223686.218   -11955676.70649  -9296891.52749  22223687.4074   22223693.0244
  19518725.794   -10644936.76349  -8281556.00649  19518727.0034   19518731.4844
  19348781.694    -5884299.92349  -4577907.79949  19348782.8934   19348787.0974
  20552248.283   -12740816.07549  -9622396.29949  20552248.8564   20552253.2434
  21741143.974     1237348.66849    964134.34249  21741144.1394   21741147.8264
  21116834.152   -15211976.93649 -11807304.56849  21116833.3344   21116838.3284
  23315556.742   -11381955.80249  -8841589.98649  23315552.6524   23315557.5534
  23113736.346    -3249563.308 9  -2519516.913 9  23113736.328    23113740.312
 96  4 17 15 47 29.9960000  0  9  3  2 19 18 31 29 27 16 28
  22356516.970    -5862912.13049  -4559237.53949  22356519.7104   22356523.9194
  22196440.429   -12098859.06249  -9408462.20349  22196439.6184   22196443.9734
  19502549.439   -10729938.04049  -8347790.77249  19502551.9734   19502556.3814
  19344011.264    -5909374.32149  -4597446.30449  19344011.2194   19344015.6064
  20536585.468   -12823127.68949  -9686535.21949  20536585.7374   20536589.8954
  21745869.501     1262187.96749    983489.62049  21745871.3924   21745875.6394
  21091957.911   -15342694.88249 -11909162.70449  21091958.5564   21091962.7014
  23293883.957   -11495835.30449  -8930327.27049  23293882.4514   23293887.9394
  23112480.054    -3256166.806 9  -2524662.521 9  23112480.219    23112484.317
 96  4 17 15 47 59.9960000  0  9  3  2 19 18 31 29 27 16 28
  22352160.985    -5885810.43549  -4577080.38049  22352162.1754   22352167.1574
  22169227.652   -12241860.51149  -9519891.86049  22169228.7364   22169232.1034
  19486411.643   -10814751.05049  -8413878.83849  19486412.5914   19486416.9754
  19339331.348    -5933961.06549  -4616604.82649  19339332.7274   19339337.1604
  20521032.302   -12904855.35549  -9750219.11049  20521032.8824   20521037.0864
  21750642.729     1287264.29849   1003029.58149  21750643.9274   21750647.3234
  21067090.876   -15473361.68249 -12010980.99549  21067093.7124   21067097.4494
  23272300.372   -11609251.01449  -9018703.15549  23272300.4624   23272304.9384
  23111305.114    -3262339.978 9  -2529472.831 9  23111305.307    23111309.142
 96  4 17 15 48 29.9960000  0  9  3  2 19 18 31 29 27 16 28
  22347899.433    -5908202.70749  -4594528.94549  22347900.3724   22347905.5864
  22142051.739   -12384683.93249  -9631182.85249  22142050.3964   22142053.4234
  19470303.612   -10899396.19649  -8479836.09649  19470304.9954   19470309.1764
  19334741.599    -5958080.97549  -4635399.57449  19334742.5394   19334746.7424
  20505585.082   -12986024.87349  -9813468.09349  20505587.7354   20505591.6454
  21755456.198     1312566.21849   1022745.33449  21755457.9724   21755462.5324
  21042236.334   -15603986.48449 -12112766.54749  21042236.5964   21042241.0794
  23250798.383   -11722240.20649  -9106746.67049  23250800.0364   23250804.5664
  23110207.990    -3268103.383 9  -2533963.825 9  23110208.277    23110213.016
 96  4 17 15 48 59.9960000  0  9  3  2 19 18 31 29 27 16 28
  22343732.795    -5930088.51349  -4611582.83249  22343736.3884   22343740.8374
  22114911.404   -12527285.95749  -9742301.28049  22114912.8384   22114918.1074
  19454229.982   -10983865.42549  -8545656.27749  19454231.1474   19454235.4554
  19330244.223    -5981719.60949  -4653819.30949  19330244.7414   19330248.8684
  20490249.967   -13066627.92449  -9876275.65949  20490249.2204   20490252.7914
  21760318.132     1338107.44749   1042647.56849  21760318.1864   21760322.7374
  21017387.349   -15734560.15749 -12214512.26549  21017388.9264   21017393.6484
  23229382.023   -11834806.83649  -9194460.95249  23229379.0054   23229385.5354
  23109192.848    -3273440.805 9  -2538122.874 9  23109192.493    23109197.005
 96  4 17 15 49 29.9960000  0  9  3  2 19 18 31 29 27 16 28
  22339655.508    -5951513.29749  -4628277.48949  22339658.3294   22339665.2664
  22087818.719   -12669671.50149  -9853251.06849  22087818.4774   22087824.7444
  19438183.074   -11068192.70649  -8611365.85249  19438184.3844   19438188.6274
  19325828.625    -6004920.75149  -4671898.13949  19325829.6814   19325833.8224
  20475012.749   -13146686.96249  -9938659.33049  20475014.1734   20475018.5444
  21765220.337     1363870.64249   1062722.75249  21765221.5554   21765224.8664
  20992544.285   -15865108.38649 -12316238.15449  20992546.4584   20992551.2264
  23208033.096   -11946962.55249  -9281855.00449  23208035.4894   23208042.1934
  23108253.794    -3278375.737 9  -2541968.328 9  23108253.102    23108257.585
 96  4 17 15 49 59.9960000  0  9  3  2 19 18 31 29 27 16 28
  22335662.165    -5972521.11849  -4644647.25349  22335661.0904   22335666.2744
  22060760.177   -12811845.92049  -9964036.26549  22060763.0684   22060770.0964
  19422155.217   -11152419.72949  -8676997.30349  19422156.3904   19422160.8394
  19321491.275    -6027716.12449  -4689660.78149  19321491.5664   19321495.8194
  20459878.933   -13226220.97249 -10000633.87949  20459879.4314   20459883.8954
  21770161.922     1389838.90049   1082957.73249  21770162.7374   21770167.7334
  20967704.421   -15995655.21349 -12417962.95449  20967704.7844   20967708.4214
  23186770.930   -12058722.65249  -9368940.79349  23186767.2274   23186773.7564
  23107387.479    -3282930.633 9  -2545517.618 9  23107386.643    23107390.563
 96  4 17 15 50 29.9960000  0  9  3  2 19 18 31 29 27 16 28
  22331748.287    -5993074.90949  -4660663.21049  22331748.5214   22331755.0124
  22033758.539   -12953761.82749 -10074620.10949  22033758.4854   22033763.2004
  19406152.249   -11236516.83149  -8742527.50849  19406153.3164   19406157.3554
  19317240.052    -6050054.30949  -4707067.16849  19317241.0964   19317245.2154
  20444852.988   -13305183.77649 -10062163.34349  20444853.8454   20444858.1124
  21775150.169     1416052.80349   1103384.13049  21775151.0264   21775154.6104
  20942868.995   -16126158.40149 -12519653.74249  20942870.3074   20942874.5084
  23165584.158   -12170031.55049  -9455674.99849  23165588.0664   23165590.9184
  23106597.889    -3287069.070 9  -2548742.428 9  23106599.403    23106603.232
 96  4 17 15 50 59.9960000  0  9  3  2 19 18 31 29 27 16 28
  22327923.432    -6013168.98449  -4676320.95249  22327927.2134   22327933.1884
  22006794.295   -13095450.89849 -10185027.16849  22006794.9544   22006799.8624
  19390173.986   -11320481.25949  -8807954.33149  19390175.0604   19390179.4444
  19313074.379    -6071946.15849  -4724125.76149  19313075.1154   19313079.1794
  20429934.535   -13383583.54649 -10123254.06549  20429934.8624   20429938.5964
  21780182.739     1442503.83249   1123995.30249  21780185.1354   21780188.6864
  20918044.095   -16256617.62149 -12621310.27049  20918044.9044   20918049.2344
  23144491.680   -12280879.47949  -9542050.03449  23144493.4624   23144500.4464
  23105888.632    -3290805.589 9  -2551654.013 9  23105888.792    23105891.864
 96  4 17 15 51 29.9960000  0  9  3  2 19 18 31 29 27 16 28
  22324193.876    -6032783.82149  -4691605.27949  22324193.2444   22324198.8164
  21979871.641   -13236924.47649 -10295266.27949  21979874.1404   21979878.7754
  19374227.182   -11404286.26049  -8873256.94149  19374227.8324   19374231.9004
  19308997.483    -6093369.04749  -4740818.93449  19308998.5244   19309002.5754
  20415125.697   -13461402.79649 -10183892.43649  20415126.0734   20415130.5224
  21785265.985     1469209.06649   1144804.54249  21785266.7294   21785270.0124
  20893230.476   -16387012.29349 -12722916.51149  20893231.6904   20893235.3944
  23123493.401   -12391241.07649  -9628046.07449  23123492.4574   23123498.8344
  23105255.644    -3294133.135 9  -2554246.964 9  23105255.774    23105259.577
 96  4 17 15 51 59.9960000  0  9  3  2 19 18 31 29 27 16 28
  22320550.813    -6051920.91749  -4706517.31949  22320553.3154   22320556.8754
  21952989.204   -13378203.01449 -10405353.46349  21952989.2114   21952993.6744
  19358311.035   -11487922.74649  -8938428.22649  19358312.4184   19358316.6014
  19305014.574    -6114301.50749  -4757129.95449  19305014.9864   19305019.2824
  20400425.807   -13538650.77649 -10244085.67449  20400425.7524   20400429.9904
  21790395.120     1496164.75149   1165808.95049  21790396.3354   21790399.4894
  20868430.649   -16517340.33249 -12824470.82549  20868431.3924   20868434.9914
  23102579.987   -12501125.49249  -9713670.28849  23102583.4154   23102589.1814
  23104696.303    -3297059.949 9  -2556527.639 9  23104698.749    23104702.581
 96  4 17 15 52 29.9960000  0  9  3  2 19 18 31 29 27 16 28
  22316997.786    -6070588.37349  -4721063.40249  22317000.8544   22317003.9894
  21926136.242   -13519316.87449 -10515312.29149  21926136.1734   21926140.1624
  19342427.949   -11571385.29449  -9003463.97949  19342429.8584   19342433.8334
  19301123.487    -6134744.78449  -4773059.79549  19301124.7164   19301128.9794
  20385833.498   -13615330.51149 -10303836.12349  20385834.8774   20385838.1614
  21795568.123     1523351.39049   1186993.31349  21795569.1514   21795573.4804
  20843641.067   -16647609.09249 -12925978.94849  20843641.2964   20843645.3354
  23081757.411   -12610542.81649  -9798930.53249  23081759.6644   23081766.1074
  23104213.626    -3299600.173 9  -2558507.069 9  23104214.958    23104219.461
 96  4 17 15 52 59.9950000  0  9  3  2 19 18 31 29 27 16 28
  22313539.785    -6088773.40949  -4735233.58249  22313540.5144   22313542.7894
  21899318.396   -13660240.64049 -10625123.01449  21899319.2454   21899324.9404
  19326584.579   -11654645.97249  -9068342.43449  19326585.8884   19326590.3834
  19297329.991    -6154682.84649  -4788595.95749  19297331.2664   19297335.2794
  20371355.941   -13691420.64149 -10363127.11749  20371355.2324   20371358.4354
  21800786.818     1550768.49149   1208357.26549  21800786.8064   21800790.7274
  20818866.977   -16777799.53449 -13027426.04249  20818867.2694   20818871.0144
  23061031.933   -12719480.08649  -9883816.73049  23061031.4794   23061035.1314
  23103808.866    -3301730.510 9  -2560167.110 9  23103808.677    23103813.877
 96  4 17 15 53 29.9950000  0  9  3  2 19 18 31 29 27 16 28
  22310161.150    -6106513.05349  -4749056.67649  22310163.7604   22310168.2074
  21872534.954   -13800989.58749 -10734797.49749  21872535.0074   21872541.4884
  19310772.227   -11737745.58749  -9133095.38349  19310772.5194   19310776.8914
  19293624.955    -6174158.58949  -4803771.87249  19293624.9714   19293629.1004
  20356981.310   -13766959.81149 -10421988.81649  20356981.0454   20356983.8564
  21806041.629     1578388.78749   1229879.52949  21806042.7664   21806045.6054
  20794098.966   -16907944.81649 -13128837.95249  20794101.7644   20794105.3074
  23040385.945   -12827969.83649  -9968354.19649  23040386.5734   23040391.7864
  23103479.098    -3303473.034 9  -2561524.974 9  23103477.941    23103482.155
 96  4 17 15 53 59.9950000  0  9  3  2 19 18 31 29 27 16 28
  22306869.254    -6123811.86749  -4762536.30349  22306871.2184   22306876.2814
  21845789.496   -13941546.59849 -10844322.43249  21845788.6644   21845793.6944
  19294986.073   -11820697.77049  -9197733.45149  19294987.3394   19294991.6204
  19290001.951    -6193192.79249  -4818603.73549  19290002.9444   19290006.7164
  20342709.296   -13841949.39849 -10480422.26549  20342710.4954   20342713.8734
  21811331.434     1606186.31949   1251539.89649  21811332.6014   21811336.6504
  20769343.958   -17038042.36949 -13230212.66949  20769345.1164   20769348.9344
  23019823.163   -12936018.62049 -10052548.04249  23019824.1734   23019829.9434
  23103217.697    -3304832.425 9  -2562584.279 9  23103219.127    23103223.700
 96  4 17 15 54 29.9950000  0  9  3  2 19 18 31 29 27 16 28
  22303666.528    -6140646.53849  -4775654.26349  22303665.9554   22303671.7794
  21819084.187   -14081871.14549 -10953666.21149  21819085.1614   21819091.2224
  19279231.940   -11903488.41649  -9262245.64649  19279232.8854   19279236.7234
  19286463.883    -6211784.17649  -4833090.53749  19286464.8474   19286468.7644
  20328549.655   -13916360.35649 -10538404.83049  20328550.6404   20328554.0964
  21816657.322     1634178.28149   1273351.79649  21816659.3514   21816662.1814
  20744603.059   -17168059.56249 -13331524.77349  20744603.5154   20744607.2924
  22999350.560   -13043609.24249 -10136384.89649  22999351.0004   22999356.0124
  23103036.888    -3305785.550 9  -2563327.030 9  23103038.267    23103041.865
 96  4 17 15 54 59.9950000  0  9  3  2 19 18 31 29 27 16 28
  22300552.849    -6157004.04349  -4788400.40249  22300554.0544   22300560.1674
  21792431.704   -14221935.15049 -11062806.98049  21792432.5774   21792437.4954
  19263510.571   -11986102.42849  -9326620.20549  19263511.8374   19263516.2264
  19283009.999    -6229930.43449  -4847230.49549  19283011.5564   19283016.0864
  20314504.065   -13990181.43049 -10595927.75149  20314503.2344   20314505.5474
  21822027.982     1662394.74449   1295338.61449  21822028.6834   21822033.4034
  20719878.751   -17297982.71849 -13432763.59349  20719879.6394   20719884.1434
  22978967.039   -13150727.01249 -10219853.29349  22978967.7574   22978973.4924
  23102936.773    -3306321.296 9  -2563744.481 9  23102936.129    23102939.159
 96  4 17 15 55 29.9950000  0  9  3  2 19 18 31 29 27 16 28
  22297523.334    -6172935.33849  -4800814.44849  22297524.2414   22297527.1044
  21765815.798   -14361803.87549 -11171795.58049  21765815.9294   21765820.1304
  19247813.797   -12068592.05249  -9390897.83649  19247814.9214   19247819.0704
  19279632.408    -6247685.18349  -4861065.37849  19279633.4094   19279637.4674
  20300555.501   -14063465.53249 -10653032.24949  20300556.9724   20300560.8064
  21827431.061     1690791.47649   1317465.89049  21827432.5594   21827436.2294
  20695162.327   -17427871.85749 -13533975.90949  20695162.7654   20695166.8834
  22958661.201   -13257434.72949 -10303002.16449  22958661.4824   22958666.3894
  23102900.868    -3306504.359 9  -2563887.218 9  23102901.384    23102905.801
 96  4 17 15 55 59.9950000  0  9  3  2 19 18 31 29 27 16 28
  22294579.064    -6188395.91149  -4812861.66249  22294580.2314   22294587.4784
  21739242.854   -14501444.41249 -11280606.38749  21739243.3604   21739248.1514
  19232151.007   -12150900.63649  -9455034.39849  19232151.9094   19232156.1684
  19276341.340    -6264980.59049  -4874542.33649  19276342.2614   19276346.3524
  20286725.106   -14136149.74149 -10709669.29349  20286725.7014   20286729.6974
  21832877.723     1719417.34549   1339771.72749  21832880.4034   21832883.5964
  20670458.681   -17557689.19249 -13635132.27749  20670459.2254   20670463.3674
  22938435.514   -13363697.07449 -10385803.97649  22938439.6724   22938446.2954
  23102941.606    -3306293.334 9  -2563722.805 9  23102940.754    23102944.990
 96  4 17 15 56 29.9950000  0  9  3  2 19 18 31 29 27 16 28
  22291731.308    -6203380.99449  -4824538.36249  22291731.6734   22291733.9424
  21712712.693   -14640859.57249 -11389241.54949  21712713.5324   21712718.7864
  19216526.560   -12233005.89749  -9519012.52249  19216527.8654   19216532.0294
  19273142.356    -6281789.27349  -4887640.02849  19273143.6324   19273147.5974
  20273011.220   -14208222.10549 -10765829.58049  20273011.2174   20273014.7144
  21838373.704     1748301.98849   1362279.19749  21838376.9104   21838380.8024
  20645767.725   -17687438.47549 -13736235.61349  20645768.8364   20645772.9964
  22918308.946   -13469496.41849 -10468245.03849  22918308.2124   22918313.5044
  23103058.942    -3305676.288 9  -2563242.042 9  23103058.406    23103063.573
 96  4 17 15 56 59.9950000  0  9  3  2 19 18 31 29 27 16 28
  22288958.612    -6217939.59949  -4835882.76349  22288960.3254   22288965.5204
  21686215.892   -14780113.40849 -11497751.03849  21686214.3834   21686218.8234
  19200930.379   -12314962.73049  -9582874.99149  19200932.0274   19200936.1004
  19270031.240    -6298140.29449  -4900381.09549  19270032.2124   19270036.2024
  20259402.193   -14279733.18949 -10821552.50349  20259402.4244   20259406.2114
  21843911.018     1777388.49149   1384943.97849  21843911.7904   21843915.4174
  20621078.601   -17817189.91449 -13837340.62749  20621078.1674   20621081.7944
  22898254.047   -13574875.12549 -10550358.31749  22898253.9804   22898260.7834
  23103243.287    -3304703.507 9  -2562484.089 9  23103244.169    23103248.094
 96  4 17 15 57 29.9950000  0  9  3  2 19 18 31 29 27 16 28
  22286281.600    -6232009.71949  -4846846.50949  22286283.0894   22286287.3244
  21659754.077   -14919140.99649 -11606084.19249  21659757.8644   21659762.8104
  19185372.300   -12396724.28749  -9646585.29849  19185373.1804   19185377.1764
  19267021.705    -6313962.53149  -4912710.12749  19267021.2744   19267025.5214
  20245912.315   -14350621.29749 -10876789.98849  20245912.9444   20245916.6794
  21849490.865     1806717.06049   1407797.36449  21849492.7724   21849496.3634
  20596398.688   -17946875.16149 -13938394.06649  20596399.5414   20596403.6824
  22878293.587   -13679760.83649 -10632087.43649  22878295.9874   22878300.8384
  23103511.637    -3303312.379 9  -2561400.124 9  23103509.103    23103513.070
 96  4 17 15 57 59.9950000  0  9  3  2 19 18 31 29 27 16 28
  22283690.610    -6245624.74749  -4857455.64849  22283692.7194   22283697.0004
  21633343.353   -15057952.62249 -11714249.09049  21633343.0804   21633347.8014
  19169845.910   -12478315.59349  -9710162.94649  19169846.7424   19169851.1264
  19264106.307    -6329276.71849  -4924643.27349  19264107.0354   19264111.0204
  20232538.520   -14420902.50149 -10931554.56049  20232539.0564   20232542.6254
  21855113.139     1836264.36749   1430821.19249  21855115.1124   21855119.3414
  20571730.650   -18076502.94649 -14039402.73449  20571732.3374   20571736.5324
  22858433.603   -13784146.98849 -10713427.31849  22858431.7624   22858437.1074
  23103847.483    -3301519.869 9  -2560003.419 9  23103850.471    23103854.616
 96  4 17 15 58 29.9950000  0  9  3  2 19 18 31 29 27 16 28
  22281184.923    -6258800.17549  -4867722.25249  22281186.0684   22281189.5934
  21606968.739   -15196546.78949 -11822244.53349  21606970.0384   21606974.1194
  19154347.935   -12559755.43149  -9773622.56749  19154349.3194   19154353.4414
  19261284.535    -6344105.91749  -4936198.50949  19261285.3374   19261289.3434
  20219275.860   -14490599.81349 -10985864.15949  20219275.7644   20219280.0684
  21860770.134     1866000.12649   1453991.87949  21860773.0694   21860777.7604
  20547074.846   -18206076.71749 -14140369.30949  20547075.5784   20547079.6634
  22838660.423   -13888030.90349 -10794375.83149  22838663.3734   22838669.0694
  23104259.116    -3299341.573 9  -2558306.094 9  23104263.991    23104267.994
 96  4 17 15 58 59.9950000  0  9  3  2 19 18 31 29 27 16 28
  22278758.672    -6271540.71149  -4877649.97549  22278760.2374   22278765.0844
  21580640.805   -15334904.90149 -11930056.03249  21580640.9374   21580645.7094
  19138878.615   -12641047.17449  -9836966.77849  19138880.1714   19138884.5194
  19258550.782    -6358469.98849  -4947391.30349  19258551.4454   19258555.7374
  20206123.223   -14559717.99749 -11039722.48949  20206124.0344   20206127.7834
  21866465.112     1895912.12749   1477299.90749  21866465.4234   21866469.8034
  20522429.873   -18335580.90349 -14241281.65949  20522431.3674   20522435.7754
  22818996.109   -13991408.83949 -10874930.04949  22818992.2474   22818997.3244
  23104747.654    -3296786.312 9  -2556315.036 9  23104750.067    23104755.628
 96  4 17 15 59 29.9950000  0  9  3  2 19 18 31 29 27 16 28
  22276424.367    -6283814.32649  -4887213.86249  22276425.0064   22276430.0254
  21554364.770   -15472983.42149 -12037649.67749  21554365.6024   21554370.7294
  19123448.401   -12722132.53649  -9900150.18449  19123450.0124   19123454.3174
  19255908.979    -6372353.42449  -4958209.58449  19255909.8444   19255913.5814
  20193087.369   -14628213.77649 -11093095.83549  20193088.6574   20193093.2494
  21872199.819     1926057.15249   1500789.50849  21872201.2814   21872206.6884
  20497811.313   -18464953.59049 -14342091.54549  20497812.9204   20497816.6474
  22799420.773   -14094236.27749 -10955055.35149  22799423.1774   22799429.7854
  23105312.280    -3293817.260 9  -2554001.555 9  23105315.413    23105320.567
 96  4 17 15 59 59.9950000  0  9  3  2 19 18 31 29 27 16 28
  22274161.951    -6295690.27249  -4896467.89949  22274163.8294   22274168.8504
  21528128.797   -15610862.03049 -12145087.54849  21528127.9694   21528132.9064
  19108046.768   -12803072.84649  -9963220.55849  19108047.7784   19108051.8384
  19253343.222    -6385832.77549  -4968712.99649  19253344.5844   19253348.3614
  20180157.035   -14696161.33049 -11146041.98549  20180158.9014   20180162.6984
  21877972.088     1956383.75349   1524420.57649  21877973.3934   21877977.5274
  20473203.086   -18594268.28849 -14442856.23949  20473204.7254   20473208.5154
  22779946.170   -14196595.17249 -11034815.52649  22779945.6354   22779950.1434
  23105944.405    -3290509.266 9  -2551423.944 9  23105944.702    23105949.364
 96  4 17 16  0 29.9950000  0  9  3  2 19 18 31 29 27 16 28
  22271991.615    -6307107.50649  -4905364.46049  22271991.9594   22271997.7414
  21501933.924   -15748501.98849 -12252339.44149  21501936.3604   21501941.4154
  19092680.947   -12883817.94049 -10026138.81849  19092682.3834   19092686.5364
  19250862.925    -6398868.38849  -4978870.63349  19250864.3944   19250868.2084
  20167339.638   -14763526.68149 -11198534.46449  20167339.5564   20167344.2744
  21883786.255     1986938.60549   1548229.51849  21883787.3184   21883792.3754
  20448613.746   -18723493.89549 -14543551.51749  20448614.0954   20448618.5224
  22760564.521   -14298457.36049 -11114188.66949  22760562.4574   22760568.6984
  23106644.133    -3286824.137 9  -2548552.467 9  23106647.034    23106650.654
 96  4 17 16  0 59.9950000  0  9  3  2 19 18 31 29 27 16 28
  22269905.155    -6318066.57749  -4913904.04849  22269907.7684   22269910.2844
  21475785.222   -15885917.74849 -12359416.64849  21475786.4254   21475792.1424
  19077351.139   -12964376.92649 -10088912.05549  19077352.6044   19077356.6154
  19248466.505    -6411463.06049  -4988684.68049  19248467.4544   19248471.6234
  20154629.294   -14830312.56749 -11250575.41349  20154630.4924   20154635.4104
  21889646.613     2017738.80849   1572229.65849  21889647.8344   21889653.1574
  20424036.896   -18852637.96849 -14644183.26549  20424039.0824   20424042.9894
  22741268.423   -14399838.75449 -11193187.16049  22741269.7084   22741274.2524
  23107417.208    -3282763.622 9  -2545388.469 9  23107418.585    23107423.643
 96  4 17 16  1 29.9950000  0  9  3  2 19 18 31 29 27 16 28
  22267911.392    -6328544.46749  -4922068.65649  22267913.7624   22267916.7284
  21449678.512   -16023116.02749 -12466324.37849  21449678.6764   21449683.8924
  19062057.755   -13044744.46749 -10151536.11849  19062059.1274   19062063.3084
  19246159.099    -6423593.35949  -4998136.87949  19246159.2994   19246163.2504
  20142033.450   -14896507.79149 -11302156.12449  20142034.6104   20142038.8984
  21895554.793     2048784.91249   1596421.37249  21895556.1354   21895560.9524
  20399479.189   -18981698.54149 -14744749.94249  20399479.3454   20399483.7124
  22722068.426   -14500734.61349 -11271807.33349  22722070.0924   22722074.1324
  23108265.928    -3278316.600 9  -2541923.290 9  23108265.552    23108269.976
 96  4 17 16  1 59.9950000  0  9  3  2 19 18 31 29 27 16 28
  22266005.365    -6338570.26249  -4929880.97649  22266006.0144   22266008.7674
  21423604.990   -16160127.62449 -12573086.66049  21423606.5504   21423612.3224
  19046792.651   -13124965.50449 -10214046.02549  19046793.6184   19046797.8484
  19243933.504    -6435286.08949  -5007248.11249  19243934.2424   19243938.4254
  20129542.853   -14962143.98949 -11353301.20949  20129544.6884   20129548.5164
  21901498.082     2080013.51049   1620755.32249  21901499.2694   21901502.0534
  20374926.850   -19110718.13349 -14845284.67949  20374928.0714   20374931.9474
  22702957.365   -14601187.59549 -11350082.38449  22702955.3314   22702958.7854
  23109176.081    -3273522.533 9  -2538187.742 9  23109177.582    23109181.836
 96  4 17 16  2 29.9950000  0  9  3  2 19 18 31 29 27 16 28
  22264181.556    -6348149.52249  -4937345.36249  22264183.2714   22264188.1624
  21397569.920   -16296945.19349 -12679697.74049  21397569.9714   21397576.1184
  19031554.902   -13205033.85849 -10276436.96149  19031557.0394   19031560.9134
  19241790.177    -6446543.98049  -5016020.51849  19241791.5854   19241795.8724
  20117162.740   -15027205.91649 -11403998.81949  20117163.2054   20117168.2024
  21907472.675     2111407.64649   1645218.24049  21907473.6184   21907478.2064
  20350383.662   -19239695.74949 -14945786.71849  20350384.5224   20350387.9714
  22683921.284   -14701187.66849 -11428004.51249  22683925.6214   22683928.2614
  23110157.264    -3268376.928 9  -2534178.156 9  23110157.441    23110161.046
 96  4 17 16  2 59.9950000  0  9  3  2 19 18 31 29 27 16 28
  22262443.015    -6357287.31949  -4944465.75349  22262443.0894   22262448.1804
  21371576.770   -16433542.62349 -12786137.27149  21371577.4844   21371582.6604
  19016349.397   -13284940.10149 -10338701.56549  19016351.1714   19016355.4864
  19239732.896    -6457359.08749  -5024447.89149  19239734.2334   19239738.3544
  20104898.751   -15091660.13749 -11454222.88749  20104898.7094   20104902.5284
  21913477.858     2142971.55449   1669813.46049  21913479.0204   21913483.2404
  20325852.715   -19368611.20149 -15046240.31549  20325852.0924   20325856.7754
  22664985.106   -14800714.49349 -11505557.91149  22664985.1944   22664989.8774
  23111201.505    -3262865.650 9  -2529883.717 9  23111206.125    23111210.074
 96  4 17 16  3 29.9950000  0  9  3  2 19 18 31 29 27 16 28
  22260785.502    -6365991.93549  -4951248.61349  22260787.2514   22260792.7424
  21345625.067   -16569917.91849 -12892403.73949  21345626.1034   21345631.0384
  19001177.637   -13364671.21849 -10400829.70949  19001179.3694   19001183.4764
  19237755.176    -6467750.66949  -5032545.24549  19237756.3854   19237760.5124
  20092749.490   -15155500.23249 -11503968.42349  20092750.5174   20092754.2724
  21919515.370     2174688.07549   1694527.59349  21919515.5584   21919519.5764
  20301329.741   -19497471.58049 -15146650.99249  20301331.0064   20301335.4934
  22646137.267   -14899760.52249 -11582736.64249  22646137.7214   22646142.3534
  23112322.800    -3256998.414 9  -2525311.839 9  23112322.456    23112326.182
 96  4 17 16  3 59.9950000  0  9  3  2 19 18 31 29 27 16 28
  22259210.429    -6374270.75449  -4957699.69149  22259212.2144   22259213.3434
  21319717.785   -16706052.04949 -12998482.26049  21319720.6684   21319725.5434
  18986042.491   -13444206.53649 -10462805.29149  18986044.1024   18986048.2624
  19235859.785    -6477714.82549  -5040309.54249  19235860.5444   19235864.4194
  20080720.840   -15218713.19549 -11553225.28449  20080721.2494   20080724.5004
  21925583.423     2206583.33549   1719380.99349  21925584.7984   21925589.1114
  20276819.048   -19626274.76449 -15247017.10849  20276820.4714   20276824.5384
  22627379.640   -14998311.00349 -11659529.23349  22627383.6244   22627388.4334
  23113507.858    -3250767.216 9  -2520456.428 9  23113507.563    23113513.299
 96  4 17 16  4 29.9940000  0  9  3  2 19 18 31 29 27 16 28
  22257714.938    -6382122.41949  -4963817.90649  22257716.8044   22257722.0544
  21293862.201   -16841935.13949 -13104365.18649  21293862.8774   21293867.3154
  18970948.116   -13523530.56049 -10524616.22449  18970949.3714   18970953.4654
  19234047.169    -6487239.76249  -5047731.58849  19234047.7394   19234051.8714
  20068810.546   -15281297.45649 -11601992.24049  20068811.6534   20068816.1754
  21931692.526     2238685.55749   1744395.69749  21931693.7874   21931697.1924
  20252322.958   -19755002.49049 -15347324.42649  20252324.8874   20252328.2394
  22608727.006   -15096340.80649 -11735916.08749  22608729.4844   22608735.3754
  23114766.220    -3244160.173 9  -2515308.147 9  23114765.841    23114769.993
 96  4 17 16  4 59.9940000  0  9  3  2 19 18 31 29 27 16 28
  22256305.465    -6389544.73849  -4969601.51349  22256305.7574   22256310.1564
  21268048.943   -16977580.77749 -13210063.07749  21268050.4024   21268054.7584
  18955892.546   -13602647.86249 -10586266.07549  18955893.7874   18955897.7394
  19232318.888    -6496319.54449  -5054806.76549  19232320.2964   19232324.1984
  20057018.358   -15343273.76949 -11650285.47949  20057017.8014   20057021.5604
  21937841.533     2271006.66649   1769580.91749  21937843.9364   21937850.3304
  20227842.188   -19883653.60149 -15447572.04349  20227842.6304   20227847.0984
  22590172.564   -15193868.51449 -11811911.74149  22590170.9164   22590175.4504
  23116089.939    -3237187.157 9  -2509874.660 9  23116092.066    23116097.071
 96  4 17 16  5 29.9940000  0  9  3  2 19 18 31 29 27 16 28
  22254972.035    -6396540.59849  -4975052.88449  22254973.7324   22254979.6984
  21242278.562   -17113004.11849 -13315587.74549  21242279.9674   21242285.3264
  18940875.986   -13681560.95249 -10647756.79649  18940877.0454   18940881.2904
  19230677.710    -6504947.43149  -5061529.80949  19230678.3814   19230682.3604
  20045336.196   -15404663.96649 -11698121.99549  20045335.9404   20045340.0474
  21944035.318     2303543.39549   1794934.18949  21944035.4984   21944039.5124
  20203376.940   -20012221.64149 -15547754.92649  20203377.6854   20203381.2184
  22571698.359   -15290905.88849 -11887525.28749  22571703.2674   22571709.4454
  23117485.552    -3229860.732 9  -2504165.781 9  23117487.231    23117491.575
 96  4 17 16  5 59.9940000  0  9  3  2 19 18 31 29 27 16 28
  22253722.924    -6403099.90149  -4980164.06249  22253724.8154   22253729.9764
  21216554.158   -17248185.57149 -13420923.93749  21216555.8144   21216561.2094
  18925899.913   -13760263.59049 -10709083.53749  18925900.4934   18925904.4154
  19229128.216    -6513086.86149  -5067872.24149  19229129.3624   19229133.3754
  20033764.948   -15465460.08249 -11745495.59849  20033767.0214   20033770.4624
  21950268.373     2336308.99949   1820465.76249  21950271.0264   21950275.2814
  20178932.707   -20140667.56149 -15647842.65049  20178935.1214   20178939.6384
  22553330.287   -15387440.99549 -11962747.44049  22553333.6684   22553340.6594
  23118952.215    -3222161.765 9  -2498166.587 9  23118952.095    23118955.013
 96  4 17 16  6 29.9940000  0  8  3  2 19 18 31 29 27 16
  22252558.021    -6409237.20449  -4984946.43449  22252558.3874   22252564.5194
  21190875.032   -17383128.45049 -13526074.22249  21190877.0224   21190881.7394
  18910957.876   -13838780.54249 -10770265.58449  18910959.2054   18910963.6194
  19227670.320    -6520751.37149  -5073844.61049  19227671.0824   19227675.0634
  20022307.246   -15525678.52249 -11792419.07349  20022307.5634   20022311.4624
  21956541.013     2369271.80649   1846151.01549  21956543.4844   21956547.9014
  20154514.347   -20268993.00549 -15747836.51149  20154515.5184   20154519.6844
  22535054.006   -15483494.29149 -12037594.17349  22535055.4794   22535061.0854
 96  4 17 16  6 59.9940000  0  8  3  2 19 18 31 29 27 16
  22251476.294    -6414923.22749  -4989377.13049  22251477.0084   22251479.2714
  21165250.835   -17517788.81749 -13631004.36549  21165251.4384   21165257.1444
  18896057.715   -13917082.95749 -10831280.45349  18896058.7114   18896062.4934
  19226305.241    -6527918.96949  -5079429.76749  19226306.6964   19226311.1014
  20010964.453   -15585286.41749 -11838866.77649  20010964.8944   20010968.7594
  21962852.306     2402441.94849   1871997.84249  21962854.1374   21962860.3284
  20130121.018   -20397182.17149 -15847724.16849  20130121.7414   20130125.9364
  22516873.742   -15579041.58649 -12112046.61849  22516874.7924   22516877.1754
 96  4 17 16  7 29.9940000  0  8  3  2 19 18 31 29 27 16
  22250465.508    -6420214.07249  -4993499.89149  22250470.1034   22250473.2604
  21139669.557   -17652215.51949 -13735752.43849  21139671.8094   21139676.0544
  18881186.232   -13995233.69849 -10892177.13349  18881187.2444   18881191.2784
  19225025.953    -6534649.28049  -5084674.17949  19225026.0974   19225030.0954
  19999727.718   -15644331.23749 -11884875.73149  19999729.7134   19999733.3404
  21969191.708     2435743.96249   1897947.41149  21969191.8044   21969196.4184
  20105740.129   -20525301.66849 -15947557.53549  20105741.3414   20105745.9584
  22498780.639   -15674117.64849 -12186131.87049  22498782.3314   22498785.1644
 96  4 17 16  7 59.9940000  0  8  3  2 19 18 31 29 27 16
  22249537.505    -6425100.46149  -4997307.49349  22249539.0254   22249544.1424
  21114140.503      -51955.94019
  18866345.589   -14073220.89049 -10952946.37549  18866346.7314   18866350.6304
  19223827.290    -6540946.12449  -5089580.83149  19223828.2614   19223832.4244
  19988601.957   -15702800.65049 -11930436.31549  19988602.5664   19988606.6304
  21975553.114     2469178.19849   1923999.99949  21975556.8164   21975559.9604
  20081371.613   -20653360.78149 -16047343.85749  20081372.4794   20081377.0474
  22480787.561   -15768699.80249 -12259832.25449  22480785.0934   22480787.9204
 96  4 17 16  8 29.9940000  0  8  3  2 19 18 31 29 27 16
  22248694.552    -6429528.11449  -5000757.65449  22248696.9214   22248701.6794
  21088657.125     -185860.12259   -112271.28859  21088656.1674   21088661.1474
  18851545.194   -14150998.07349 -11013551.98049  18851546.1294   18851550.2924
  19222716.086    -6546782.87149  -5094128.96449  19222717.2544   19222721.3824
  19977594.592   -15760646.97549 -11975511.37649  19977594.6454   19977598.1984
  21981948.419     2502779.18449   1950182.53149  21981948.4174   21981952.7334
  20057018.673   -20781337.72749 -16147066.15049  20057019.3134   20057023.4744
  22462886.286   -15862756.90849 -12333123.53349  22462886.3214   22462890.8424
 96  4 17 16  8 59.9940000  0  8  3  2 19 18 31 29 27 16
  22247931.847    -6433546.94249  -5003889.24949  22247931.7264   22247937.6514
  21063212.224     -319576.17149   -216465.60249  21063210.9184   21063215.8564
  18836772.514   -14228623.37249 -11074039.23249  18836774.3224   18836778.6034
  19221681.851    -6552222.45449  -5098367.61349  19221682.1194   19221686.6334
  19966692.869   -15817932.15249 -12020149.17849  19966693.1864   19966697.3414
  21988361.018     2536482.09349   1976444.48249  21988362.3824   21988367.2164
  20032668.831   -20909295.61749 -16246773.59849  20032669.9874   20032673.8884
  22445078.428   -15956351.42949 -12406054.34349  22445075.9094   22445080.3244
 96  4 17 16  9 29.9940000  0  8  3  2 19 18 31 29 27 16
  22247248.272    -6437127.34049  -5006679.20949  22247251.7884   22247256.2184
  21037801.478     -453094.39659   -320505.76459  21037803.1544   21037807.7924
  18822035.738   -14306068.23949 -11134385.88449  18822037.3934   18822041.3504
  19220725.804    -6557241.03849  -5102278.21749  19220727.3194   19220731.1094
  19955904.309   -15874622.81149 -12064323.71149  19955905.6444   19955909.5144
  21994802.759     2570328.69549   2002818.43549  21994803.0794   21994806.3714
  20008330.341   -21037191.93549 -16346433.06749  20008331.7884   20008335.7614
  22427359.924   -16049458.73649 -12478605.50349  22427356.6404   22427363.4024
 96  4 17 16  9 59.9940000  0  8  3  2 19 18 31 29 27 16
  22246651.106    -6440267.66349  -5009126.25249  22246653.6204   22246658.2054
  21012434.290     -586400.04049   -424380.27949  21012435.9824   21012441.1764
  18807335.905   -14383318.94149 -11194581.23449  18807336.9374   18807341.1854
  19219851.475    -6561839.22949  -5105861.23749  19219851.9664   19219856.4724
  19945232.201   -15930711.27449 -12108029.01249  19945232.3844   19945236.9164
  22001273.521     2604339.75249   2029320.50449  22001276.3124   22001279.7964
  19984007.670   -21165009.95549 -16446031.51949  19984009.1904   19984012.6234
  22409729.942   -16142094.59949 -12550789.31149  22409728.1814   22409736.5024
 96  4 17 16 10 29.9940000  0  8  3  2 19 18 31 29 27 16
  22246133.421    -6442990.15849  -5011247.70149  22246135.8124   22246139.9894
  20987104.989                      -40219.20519
  18792668.190   -14460397.95049 -11254642.80649  18792669.3034   18792673.6514
  19219054.293    -6566027.75049  -5109125.03749  19219055.0424   19219059.2584
  19934668.654   -15986216.58449 -12151279.90549  19934669.2364   19934673.4414
  22007775.947     2638500.34349   2055939.09949  22007776.5494   22007780.3214
  19959699.282   -21292754.59449 -16545572.81049  19959699.9924   19959704.3394
  22392180.236   -16234277.79249 -12622620.37349  22392186.7474   22392193.6724
 96  4 17 16 10 59.9940000  0  8  3  2 19 18 31 29 27 16
  22245691.999    -6445317.70049  -5013061.39549  22245692.4364   22245696.8264
  20961819.955     -173110.50859   -111415.00159  20961818.1174   20961823.2424
  18778034.275   -14537299.25749 -11314565.90149  18778035.5564   18778039.6024
  19218337.176    -6569797.66549  -5112062.64349  19218337.8724   19218341.8024
  19924218.318   -16041140.04849 -12194077.41149  19924218.5624   19924221.9764
  22014306.131     2672829.62349   2082689.15849  22014308.5984   22014313.0294
  19935406.078   -21420413.94749 -16645047.62449  19935407.2364   19935411.4144
  22374730.373   -16325984.49449 -12694080.15149  22374735.2044   22374741.5184
 96  4 17 16 11 29.9940000  0  8  3  2 19 18 31 29 27 16
  22245322.844    -6447254.45249  -5014570.60749  22245323.9544   22245329.4754
  20936574.224     -305761.51649   -214779.41849  20936575.7944   20936580.8694
  18763436.270   -14614012.40549 -11374342.38849  18763437.3184   18763441.7324
  19217701.437    -6573139.61449  -5114666.78049  19217701.8934   19217705.8704
  19913878.219   -16095469.19349 -12236411.82049  19913879.5834   19913883.9784
  22020879.738     2707353.74349   2109591.02449  22020879.3234   22020884.8584
  19911132.648   -21547971.77849 -16744443.33949  19911133.8684   19911138.5144
  22357373.244   -16417202.72349 -12765159.28849  22357377.3364   22357383.2734
 96  4 17 16 11 59.9940000  0  8  3  2 19 18 31 29 27 16
  22245029.598    -6448798.99749  -5015774.18649  22245029.9514   22245034.7044
  20911377.312     -438150.24459   -317939.46559  20911382.5554   20911387.8304
  18748878.710   -14690511.46649 -11433952.05249  18748880.0384   18748884.4294
  19217151.911    -6576023.80949  -5116914.22449  19217153.0294   19217157.3084
  19903655.511   -16149192.00549 -12278273.76049  19903656.5074   19903659.7884
  22027488.270     2742090.12849   2136658.26549  22027490.4414   22027491.8134
  19886880.644   -21675417.18649 -16843751.45149  19886881.8424   19886886.2214
  22340115.718   -16507907.66649 -12835838.48949  22340117.7984   22340121.0854
 96  4 17 16 12 29.9940000  0  8  3  2 19 18 31 29 27 16
  22244798.415    -6450000.91449  -5016710.78349  22244801.6824   22244805.5684
  20886221.915     -570347.52649   -420950.31949  20886226.5074   20886231.7684
  18734353.043   -14766843.84549 -11493431.83849  18734354.5414   18734358.7644
  19216680.988    -6578497.56749  -5118841.85049  19216682.0874   19216686.2634
  19893539.069   -16202358.37549 -12319702.11249  19893539.6144   19893543.3584
  22034127.388     2776979.21749   2163844.55549  22034130.2854   22034133.0834
  19862640.894   -21802796.57949 -16943008.12249  19862642.0014   19862646.3564
  22322949.935   -16598139.84049 -12906149.27449  22322946.9474   22322951.2004
 96  4 17 16 12 59.9940000  0  8  3  2 19 18 31 29 27 16
  22244642.257    -6450814.61949  -5017344.87149  22244645.5374   22244652.3024
  20861114.842     -702305.40049   -523774.62849  20861115.8514   20861120.7254
  18719868.316   -14842962.89049 -11552745.38149  18719869.6024   18719873.8154
  19216295.994    -6580525.96949  -5120422.43549  19216296.5864   19216300.5334
  19883535.033   -16254929.66949 -12360666.75249  19883536.0744   19883540.2374
  22040799.493     2812056.99949   2191177.82449  22040802.4654   22040808.3394
  19838422.877   -21930063.20849 -17042176.92749  19838424.1164   19838427.9164
  22305871.990   -16687869.96849 -12976068.88049  22305872.7304   22305875.2914
 96  4 17 16 13 29.9940000  0  8  3  2 19 18 31 29 27 16
  22244563.449    -6451244.44749  -5017679.84849  22244564.9064   22244569.9334
  20836045.468     -834043.83649   -626427.95149  20836046.9364   20836051.5254
  18705420.708   -14918889.87949 -11611909.27349  18705421.2504   18705425.6204
  19215989.139    -6582135.24049  -5121676.42749  19215990.0694   19215993.9964
  19873642.176   -16306919.21249 -12401178.09649  19873642.8384   19873646.3874
  22047510.897     2847301.79249   2218641.25549  22047510.6034   22047514.7754
  19814224.486   -22057232.44049 -17141269.83449  19814224.6484   19814228.9314
  22288891.322   -16777117.06349 -13045612.08749  22288889.9164   22288891.8854
 96  4 17 16 13 59.9940000  0  8  3  2 19 18 31 29 27 16
  22244560.554    -6451254.68449  -5017687.88549  22244561.0474   22244567.3714
  20811025.783     -965527.22849   -728882.52749  20811026.4314   20811030.9404
  18691013.527   -14994599.70449 -11670903.94549  18691014.0754   18691018.2924
  19215768.751    -6583294.39749  -5122579.68949  19215769.5874   19215773.5174
  19863865.648   -16358287.55049 -12441205.37749  19863867.1514   19863871.3584
  22054248.548     2882722.61749   2246241.88049  22054249.8174   22054256.5094
  19790046.980   -22184281.33249 -17240268.97049  19790048.2864   19790052.2874
  22272004.229   -16865842.09549 -13114748.47949  22272003.9984   22272008.6924
 96  4 17 16 14 29.9940000  0  8  3  2 19 18 31 29 27 16
  22244634.510    -6450864.42749  -5017383.82849  22244635.1744   22244642.5394
  20786047.870    -1096785.00249   -831161.30649  20786048.9454   20786053.2354
  18676635.942   -15070148.17149 -11729772.88649  18676637.7964   18676641.5924
  19215623.110    -6584056.25449  -5123173.36049  19215624.3154   19215628.8114
  19854200.929   -16409072.76049 -12480778.27349  19854203.2174   19854206.9344
  22061013.643     2918266.94249   2273938.66849  22061015.6184   22061018.8214
  19765886.575   -22311243.68149 -17339200.67449  19765887.9594   19765892.1374
  22255208.045   -16954084.71649 -13183508.96449  22255212.0224   22255219.8644
 96  4 17 16 14 59.9940000  0  8  3  2 19 18 31 29 27 16
  22244788.106    -6450064.03249  -5016760.17649  22244789.5634   22244793.3634
  20761118.254    -1227791.97749   -933244.65249  20761118.9544   20761124.0314
  18662292.511   -15145522.47549 -11788506.10949  18662294.1804   18662298.4764
  19215557.061    -6584408.28249  -5123447.68049  19215557.5724   19215561.8154
  19844651.580   -16459253.16549 -12519879.89449  19844654.4304   19844658.9834
  22067806.787     2953967.91349   2301757.57049  22067808.8674   22067813.2334
  19741744.514   -22438115.20249 -17438061.60249  19741745.1174   19741749.0034
  22238514.882   -17041817.25249 -13251871.98249  22238516.6504   22238525.4994
 96  4 17 16 15 29.9930000  0  8  3  2 19 18 31 29 27 16
  22245009.993    -6448901.27749  -5015854.12549  22245011.9894   22245015.6644
  20736223.866    -1358611.07849  -1035181.61149  20736224.9794   20736229.8744
  18647976.204   -15220762.19349 -11847134.46749  18647977.1204   18647980.9354
  19215557.652    -6584402.71349  -5123443.35749  19215558.7474   19215562.5294
  19835213.258   -16508865.92549 -12558539.19749  19835213.2524   19835216.8794
  22074620.974     2989780.05649   2329663.07549  22074623.5704   22074628.5044
  19717608.651   -22564946.57349 -17536891.23649  19717609.8684   19717614.0244
  22221910.910   -17129070.37049 -13319861.44949  22221913.4744   22221920.3434
 96  4 17 16 15 59.9930000  0  8  3  2 19 18 31 29 27 16
  22245307.206    -6447335.61149  -5014634.16749  22245308.6904   22245314.0194
  20711371.685    -1489214.39849  -1136950.42549  20711372.2284   20711376.8734
  18633690.270   -15295830.97349 -11905629.62549  18633691.6344   18633695.8954
  19215633.742    -6584001.39749  -5123130.65749  19215634.8504   19215639.2504
  19825883.894   -16557898.66149 -12596746.52849  19825882.7124   19825886.7514
  22081461.006     3025719.63849   2357667.86749  22081462.7834   22081464.3774
  19693485.677   -22691717.14249 -17635673.50349  19693486.3294   19693490.0734
  22205403.510   -17215826.10849 -13387463.34449  22205404.8974   22205410.8984
 96  4 17 16 16 29.9930000  0  8  3  2 19 18 31 29 27 16
  22245682.078    -6445365.20049  -5013098.83649  22245682.8294   22245689.3524
  20686562.159    -1619586.31949  -1238538.92349  20686563.3254   20686568.1614
  18619444.510   -15370697.07449 -11963966.84849  18619445.3134   18619449.2324
  19215786.524    -6583202.12049  -5122507.86649  19215787.2024   19215791.3934
  19816660.656   -16606354.67549 -12634504.47549  19816661.4204   19816665.5144
  22088326.588     3061806.30149   2385787.32749  22088330.1894   22088334.4354
  19669376.803   -22818406.36549 -17734392.37649  19669378.0014   19669382.2824
  22188990.412   -17302074.40949 -13454669.82149  22188992.8404   22188998.0894
 96  4 17 16 16 59.9930000  0  8  3  2 19 18 31 29 27 16
  22246135.218    -6442982.66849  -5011242.38649  22246136.5594   22246142.0234
  20661798.484    -1749714.13949  -1339937.22149  20661800.6884   20661805.5064
  18605241.859   -15445331.66149 -12022123.67249  18605242.8814   18605246.6364
  19216019.437    -6581980.83149  -5121556.22649  19216019.2804   19216023.6084
  19807549.879   -16654226.49049 -12671807.19349  19807551.6614   19807556.1724
  22095225.664     3098056.14849   2414033.89749  22095227.8354   22095231.6724
  19645288.411   -22944997.43349 -17833034.77049  19645288.4954   19645292.7424
  22172680.135   -17387804.26449 -13521472.30049  22172679.5794   22172682.2134
 96  4 17 16 17 29.9930000  0  8  3  2 19 18 31 29 27 16
  22246662.248    -6440212.91649  -5009084.17049  22246665.2384   22246667.8254
  20637079.917    -1879616.20949  -1441159.59649  20637081.3604   20637086.1494
  18591078.272   -15519764.22149 -12080123.07849  18591078.5774   18591082.8094
  19216325.948    -6580362.47149  -5120295.18549  19216327.6594   19216331.7454
  19798543.366   -16701558.10649 -12708688.98049  19798545.0004   19798549.3954
  22102145.890     3134415.07849   2442365.45649  22102146.9664   22102150.1294
  19621212.793   -23071511.44549 -17931617.11249  19621213.8714   19621217.9234
  22156452.418   -17473064.70449 -13587909.02849  22156453.3544   22156457.7644
 96  4 17 16 17 59.9930000  0  8  3  2 19 18 31 29 27 16
  22247266.873    -6437047.66349  -5006617.75849  22247266.7734   22247270.2384
  20612412.095    -2009250.96049  -1542173.68549  20612412.7434   20612417.4144
  18576955.130   -15593976.23749 -12137950.63149  18576956.7194   18576960.9334
  19216713.521    -6578327.73749  -5118709.69649  19216714.8764   19216718.6674
  19789644.035   -16748328.27649 -12745133.27049  19789644.8444   19789648.9514
  22109086.595     3170894.20049   2470790.73149  22109087.9974   22109091.9464
  19597156.565   -23197925.31649 -18030121.42749  19597158.1234   19597161.9704
  22140321.406   -17557855.09749 -13653979.47449  22140318.9434   22140323.6964
 96  4 17 16 18 29.9930000  0  8  3  2 19 18 31 29 27 16
  22247941.820    -6433496.50649  -5003850.62649  22247942.3154   22247947.0334
  20587793.098    -2138615.35449  -1642977.09049  20587794.6974   20587800.5844
  18562874.686   -15667971.03549 -12195608.91349  18562875.7834   18562879.6104
  19217178.868    -6575881.61749  -5116803.65149  19217180.4864   19217184.6554
  19780856.522   -16794513.29149 -12781121.60449  19780856.2414   19780860.6914
  22116053.034     3207505.48149   2499318.90449  22116054.3334   22116059.2824
  19573121.162   -23324234.89249 -18128544.47249  19573122.2764   19573126.3114
  22124272.453   -17642177.94849 -13719685.59849  22124273.7584   22124278.7764
 96  4 17 16 18 59.9930000  0  8  3  2 19 18 31 29 27 16
  22248690.955    -6429542.38249  -5000769.55049  22248694.4554   22248700.1354
  20563231.410    -2267698.50149  -1743561.36749  20563231.0264   20563236.0614
  18548837.982   -15741737.54749 -12253089.31749  18548838.7484   18548843.0034
  19217727.944    -6573000.56749  -5114558.70749  19217728.3714   19217732.4914
  19772183.951   -16840079.12649 -12816627.45449  19772185.5704   19772189.6794
  22123050.923     3244263.09949   2527961.17849  22123049.8444   22123054.2014
  19549109.718   -23450418.28849 -18226869.19549  19549110.4224   19549114.4294
  22108316.832   -17726022.64249 -13785019.14449  22108317.7714   22108323.9104
 96  4 17 16 19 29.9930000  0  8  3  2 19 18 31 29 27 16
  22249510.849    -6425257.06549  -4997430.39549  22249509.5464   22249515.5104
  20538707.890    -2396564.65449  -1843976.53349  20538708.8004   20538713.9054
  18534832.811   -15815329.77449 -12310433.90949  18534834.4514   18534838.5534
  19218346.310    -6569748.53349  -5112024.66849  19218347.3164   19218351.6464
  19763625.108   -16885067.52549 -12851683.36549  19763625.0354   19763628.0014
  22130057.058     3281100.95649   2556665.91749  22130059.4164   22130063.7054
  19525110.586   -23576535.81549 -18325142.59149  19525111.0564   19525115.1514
  22092442.942   -17809442.75949 -13850021.85749  22092445.0834   22092448.2204
 96  4 17 16 19 59.9930000  0  8  3  2 19 18 31 29 27 16
  22250392.685    -6420615.97049  -4993814.01049  22250394.4684   22250398.8244
  20514230.001    -2525195.84849  -1944208.62449  20514231.1624   20514235.9674
  18520867.820   -15888714.35649 -12367616.71349  18520870.1004   18520874.0514
  19219041.798    -6566095.04349  -5109177.80749  19219042.6384   19219046.6584
  19755183.375   -16929439.05649 -12886258.59249  19755181.4654   19755184.4124
  22137091.223     3318048.23649   2585455.93349  22137091.3584   22137095.1804
  19501130.241   -23702553.48749 -18423338.18049  19501130.4504   19501134.7974
  22076660.606   -17892393.59149 -13914658.86749  22076659.8514   22076662.5884
 96  4 17 16 20 29.9930000  0  8  3  2 19 18 31 29 27 16
  22251347.502    -6415599.27249  -4989904.91749  22251349.1024   22251352.9724
  20489800.205    -2653580.49549  -2044248.60049  20489800.2464   20489805.9274
  18506949.635   -15961864.72349 -12424617.00449  18506950.0384   18506954.0214
  19219820.691    -6562005.46049  -5105991.13849  19219820.9524   19219824.8934
  19746859.957   -16973164.44449 -12920330.33749  19746860.7144   19746863.8694
  22144146.694     3355136.91649   2614356.15749  22144148.5154   22144151.5464
  19477173.375   -23828440.58449 -18521432.02149  19477175.2894   19477179.2864
  22060972.368   -17974822.25649 -13978888.98449  22060972.2514   22060976.7664
 96  4 17 16 20 59.9930000  0  8  3  2 19 18 31 29 27 16
  22252363.010    -6410258.11449  -4985743.01449  22252364.1034   22252368.2564
  20465405.865    -2781773.41149  -2144139.16149  20465406.1154   20465411.5984
  18493067.771   -16034815.67349 -12481461.90749  18493067.9594   18493071.9914
  19220674.634    -6557511.24549  -5102489.17349  19220675.9684   19220680.0604
  19738649.391   -17016296.33449 -12953939.61049  19738652.4754   19738656.3634
  22151222.469     3392316.39949   2643327.11549  22151223.9844   22151228.3044
  19453237.501   -23954230.68549 -18619450.27849  19453238.0384   19453241.8874
  22045379.943   -18056754.71049 -14042732.49049  22045379.5404   22045386.1764
 96  4 17 16 21 29.9930000  0  8  3  2 19 18 31 29 27 16
  22253440.263    -6404587.57049  -4981324.44449  22253443.2844   22253448.7454
  20441049.261    -2909768.54449  -2243875.62849  20441049.1554   20441054.3984
  18479224.357   -16107559.90849 -12538145.73249  18479225.0154   18479229.2894
  19221608.005    -6552609.46349  -5098669.62149  19221609.0264   19221612.9434
  19730552.547   -17058849.02049 -12987097.55449  19730554.9194   19730558.9494
  22158314.833     3429585.52049   2672367.92149  22158315.1464   22158320.0634
  19429320.991   -24079912.38449 -18717384.06849  19429321.4664   19429325.7774
  22029889.663   -18138167.65649 -14106171.17349  22029890.6204   22029894.8044
 96  4 17 16 21 59.9930000  0  8  3  2 19 18 31 29 27 16
  22254590.652    -6398559.46249  -4976627.26749  22254591.6394   22254596.3374
  20416737.276    -3037527.56349  -2343428.10549  20416737.6064   20416742.6974
  18465421.933   -16180084.71449 -12594658.56749  18465423.8674   18465427.9114
  19222622.289    -6547280.50349  -5094517.20549  19222622.9734   19222627.0774
  19722569.346   -17100810.50249 -13019794.82249  19722569.8204   19722573.9794
  22165431.275     3466982.24249   2701508.15849  22165432.3004   22165437.0444
  19405430.450   -24205455.60549 -18815209.95549  19405431.9114   19405435.4644
  22014500.982   -18219042.92549 -14169190.83849  22014500.9314   22014505.1694
 96  4 17 16 22 29.9930000  0  8  3  2 19 18 31 29 27 16
  22255801.394    -6392185.69049  -4971660.73049  22255803.6284   22255808.1784
  20392470.187    -3165050.28849  -2442796.44449  20392471.0984   20392475.5204
  18451659.288   -16252412.88549 -12651018.18649  18451660.3204   18451664.3184
  19223714.294    -6541538.85249  -5090043.21249  19223715.7654   19223719.7524
  19714692.587   -17142201.24249 -13052047.36049  19714693.2524   19714697.4354
  22172570.097     3504505.56149   2730747.04349  22172573.1024   22172577.0944
  19381564.991   -24330865.81949 -18912932.19449  19381566.9164   19381570.6444
  21999210.447   -18299397.05249 -14231804.44649  21999208.6124   21999215.2614
 96  4 17 16 22 59.9930000  0  8  3  2 19 18 31 29 27 16
  22257091.869    -6385409.53749  -4966380.67449  22257093.5684   22257098.9864
  20368259.040    -3292280.72449  -2541937.04449  20368259.6434   20368264.8454
  18437937.439   -16324520.25249 -12707205.74849  18437939.1634   18437943.1694
  19224891.479    -6535354.28149  -5085224.09149  19224892.4074   19224896.4614
  19706927.246   -17183005.12649 -13083842.60649  19706928.6534   19706932.7394
  22179741.542     3542187.49349   2760109.50749  22179743.7104   22179747.8274
  19357733.070   -24456105.10249 -19010521.24549  19357734.5544   19357738.6754
  21984016.501   -18379206.10149 -14293993.35949  21984020.7384   21984027.6354
 96  4 17 16 23 29.9930000  0  8  3  2 19 18 31 29 27 16
  22258449.382    -6378268.10049  -4960815.96449  22258452.3014   22258456.6914
  20344097.021    -3419248.63349  -2640873.06249  20344098.5104   20344104.4084
  18424246.685   -16396467.41749 -12763268.47549  18424247.7554   18424251.7634
  19226141.037    -6528785.51649  -5080105.59349  19226142.3244   19226146.5494
  19699266.776   -17223261.09249 -13115210.90049  19699268.3884   19699272.6104
  22186937.220     3579998.51249   2789572.56949  22186939.0044   22186943.3664
  19333922.902   -24581230.05649 -19108021.20649  19333924.1144   19333928.1674
  21968928.739   -18458519.76649 -14355796.20949  21968927.8734   21968934.8374
 96  4 17 16 23 59.9930000  0  8  3  2 19 18 31 29 27 16
  22259877.353    -6370761.05049  -4954966.34949  22259880.3714   22259885.7904
  20319988.148    -3545945.26349  -2739597.70549  20319989.0304   20319993.7534
  18410585.963   -16468254.19449 -12819206.22649  18410587.0144   18410591.3214
  19227465.183    -6521832.85549  -5074687.95249  19227465.6484   19227469.9484
  19691713.285   -17262958.12149 -13146143.66149  19691714.4224   19691718.6524
  22194160.086     3617942.73549   2819139.40849  22194159.5124   22194163.9324
  19310131.924   -24706250.66349 -19205439.86449  19310133.3234   19310137.6174
  21953924.698   -18537345.14149 -14417218.59749  21953927.4454   21953934.5494
 96  4 17 16 24 29.9930000  0  8  3  2 19 18 31 29 27 16
  22261385.763    -6362845.51849  -4948798.43749  22261387.5274   22261391.9804
  20295936.022    -3672340.99649  -2838087.88049  20295936.6754   20295941.7094
  18396968.407   -16539818.24649 -12874970.42949  18396969.3824   18396973.2934
  19228867.224    -6514460.28849  -5068943.12449  19228868.8984   19228872.5854
  19684272.076   -17302056.38549 -13176609.84949  19684274.1334   19684278.4024
  22201406.163     3656041.22249   2848826.46149  22201409.2764   22201414.0144
  19286367.000   -24831137.20849 -19302754.05249  19286368.1364   19286372.3204
  21939032.410   -18615623.90549 -14478215.04449  21939033.1644   21939037.6444
 96  4 17 16 24 59.9930000  0  8  3  2 19 18 31 29 27 16
  22262962.672    -6354565.41149  -4942346.45749  22262961.9874   22262969.2334
  20271931.940    -3798485.74049  -2936382.47949  20271932.4014   20271937.2764
  18383388.769   -16611171.15949 -12930570.11149  18383391.0034   18383395.0244
  19230339.870    -6506719.03049  -5062911.00249  19230341.3114   19230346.3214
  19676941.006   -17340588.02649 -13206634.51249  19676942.4264   19676946.3764
  22208678.181     3694246.55049   2878596.76649  22208678.4234   22208683.8994
  19262616.698   -24955940.44249 -19400003.32149  19262619.0354   19262623.2764
  21924233.786   -18693401.00949 -14538820.56149  21924232.1264   21924237.4974
 96  4 17 16 25 29.9930000  0  8  3  2 19 18 31 29 27 16
  22264609.305    -6345925.67749  -4935614.24949  22264607.4284   22264611.9014
  20247972.753    -3924383.04649  -3034484.26349  20247974.2884   20247979.6024
  18369860.413   -16682265.35349 -12985968.19249  18369862.1864   18369866.1654
  19231885.534    -6498600.90249  -5056585.21149  19231886.9464   19231890.7944
  19669721.019   -17378528.42249 -13236198.46849  19669721.8774   19669725.9724
  22215968.794     3732565.58149   2908455.67549  22215971.9854   22215976.7014
  19238885.835   -25080647.29349 -19497177.49349  19238888.1224   19238892.0304
  21909527.658   -18770671.83449 -14599031.60049  21909527.9764   21909533.5334
 96  4 17 16 25 59.9930000  0  8  3  2 19 18 31 29 27 16
  22266315.945    -6336938.47749  -4928611.31149  22266317.7194   22266322.3814
  20224059.206    -4050058.43849  -3132413.12949  20224059.5604   20224064.4694
  18356383.026   -16753091.52249 -13041157.41749  18356384.5104   18356388.6934
  19233498.857    -6490120.44849  -5049977.08549  19233500.2914   19233504.1094
  19662606.764   -17415900.17949 -13265319.31849  19662610.3994   19662614.9844
  22223276.638     3770963.11449   2938375.74349  22223278.2354   22223283.9214
  19215174.271   -25205258.63649 -19594277.23449  19215175.2684   19215179.3164
  21894911.965   -18847465.34949 -14658870.73749  21894914.6844   21894920.0694
 96  4 17 16 26 29.9930000  0  8  3  2 19 18 31 29 27 16
  22268088.820    -6327611.85549  -4921343.85549  22268091.6324   22268096.1854
  20200181.743    -4175531.69049  -3230184.48249  20200182.8114   20200187.7414
  18342951.346   -16823667.73349 -13096151.87049  18342954.2814   18342958.3904
  19235179.905    -6481288.56549  -5043095.11649  19235181.2194   19235185.1134
  19655602.465   -17452713.47749 -13294005.01349  19655605.5424   19655609.2794
  22230598.323     3809438.32549   2968356.32849  22230599.8024   22230604.2594
  19191479.789   -25329769.34249 -19691298.56249  19191481.7514   19191485.6874
  21880388.944   -18923807.58849 -14718358.20049  21880389.7954   21880391.6764
 96  4 17 16 26 59.9920000  0  8  3  2 19 18 31 29 27 16
  22269932.281    -6317938.22349  -4913805.99149  22269934.2224   22269938.1054
  20176347.656    -4300780.82649  -3327781.20049  20176348.5874   20176353.3364
  18329571.323   -16893994.10349 -13150951.64349  18329571.5704   18329575.3684
  19236929.858    -6472087.69449  -5035925.62449  19236932.1754   19236935.7484
  19648708.993   -17488947.81749 -13322239.58249  19648710.2644   19648713.2764
  22237936.629     3848014.56749   2998415.61549  22237940.3874   22237945.7864
  19167812.710   -25454142.13749 -19788212.42449  19167814.1904   19167818.3324
  21865942.634   -18999701.76649 -14777496.51349  21865943.6744   21865949.7974
 96  4 17 16 27 29.9920000  0  8  3  2 19 18 31 29 27 16
  22271835.958    -6307926.48849  -4906004.73649  22271838.7974   22271842.4234
  20152552.864    -4425820.80049  -3425214.93949  20152554.4724   20152559.5534
  18316228.557   -16964108.33449 -13205586.11349  18316229.2154   18316233.1574
  19238747.931    -6462533.71449  -5028480.99149  19238749.8924   19238754.0164
  19641922.016   -17524619.30649 -13350035.54749  19641922.5894   19641926.0944
  22245299.241     3886687.26249   3028550.09549  22245299.8394   22245304.1274
  19144170.271   -25578387.28249 -19885026.81449  19144171.1914   19144175.5424
  21851582.706   -19075150.97149 -14836288.12649  21851586.1864   21851592.0674
 96  4 17 16 27 59.9920000  0  8  3  2 19 18 31 29 27 16
  22273810.819    -6297554.42649  -4897922.62749  22273812.5574   22273815.9694
  20128808.529    -4550609.05349  -3522452.53049  20128807.8904   20128812.2344
  18302926.596   -17034002.04549 -13260048.75249  18302929.0284   18302933.0414
  19240638.413    -6452599.02649  -5020739.70249  19240640.4884   19240644.4304
  19635247.458   -17559692.75649 -13377365.52249  19635248.0004   19635252.4064
  22252680.376     3925484.70149   3058781.78549  22252683.0464   22252687.2664
  19120558.629   -25702471.91849 -19981716.14649  19120558.9974   19120562.6904
  21837325.679   -19150105.78849 -14894694.47449  21837324.7814   21837330.0174
 96  4 17 16 28 29.9920000  0  8  3  2 19 18 31 29 27 16
  22275833.732    -6286915.46149  -4889632.57549  22275836.2704   22275841.8254
  20105095.897    -4675213.12849  -3619546.60649  20105096.5404   20105101.7364
  18289653.420   -17103761.21649 -13314406.55349  18289654.3394   18289658.3514
  19242588.615    -6442360.45349  -5012761.60949  19242588.8224   19242593.0594
  19628673.806   -17594244.57849 -13404289.03449  19628673.0954   19628676.6114
  22260074.862     3964327.97349   3089049.19149  22260074.1594   22260078.9384
  19096959.122   -25826478.89149 -20078344.94749  19096961.1564   19096964.9454
  21823143.335   -19224615.29149 -14952753.84749  21823144.4184   21823153.0954
 96  4 17 16 28 59.9920000  0  8  3  2 19 18 31 29 27 16
  22277924.761    -6275928.60949  -4881071.42849  22277925.9234   22277933.3154
  20081437.424    -4799539.11049  -3716423.98549  20081437.8924   20081442.7844
  18276425.474   -17173275.11449 -13368573.23449  18276426.4524   18276430.3244
  19244609.902    -6431733.04749  -5004480.54049  19244611.2584   19244615.3474
  19622213.546   -17628183.99449 -13430735.33749  19622214.3304   19622219.0344
  22267486.534     4003291.23149   3119410.11749  22267489.3694   22267494.0704
  19073391.653   -25950330.99849 -20174853.07849  19073392.6974   19073397.0724
  21809067.274   -19298567.96749 -15010379.35149  21809071.4284   21809076.3634
 96  4 17 16 29 29.9920000  0  8  3  2 19 18 31 29 27 16
  22280071.625    -6264630.99949  -4872268.17949  22280077.6374   22280081.3414
  20057823.633    -4923624.28949  -3813113.72749  20057825.2544   20057830.7344
  18263239.078   -17242566.21649 -13422566.30449  18263240.5754   18263244.7664
  19246702.152    -6420738.41049  -4995913.31449  19246703.7064   19246707.1154
  19615865.640   -17661542.85149 -13456729.26249  19615866.6684   19615870.0904
  22274918.234     4042338.05049   3149836.12949  22274920.2204   22274924.1794
  19049844.959   -26074070.30149 -20271273.31249  19049845.9964   19049850.1014
  21795102.952   -19371990.09349 -15067591.37649  21795101.2464   21795104.0924
 96  4 17 16 29 59.9920000  0  8  3  2 19 18 31 29 27 16
  22282295.110    -6252966.62049  -4863179.09549  22282297.0794   22282301.2824
  20034268.782    -5047407.68049  -3909568.30849  20034270.2244   20034275.4824
  18250106.682   -17311577.46249 -13476341.30649  18250108.1364   18250112.1524
  19248880.014    -6409295.32349  -4986996.64849  19248881.1214   19248885.1134
  19609640.986   -17694254.81049 -13482219.11449  19609641.8184   19609645.4524
  22282372.436     4081514.08349   3180362.87149  22282374.4754   22282378.1004
  19026331.342   -26197635.48849 -20367557.87349  19026332.5574   19026336.4504
  21781225.514   -19444836.43549 -15124354.78649  21781235.1484   21781245.6604
 96  4 17 16 30 29.9920000  0  8  3  2 19 18 31 29 27 16
  22284571.707    -6241007.89659  -4853860.63559  22284572.3894   22284577.2314
  20010755.130    -5170977.80549  -4005856.71649  20010755.4984   20010760.7234
  18237011.222   -17380394.45949 -13529964.94949  18237012.6924   18237016.6904
  19251127.842    -6397485.67549  -4977794.35349  19251128.0744   19251132.3374
  19603520.356   -17726413.93749 -13507278.18549  19603521.9524   19603526.0884
  22289838.193     4120739.68949   3210928.20849  22289838.8634   22289844.7384
  19002835.051   -26321107.21449 -20463769.60949  19002836.5404   19002840.4694
  21767471.163   -19517214.29749 -15180753.16849  21767466.9694   21767471.4004
 96  4 17 16 30 59.9920000  0  8  3  2 19 18 31 29 27 16
  22286905.315    -6228742.54549  -4844303.28149  22286905.5774   22286910.2584
  19987283.251    -5294320.68849  -4101968.04149  19987284.2174   19987289.0474
  18223950.765   -17449021.07549 -13583440.23649  18223953.4404   18223957.6294
  19253445.386    -6385302.52449  -4968301.01649  19253446.5994   19253451.2334
  19597508.570   -17758009.27349 -13531897.93549  19597509.7474   19597513.5794
  22297315.229     4160033.39449   3241546.62149  22297317.3114   22297321.0024
  18979358.380   -26444478.47649 -20559903.05249  18979359.8294   18979363.6364
  21753781.329   -19589144.87549 -15236802.95349  21753778.5554   21753780.2804
 96  4 17 16 31 29.9920000  0  8  3  2 19 18 31 29 27 16
  22289303.156    -6216164.76949  -4834502.49549  22289300.6814   22289306.4074
  19963857.512    -5417423.84649  -4197892.57849  19963858.4234   19963863.0824
  18210926.996   -17517471.67549 -13636778.37149  18210927.6984   18210931.8914
  19255835.174    -6372745.62649  -4958516.44849  19255836.0854   19255840.0534
  19591603.044   -17789040.83049 -13556078.37649  19591604.2184   19591608.6464
  22304807.047     4199399.09149   3272221.10649  22304808.0774   22304812.9494
  18955902.633   -26567735.76549 -20655947.69749  18955904.7294   18955908.8634
  21740169.029   -19660633.71049 -15292508.56849  21740173.8814   21740179.8594
 96  4 17 16 31 59.9920000  0  8  3  2 19 18 31 29 27 16
  22291762.011    -6203227.70649  -4824421.66249  22291762.2724   22291767.8074
  19940487.035    -5540236.46949  -4293590.71649  19940488.0204   19940492.5564
  18197941.037   -17585703.52049 -13689946.05649  18197943.8294   18197947.6894
  19258301.903    -6359785.07149  -4948417.34349  19258302.9154   19258306.8734
  19585810.632   -17819476.46149 -13579794.46749  19585812.5534   19585816.1914
  22312321.479     4238886.69449   3302990.59549  22312321.9834   22312325.7844
  18932477.690   -26690835.60349 -20751869.64549  18932479.2184   18932482.9594
  21726663.920   -19731640.21649 -15347838.33149  21726662.4944   21726669.3054
 96  4 17 16 32 29.9920000  0  8  3  2 19 18 31 29 27 16
  22294280.421    -6189988.44649  -4814105.42949  22294280.7154   22294286.8314
  19917159.722    -5662817.26949  -4389108.21949  19917161.1284   19917166.0944
  18184993.368   -17653753.88349 -13742972.31549  18184994.3884   18184998.3354
  19260830.701    -6346495.17249  -4938061.59649  19260831.5334   19260835.9154
  19580120.305   -17849384.00649 -13603099.06749  19580121.1374   19580125.5464
  22319848.863     4278455.43049   3333823.29249  22319852.1144   22319855.8504
  18909071.559   -26813831.76249 -20847710.81049  18909074.0294   18909078.4604
  21713230.708   -19802207.03949 -15402825.48549  21713232.6924   21713237.7144
 96  4 17 16 32 59.9920000  0  7  3  2 19 18 31 27 16
  22296858.995    -6176439.47649  -4803547.81749  22296858.7694   22296865.5574
  19893879.506    -5785158.83649  -4484439.30849  19893881.1324   19893885.9624
  18172083.573   -17721601.94349 -13795840.93149  18172083.4944   18172087.3024
  19263425.867    -6332863.49349  -4927439.53349  19263425.5394   19263429.8544
  19574532.189   -17878750.31549 -13625981.90549  19574532.9264   19574537.1664
  18885690.853   -26936705.65949 -20943456.69449  18885692.2594   18885696.1494
  21699894.497   -19872301.01249 -15457444.19549  21699894.4424   21699897.9204
 96  4 17 16 33 29.9920000  0  7  3  2 19 18 31 27 16
  22299501.321    -6162567.03649  -4792738.19049  22299500.4394   22299505.1194
  19870643.561    -5907264.81049  -4579586.81549  19870644.5024   19870649.8224
  18159216.226   -17789208.46849 -13848521.34749  18159218.0854   18159222.3634
  19266085.820    -6318880.45749  -4916543.67949  19266086.7794   19266091.0414
  19569047.625   -17907570.04649 -13648438.85549  19569048.2204   19569053.3154
  18862335.360   -27059441.61149 -21039095.10249  18862335.9984   18862340.4074
  21686653.091   -19941894.71449 -15511673.06549  21686654.7444   21686655.0384
 96  4 17 16 33 59.9920000  0  7  3  2 19 18 31 27 16
  22302200.325    -6148349.94549  -4781659.95949  22302204.8304   22302209.3894
  19847456.240    -6029116.77049  -4674536.39249  19847457.1404   19847461.6394
  18146403.204   -17856542.50349 -13900989.43349  18146404.6584   18146408.5364
  19268818.621    -6304519.02049  -4905352.97549  19268819.3144   19268823.8274
  19563669.082   -17935827.58949 -13670457.73049  19563671.4744   19563675.6734
  18839009.349   -27182012.84249 -21134605.15349  18839011.1524   18839015.8714
  21673505.913   -20010966.46849 -15565495.19749  21673506.6604   21673516.3074
 96  4 17 16 34 29.9920000  0  7  3  2 19 18 31 27 16
  22304971.333    -6133818.41149  -4770336.74149  22304969.7224   22304976.5844
  19824311.486    -6150741.62549  -4769308.98949  19824312.7114   19824317.4004
  18133637.358   -17923628.77449 -13953264.44949  18133638.8164   18133642.8784
  19271615.447    -6289812.88149  -4893893.66149  19271617.8114   19271622.4514
  19558394.653   -17963544.71149 -13692055.49249  19558397.2114   19558401.0774
  18815711.629   -27304444.45649 -21230006.40349  18815713.4344   18815717.5244
  21660459.139   -20079533.89049 -15618924.40749  21660459.2834   21660464.3494
 96  4 17 16 34 59.9920000  0  7  3  2 19 18 31 27 16
  22307795.838    -6118963.35449  -4758761.44549  22307797.9484   22307802.6214
  19801214.187    -6272118.79549  -4863888.60049  19801215.4704   19801219.9624
  18120920.739   -17990456.95549 -14005338.36049  18120921.9724   18120925.6784
  19274484.104    -6274745.55449  -4882152.91249  19274485.3894   19274489.4404
  19553228.039   -17990708.46949 -13713222.06749  19553228.7204   19553232.6794
  18792442.715   -27426725.61549 -21325290.42349  18792444.1404   18792448.2164
  21647510.229   -20147589.40849 -15671954.68849  21647509.9154   21647513.8564
 96  4 17 16 35 29.9920000  0  6  2 19 18 31 27 16
  19778168.211    -6393229.42449  -4958260.51249  19778169.0004   19778173.5004
  18108254.521   -18057018.03549 -14057204.13849  18108255.7804   18108259.9974
  19277420.935    -6259314.22449  -4870128.51649  19277421.5644   19277426.0464
  19548164.967   -18017309.06049 -13733949.81049  19548166.6214   19548170.7394
  18769204.433   -27548849.70749 -21420452.05049  18769204.7374   18769208.7804
  21634654.458   -20215129.46349 -15724583.30149  21634658.1574   21634662.0164
 96  4 17 16 35 59.9920000  0  6  2 19 18 31 27 16
  19755165.883    -6514111.24349  -5052454.13149  19755166.0724   19755170.9094
  18095626.170   -18123371.21749 -14108907.92049  18095628.9774   18095633.1494
  19280418.447    -6243556.62349  -4857849.89549  19280420.1994   19280424.2404
  19543199.790   -18043388.47349 -13754271.44149  19543203.6034   19543207.7504
  18745986.514   -27670849.26349 -21515516.63349  18745988.7794   18745993.2894
  21621890.543   -20282198.20749 -15776844.69249  21621892.8394   21621900.8854
 96  4 17 16 36 29.9920000  0  6  2 19 18 31 27 16
  19732204.476    -6634764.68849  -5146469.80249  19732206.3304   19732211.0864
  18083043.570   -18189504.42549 -14160440.29749  18083044.2234   18083048.4414
  19283478.793    -6227479.57549  -4845322.34449  19283479.7554   19283483.8184
  19538341.458   -18068933.91749 -13774176.99549  19538342.5644   19538347.0074
  18722794.986   -27792719.71249 -21610480.62249  18722797.6674   18722801.8774
  21609223.029   -20348787.63749 -15828732.55349  21609223.6464   21609227.5174
 96  4 17 16 36 59.9920000  0  6  2 19 18 31 27 16
  19709297.778    -6755149.86949  -5240276.42449  19709297.6064   19709302.2774
  18070506.555   -18255382.82749 -14211774.11249  18070508.1464   18070512.1374
  19286607.581    -6211037.33549  -4832510.23049  19286608.8104   19286612.3164
  19533590.338   -18093904.18449 -13793634.35349  19533591.0604   19533594.9584
  18699641.121   -27914406.94249 -21705301.83549  18699641.0694   18699645.2294
  21596648.606   -20414868.50949 -15880224.16749  21596648.4224   21596652.6024
 96  4 17 16 37 29.9920000  0  6  2 19 18 31 27 16
  19686434.893    -6875284.90449  -5333888.13349  19686436.7864   19686441.2904
  18058014.082   -18321026.23149 -14262924.82049  18058016.5854   18058020.7684
  19289800.909    -6194257.71849  -4819435.23749  19289801.5784   19289805.9194
  19528946.175   -18118311.49049 -13812653.04149  19528946.1414   19528951.3804
  18676515.020   -28035929.38449 -21799994.64549  18676516.2714   18676520.4604
  21584160.477   -20480465.61449 -15931338.79549  21584163.8014   21584171.1044
 96  4 17 16 37 59.9920000  0  6  2 19 18 31 27 16
  19663618.153    -6995192.42849  -5427322.57149  19663619.0564   19663623.5174
  18045567.207   -18386445.47249 -14313900.86149  18045567.7404   18045571.7874
  19293052.716    -6177166.76549  -4806117.63949  19293054.0144   19293057.9884
  19524402.523   -18142177.65849 -13831250.07749  19524404.6894   19524408.9914
  18653417.673   -28157308.91249 -21894576.09749  18653418.9204   18653423.1544
  21571764.531   -20545617.15549 -15982106.26149  21571767.6164   21571771.2464
 96  4 17 16 38 29.9910000  0  6  2 19 18 31 27 16
  19640852.894    -7114822.44349  -5520540.75249  19640854.2264   19640858.7684
  18033168.139   -18451596.90849 -14364668.20949  18033169.7794   18033173.9054
  19296372.750    -6159723.35849  -4792525.38849  19296373.1204   19296377.0974
  19519971.542   -18165468.60149 -13849398.86449  19519973.1254   19519976.7864
  18630351.808   -28278520.63149 -21989026.78249  18630352.9564   18630357.1134
  21559459.652   -20610286.01049 -16032497.57849  21559461.3944   21559466.2504
 96  4 17 16 38 59.9910000  0  6  2 19 18 31 27 16
  19618133.875    -7234220.68049  -5613578.33749  19618133.5274   19618138.3894
  18020810.447   -18516540.91649 -14415273.93549  18020811.5644   18020815.6604
  19299752.689    -6141956.72849  -4778681.28749  19299754.5984   19299758.2774
  19515638.673   -18188235.33749 -13867139.19249  19515640.4014   19515645.0534
  18607307.499   -28399624.03549 -22083393.06549  18607307.8194   18607311.5774
  21547237.096   -20674526.16149 -16082554.88449  21547237.4194   21547244.0474
 96  4 17 16 39 29.9910000  0  6  2 19 18 31 27 16
  19595468.336    -7353321.62449  -5706384.25349  19595469.3694   19595473.6014
  18008507.062   -18581194.36549 -14465653.25249  18008508.0714   18008512.2214
  19303208.762    -6123803.89149  -4764536.24849  19303208.5514   19303212.9164
  19511420.652   -18210416.73649 -13884423.41049  19511420.0644   19511423.4304
  18584296.585   -28520540.54149 -22177613.72549  18584298.1574   18584301.9754
  21535110.844   -20738260.52749 -16132218.03249  21535109.3384   21535113.0764
 96  4 17 16 39 59.9910000  0  6  2 19 18 31 27 16
  19572843.840    -7472217.32949  -5799030.24949  19572844.2014   19572848.8464
  17996239.086   -18645653.40549 -14515881.08049  17996242.1454   17996246.2604
  19306720.727    -6105341.82449  -4750150.24449  19306721.6514   19306725.8874
  19507293.820   -18232103.96749 -13901322.55949  19507292.9284   19507296.4744
  18561308.745   -28641346.96249 -22271748.59349  18561309.4114   18561313.3974
  21523059.513   -20801563.84049 -16181545.32349  21523061.7814   21523065.9394
 96  4 17 16 40 29.9910000  0  6  2 19 18 31 27 16
  19550255.725    -7590912.53749  -5891520.01449  19550257.0404   19550262.1674
  17984007.273   -18709936.72149 -14565971.97849  17984009.4574   17984013.5294
  19310290.238    -6086577.70549  -4735528.86949  19310292.1994   19310296.7904
  19503261.047   -18253289.51249 -13917830.79549  19503261.1724   19503264.6444
  18538341.999   -28762033.82649 -22365790.30549  18538343.4194   18538347.6394
  21511101.782   -20864414.81249 -16230520.09249  21511102.7164   21511109.9214
 96  4 17 16 40 59.9910000  0  6  2 19 18 31 27 16
  19527714.472    -7709367.05849  -5983822.23049  19527716.1444   19527720.9604
  17971818.882   -18773986.46949 -14615880.88249  17971821.0724   17971825.2464
  19313923.487    -6067487.80049  -4720653.63849  19313925.0604   19313929.7384
  19499335.671   -18273913.40249 -13933901.36249  19499336.5204   19499340.0234
  18515415.094   -28882523.38949 -22459678.27649  18515415.1804   18515419.1094
  21499233.773   -20926767.53449 -16279106.67549  21499236.5814   21499243.1414
 96  4 17 16 41 29.9910000  0  6  2 19 18 31 27 16
  19505209.573    -7827635.84149  -6075979.71349  19505210.4084   19505215.2344
  17959668.583   -18837841.71849 -14665638.21949  17959669.9414   17959673.9764
  19317607.192    -6048129.16849  -4705569.02149  19317609.3124   19317613.3294
  19495511.126   -18294027.33549 -13949574.57349  19495509.0384   19495512.5784
  18492513.216   -29002863.91249 -22553450.11149  18492514.8964   18492518.8784
  21487456.557   -20988678.55349 -16327349.03949  21487456.6874   21487460.1754
 96  4 17 16 41 59.9910000  0  6  2 19 18 31 27 16
  19482750.910    -7945651.50449  -6167939.96349  19482752.2814   19482756.9664
  17947566.466   -18901445.87749 -14715199.91249  17947566.6204   17947570.8194
  19321357.232    -6028431.83349  -4690220.47149  19321357.3294   19321361.7974
  19491790.161   -18313562.21149 -13964796.57649  19491791.8114   19491796.0704
  18469648.799   -29123017.55049 -22647076.32149  18469650.6364   18469654.7744
  21475764.839   -21050092.58349 -16375204.15249  21475768.1284   21475775.1444
 96  4 17 16 42 29.9910000  0  6  2 19 18 31 27 16
  19460331.868    -8063468.91349  -6259745.73049  19460332.3124   19460337.4244
  17935503.247   -18964834.27249 -14764593.47549  17935503.8614   17935508.3074
  19325156.393    -6008461.22649  -4674658.97849  19325157.3384   19325161.6044
  19488172.142   -18332576.87649 -13979613.20849  19488173.7634   19488177.4654
  18446809.973   -29243041.27349 -22740601.30249  18446810.9684   18446814.6474
  21464167.107   -21111074.58449 -16422722.61349  21464165.2704   21464169.8224
 96  4 17 16 42 59.9910000  0  6  2 19 18 31 27 16
  19437953.113    -8181064.63949  -6351378.75149  19437954.9834   19437959.8364
  17923486.899   -19027981.03249 -14813798.74749  17923487.4784   17923491.7484
  19329014.686    -5988187.08849  -4658860.97549  19329015.2134   19329019.6824
  19484652.775   -18351076.07549 -13994028.18249  19484653.0874   19484657.4444
  18423996.464   -29362923.52349 -22834016.04449  18423998.0914   18424002.0234
  21452643.216   -21171614.18549 -16469896.35349  21452643.7054   21452649.2454
 96  4 17 16 43 29.9910000  0  6  2 19 18 31 27 16
  19415624.468    -8298408.50049  -6442815.51949  19415625.1154   19415629.8184
  17911516.547   -19090875.79449 -14862807.66549  17911519.1144   17911523.3654
  19332936.005    -5967579.78749  -4642803.35649  19332936.8934   19332941.2294
  19481232.907   -18369048.83849 -14008032.94549  19481232.3334   19481236.9724
  18401211.519   -29482661.66449 -22927318.49049  18401212.6074   18401216.9624
  21441208.672   -21231687.22549 -16516706.52149  21441211.7934   21441217.3434
 96  4 17 16 43 59.9910000  0  6  2 19 18 31 27 16
  19393336.272    -8415528.50149  -6534077.85049  19393337.9474   19393342.5554
  17899590.278   -19153559.08749 -14911651.79849  17899590.7654   17899595.2724
  19336910.871    -5946684.10849  -4626521.03549  19336913.5504   19336917.6634
  19477905.712   -18386534.63449 -14021658.25749  19477905.6824   19477909.9204
  18378447.187   -29602286.64649 -23020532.76549  18378448.3914   18378452.8274
  21429864.317   -21291316.76649 -16563171.13949  21429865.3034   21429871.6684
 96  4 17 16 44 29.9910000  0  6  2 19 18 31 27 16
  19371101.424    -8532371.01949  -6625123.95649  19371103.6154   19371108.2694
  17887711.034   -19215978.74949 -14960290.50449  17887712.9964   17887716.8174
  19340951.126    -5925462.29749  -4609984.57849  19340951.9334   19340956.2884
  19474678.471   -18403490.49949 -14034870.63549  19474679.3114   19474682.5324
  18355717.505   -29721733.23549 -23113608.02549  18355718.7924   18355722.6684
  21418617.338   -21350444.61149 -16609244.77349  21418615.3684   21418617.5354
 96  4 17 16 44 59.9910000  0  6  2 19 18 31 27 16
  19348920.017    -8648942.60149  -6715958.95649  19348920.7464   19348925.5374
  17875884.732   -19278133.32849 -15008722.64849  17875885.5234   17875889.3784
  19345051.304    -5903909.36849  -4593190.12349  19345053.0924   19345057.2154
  19471551.130   -18419919.90349 -14047672.78849  19471552.4534   19471557.1234
  18333022.243   -29840997.33649 -23206541.08949  18333023.5954   18333027.3684
  21407450.664   -21409077.65349 -16654932.89749  21407454.0674   21407464.0864
 96  4 17 16 45 29.9910000  0  6  2 19 18 31 27 16
  19326780.526    -8765283.84949  -6806614.46349  19326781.6324   19326786.8104
  17864104.640   -19340035.60349 -15056958.19449  17864105.7344   17864109.5904
  19349209.605    -5882061.58949  -4576165.89149  19349210.7024   19349215.3104
  19468522.903   -18435843.31949 -14060080.65649  19468522.2374   19468525.8874
  18310354.894   -29960116.52849 -23299361.23849  18310355.9594   18310359.9454
  21396387.963   -21467250.46049 -16700262.38049  21396388.6814   21396389.0614
 96  4 17 16 45 59.9910000  0  6  2 19 18 31 27 16
  19304683.020    -8881408.89849  -6897101.50849  19304683.7094   19304688.5004
  17852372.950   -19401673.79949 -15104987.96649  17852376.3794   17852380.3114
  19353420.900    -5859921.25149  -4558913.70949  19353424.2954   19353428.3534
  19465587.212   -18451263.50749 -14072096.41249  19465587.6164   19465591.6144
  18287715.095   -30079086.77049 -23392065.31749  18287716.3934   18287720.6224
  21385401.158   -21524968.69649 -16745237.60449  21385403.7024   21385409.5714
 96  4 17 16 46 29.9910000  0  6  2 19 18 31 27 16
  19282624.979    -8997323.69549  -6987424.71849  19282626.1464   19282630.9184
  17840697.859   -19463039.11749 -15152805.10349  17840698.8364   17840703.0444
  19357693.356    -5837484.20949  -4541430.32749  19357693.3324   19357697.5114
  19462751.714   -18466170.11249 -14083711.94549  19462751.2814   19462754.5934
  18265105.529   -30197897.12949 -23484644.80849  18265107.6114   18265111.8014
  21374505.945   -21582243.27149 -16789867.20449  21374502.9924   21374511.6564
 96  4 17 16 46 59.9910000  0  6  2 19 18 31 27 16
  19260607.658    -9113025.18849  -7077581.71949  19260608.5934   19260613.4034
  17829074.141   -19524133.28449 -15200410.95149  17829072.9574   17829077.3594
  19362019.767    -5814751.41049  -4523716.48749  19362019.5504   19362023.8614
  19460012.557   -18480557.54549 -14094922.95749  19460012.9824   19460016.8334
  18242527.230   -30316546.11349 -23577098.56549  18242529.5374   18242533.5874
  21363689.011   -21639072.75949 -16834149.93349  21363690.9764   21363693.9104
 96  4 17 16 47 29.9910000  0  6  2 19 18 31 27 16
  19238635.791    -9228482.64649  -7167548.56049  19238637.7254   19238642.3774
  17817499.496   -19584958.67449 -15247807.35749  17817498.4924   17817502.5054
  19366400.326    -5791720.64249  -4505770.45649  19366402.1934   19366406.3344
  19457373.526   -18494415.32749 -14105721.23649  19457376.1444   19457380.0114
  18219984.198   -30435018.48149 -23669414.68549  18219985.0304   18219989.1244
  21352964.044   -21695425.23049 -16878060.94249  21352965.9814   21352972.9154
 96  4 17 16 47 59.9910000  0  6  2 19 18 31 27 16
  19216714.168    -9343685.74149  -7257317.20449  19216715.5244   19216720.1654
  17805969.426   -19645531.76249 -15295007.18049  17805971.9544   17805975.6614
  19370839.874    -5768397.74749  -4487596.79849  19370840.5634   19370844.5274
  19454838.920   -18507743.42849 -14116106.80449  19454840.0634   19454843.9084
  18197474.992   -30553295.68649 -23761578.74249  18197477.4774   18197481.6574
  21342332.067   -21751303.56049 -16921602.54149  21342332.4584   21342338.5754
 96  4 17 16 48 29.9910000  0  6  2 19 18 31 27 16
  19194847.511    -9458595.29949  -7346857.11249  19194848.9564   19194853.6464
  17794495.944   -19705820.23549 -15341985.21649  17794499.3884   17794503.5564
  19375337.617    -5744754.51549  -4469173.53049  19375339.5314   19375343.4204
  19452409.572   -18520518.26549 -14126061.23349  19452409.2584   19452412.6974
  18175012.207   -30671341.53049 -23853562.51549  18175014.2344   18175018.1844
  21331799.066   -21806670.77049 -16964745.82349  21331798.7804   21331801.9124
 96  4 17 16 48 59.9910000  0  6  2 19 18 31 27 16
  19173036.248    -9573212.07949  -7436168.88249  19173037.8794   19173043.0384
  17783075.408   -19765835.22549 -15388750.14049  17783078.7734   17783083.0704
  19379895.873    -5720807.19149  -4450513.29549  19379896.7664   19379901.1204
  19450074.293   -18532767.97149 -14135606.46249  19450077.9584   19450081.2844
  18152592.415   -30789164.88949 -23945372.91849  18152593.1504   18152597.1994
  21321352.351   -21861542.01049 -17007502.64849  21321353.4814   21321363.0924
 96  4 17 16 49 29.9900000  0  6  2 19 18 31 27 16
  19151275.456    -9687572.77849  -7525281.10449  19151275.9634   19151280.6164
  17771705.556   -19825601.96249 -15435321.62149  17771705.3934   17771710.0274
  19384503.887    -5696587.77249  -4431641.05649  19384505.2944   19384509.8654
  19447836.924   -18544522.56749 -14144765.91749  19447840.5834   19447844.6334
  18130208.072   -30906791.16849 -24037029.75549  18130209.6284   18130213.5744
  21310999.599   -21915962.90649 -17049908.60249  21310999.2524   21311004.6284
 96  4 17 16 49 59.9900000  0  6  2 19 18 31 27 16
  19129561.123    -9801679.09549  -7614195.11149  19129562.2644   19129566.8324
  17760384.469   -19885097.83349 -15481682.04549  17760383.9614   17760388.0094
  19389169.719    -5672068.55749  -4412535.19349  19389171.4434   19389175.7934
  19445702.761   -18555757.53049 -14153520.44449  19445703.8084   19445707.5244
  18107863.248   -31024216.85149 -24128530.28649  18107864.5094   18107868.3724
  21300729.537   -21969935.79549 -17091965.38849  21300729.3004   21300732.3984
 96  4 17 16 50 29.9900000  0  6  2 19 18 31 27 16
  19107892.651    -9915544.87149  -7702921.68549  19107894.4024   19107898.8324
  17749107.996   -19944344.80149 -15527848.51849  17749109.5374   17749113.6394
  19393888.315    -5647269.66949  -4393211.41449  19393890.6294   19393895.2614
  19443660.006   -18566493.42449 -14161886.09049  19443661.2924   19443664.0724
  18085551.511   -31141461.57749 -24219889.81249  18085553.4964   18085557.4294
  21290539.459   -22023481.99549 -17133689.72349  21290539.7364   21290548.3984
 96  4 17 16 50 59.9900000  0  6  2 19 18 31 27 16
  19086266.365   -10029194.64449  -7791479.94549  19086267.5424   19086272.3774
  17737871.360   -20003377.47549 -15573848.02049  17737875.9794   17737880.2894
  19398657.605    -5622212.54449  -4373686.41249  19398657.9994   19398662.5654
  19441707.871   -18576753.31549 -14169880.83249  19441708.1544   19441711.3774
  18063269.006   -31258555.69349 -24311131.97749  18063271.1574   18063275.1564
  21280424.175   -22076627.65149 -17175101.96149  21280426.2654   21280432.8404
 96  4 17 16 51 29.9900000  0  6  2 19 18 31 27 16
  19064680.536   -10142629.41349  -7879870.66349  19064681.3964   19064686.1704
  17726682.465   -20062187.55649 -15619674.05449  17726684.6134   17726688.9624
  19403478.785    -5596873.65049  -4353941.83849  19403481.1004   19403484.6694
  19439848.541   -18586517.08749 -14177488.96849  19439850.3824   19439852.8944
  18041017.426   -31375493.10749 -24402252.03849  18041018.6854   18041022.3804
  21270393.539   -22129340.66349 -17216177.05649  21270394.5354   21270400.3244
 96  4 17 16 51 59.9900000  0  6  2 19 18 31 27 16
  19043140.932   -10255821.63849  -7968072.39449  19043141.6494   19043146.0464
  17715540.784   -20120755.53249 -15665311.43849  17715539.7844   17715543.3564
  19408358.560    -5571229.00149  -4333959.02649  19408359.9474   19408364.3294
  19438084.617   -18595777.83449 -14184705.14949  19438086.9914   19438090.9694
  18018798.368   -31492253.07949 -24493233.83749  18018799.7584   18018803.7494
  21260449.279   -22181600.63549 -17256899.13949  21260451.0984   21260455.7654
 96  4 17 16 52 29.9900000  0  6  2 19 18 31 27 16
  19021643.552   -10368790.68849  -8056100.21349  19021644.1934   19021649.0374
  17704437.470   -20179098.46349 -15710773.47049  17704437.4994   17704441.3964
  19413293.482    -5545302.34849  -4313756.47549  19413293.7884   19413298.3264
  19436416.198   -18604558.55649 -14191547.29549  19436417.5314   19436421.1974
  17996611.362   -31608843.01049 -24584083.13149  17996613.8304   17996617.6834
  21250589.694   -22233417.52549 -17297275.92549  21250589.4534   21250595.1224
 96  4 17 16 52 59.9900000  0  6  2 19 18 31 27 16
  19000181.018   -10481575.99649  -8143984.86549  19000182.0254   19000186.9404
  17693374.493   -20237226.78249 -15756068.27349  17693376.0134   17693380.6394
  19418275.765    -5519118.22649  -4293353.28749  19418276.9984   19418281.1034
  19434832.708   -18612886.16249 -14198036.35349  19434833.6024   19434837.2684
  17974452.548   -31725290.89949 -24674821.74549  17974454.4054   17974458.4174
  21240807.993   -22284803.90549 -17337317.28849  21240810.0704   21240816.7414
 96  4 17 16 53 29.9900000  0  6  2 19 18 31 27 16
  18978763.173   -10594123.28549  -8231684.04649  18978764.8484   18978769.7724
  17682362.696   -20295086.04449 -15801153.42049  17682365.8414   17682369.6964
  19423315.338    -5492632.44049  -4272715.04349  19423317.3114   19423321.2514
  19433345.317   -18620699.20049 -14204124.45349  19433346.2804   19433349.2824
  17952332.092   -31841534.52849 -24765401.19449  17952333.9414   17952337.6594
  21231117.529   -22335727.84249 -17376998.30249  21231120.9044   21231126.3894
 96  4 17 16 53 59.9900000  0  6  2 19 18 31 27 16
  18957379.908   -10706494.29449  -8319245.86649  18957381.3614   18957386.4244
  17671393.784   -20352737.57649 -15846076.69249  17671394.9114   17671399.1334
  19428394.951    -5465937.14149  -4251913.53749  19428396.7544   19428401.4304
  19431942.090   -18628066.92949 -14209865.56149  19431943.5274   19431947.1414
  17930238.248   -31957641.55649 -24855874.20449  17930239.5274   17930243.5094
  21221500.934   -22386278.72449 -17416388.60649  21221501.9504   21221507.3684
 96  4 17 16 54 29.9900000  0  6  2 19 18 31 27 16
  18936039.022   -10818640.27849  -8406632.34149  18936040.9254   18936045.8524
  17660472.272   -20410136.45349 -15890803.09749  17660472.3504   17660476.6004
  19433520.905    -5439008.91649  -4230930.53849  19433521.1464   19433526.1264
  19430635.649   -18634945.49949 -14215225.50549  19430636.0344   19430639.0994
  17908178.522   -32073566.97849 -24946205.69949  17908179.6104   17908183.7884
  21211962.142   -22436404.72949 -17455447.86349  21211962.1104   21211968.8974
 96  4 17 16 54 59.9900000  0  6  2 19 18 31 27 16
  18914738.201   -10930582.57749  -8493860.10149  18914738.9184   18914743.6934
  17649592.920   -20467305.26849 -15935350.23949  17649593.7194   17649597.6444
  19438683.322    -5411877.95349  -4209789.56749  19438684.2254   19438688.1794
  19429410.577   -18641371.98749 -14220233.17049  19429412.1944   19429415.8724
  17886147.168   -32189342.73149 -25036420.57449  17886148.2744   17886152.2334
  21202498.963   -22486144.79449 -17494206.37049  21202498.3524   21202501.9704
 96  4 17 16 55 29.9900000  0  6  2 19 18 31 27 16
  18893490.942   -11042232.37949  -8580859.94349  18893492.7614   18893497.1974
  17638774.622   -20524160.39349 -15979652.93849  17638774.2984   17638778.3694
  19443898.946    -5384471.20949  -4188433.70049  19443899.7684   19443903.8724
  19428287.560   -18647268.98649 -14224828.26349  19428289.8874   19428294.7304
  17864159.556   -32304888.43649 -25126456.19249  17864160.9934   17864164.8234
  21193117.843   -22535427.32949 -17532608.34149  21193119.2864   21193125.9324
 96  4 17 16 55 59.9900000  0  6  2 19 18 31 27 16
  18872293.111   -11153635.85649  -8667667.84049  18872293.3434   18872298.1004
  17628007.847   -20580738.29149 -16023739.61849  17628007.9044   17628012.1544
  19449156.189    -5356837.35349  -4166900.85749  19449157.9524   19449162.6954
  19427255.001   -18652693.27549 -14229055.02249  19427256.9894   19427261.6404
  17842207.830   -32420246.80849 -25216345.83249  17842208.8074   17842212.4474
  21183825.492   -22584277.12249 -17570673.17549  21183824.7914   21183830.7604
 96  4 17 16 56 29.9900000  0  7  2  7 19 18 31 27 16
  18851146.347   -11264762.41049  -8754259.95549  18851146.6774   18851151.5424
  21395389.204     -492510.17119   -345053.48259                  21395395.0624
  17617297.161   -20637012.23649 -16067589.45649  17617299.6694   17617303.8684
  19454469.181    -5328927.16249  -4145152.68649  19454469.4584   19454473.9264
  19426320.674   -18657620.35749 -14232894.31849  19426320.5494   19426323.4404
  17820299.032   -32535375.21549 -25306056.28049  17820300.5364   17820304.5364
  21174616.421   -22632655.70149 -17608370.76049  21174617.0684   21174622.3874
 96  4 17 16 56 59.9900000  0  7  2  7 19 18 31 27 16
  18830035.837   -11375698.43049  -8840703.59649  18830036.3244   18830041.1454
  21361339.829     -671422.61059   -484465.69849  21361342.8224   21361350.7474
  17606633.905   -20693060.79049 -16111263.65949  17606633.6784   17606637.5504
  19459819.641    -5300801.14349  -4123236.34849  19459822.1154   19459826.7074
  19425464.145   -18662118.83649 -14236399.64749  19425464.1894   19425468.2604
  17798421.365   -32650342.17649 -25395640.92249  17798423.2804   17798427.0334
  21165482.531   -22680643.16449 -17645763.62849  21165485.2314   21165492.6364
 96  4 17 16 57 29.9900000  0  7  2  7 19 18 31 27 16
  18808976.063   -11486368.45049  -8926939.97249  18808976.6004   18808981.7014
  21327305.458     -850288.40749   -623841.61359  21327307.0844   21327311.4524
  17596022.929   -20748813.98449 -16154707.71649  17596024.4324   17596028.5824
  19465226.728    -5272390.95949  -4101098.58349  19465227.9434   19465232.1464
  19424705.452   -18666103.77549 -14239504.81849  19424706.3234   19424708.6474
  17776590.674   -32765060.44049 -25485031.78049  17776592.8714   17776596.8374
  21156443.052   -22728172.10249 -17682799.22849  21156442.7784   21156445.8724
 96  4 17 16 57 59.9900000  0  7  2  7 19 18 31 27 16
  18787961.891   -11596793.15849  -9012985.19149  18787963.0414   18787968.1834
  21293275.828    -1029113.82559   -763186.05549  21293275.9534   21293282.9644
  17585461.498   -20804309.43449 -16197950.93349  17585463.5884   17585467.9254
  19470682.716    -5243719.98749  -4078757.60749  19470683.8754   19470688.3044
  19424037.179   -18669611.11949 -14242237.82949  19424038.9314   19424042.9894
  17754806.712   -32879543.53449 -25574239.38949  17754807.5054   17754811.5234
  21147481.355   -22775274.50549 -17719502.38049  21147480.0534   21147482.6694
 96  4 17 16 58 29.9900000  0  7  2  7 19 18 31 27 16
  18766997.637   -11706959.66449  -9098829.21649  18766999.3704   18767004.0014
  21259256.035    -1207873.47349   -902479.24949  21259259.1634   21259265.1044
  17574956.265   -20859531.87049 -16240981.40649  17574955.5994   17574959.5154
  19476190.665    -5214769.05449  -4056198.47449  19476193.3904   19476197.0664
  19423464.582   -18672622.56249 -14244584.42049  19423465.9404   19423469.3504
  17733069.650   -32993773.89649 -25663250.06349  17733070.0924   17733074.1154
  21138595.773   -22821933.27649 -17755859.90749  21138597.3924   21138607.0134
 96  4 17 16 58 59.9900000  0  7  2  7 19 18 31 27 16
  18746077.577   -11816901.95549  -9184498.53949  18746078.0404   18746082.8774
  21225250.679    -1386587.64349  -1041736.98349  21225251.5534   21225257.8994
  17564492.541   -20914492.34849 -16283807.76849  17564496.7984   17564500.9944
  19481747.199    -5185578.88749  -4033452.92449  19481747.5214   19481752.7314
  19422978.220   -18675171.13949 -14246570.35649  19422978.7814   19422984.6654
  17711373.254   -33107785.80349 -25752090.51749  17711374.4784   17711378.7264
  21129797.483   -22868180.81749 -17791897.02549  21129799.2944   21129804.6834
 96  4 17 16 59 29.9900000  0  7  2  7 19 18 31 27 16
  18725206.187   -11926578.35149  -9269960.65949  18725207.0824   18725212.1734
  21191259.906    -1565213.63549  -1180926.00149  21191259.2674   21191264.2884
  17554093.724   -20969153.31249 -16326400.72749  17554094.9554   17554099.2974
  19487351.366    -5156127.13549  -4010503.52949  19487352.1224   19487356.5064
  19422578.042   -18677246.97449 -14248187.95549  19422583.1464   19422590.2344
  17689724.831   -33221550.11949 -25840738.03149  17689725.8504   17689729.5454
  21121082.064   -22913984.69649 -17827588.35849  21121082.8214   21121086.5084
 96  4 17 16 59 59.9900000  0  7  2  7 19 18 31 27 16
  18704376.872   -12036034.61049  -9355251.25149  18704378.4674   18704383.3114
  21157274.183    -1743804.49959  -1320087.64959  21157275.0374   21157281.1114
  17543741.956   -21023552.55649 -16368789.75149  17543743.1384   17543747.0744
  19492995.698    -5126460.25949  -3987386.52349  19492997.8674   19493003.0574
  19422267.381   -18678909.24049 -14249483.25149  19422268.3594   19422273.6824
  17668113.116   -33335118.71049 -25929233.03649  17668114.4764   17668118.4584
  21112446.546   -22959373.23149 -17862956.08449  21112447.0124   21112454.0254
 96  4 17 17  0 29.9890000  0  7  2  7 19 18 31 27 16
  18683612.330   -12145152.68049  -9440278.31949  18683614.0244   18683618.8594
  21123318.979    -1922239.55549  -1459127.90049  21123321.0174   21123326.6814
  17533466.100   -21077550.96449 -16410866.45049  17533467.6194   17533472.2864
  19498704.142    -5096466.84149  -3964015.06449  19498705.5284   19498710.0354
  19422055.893   -18680027.90949 -14250354.97049  19422056.4704   19422061.4354
  17646560.531   -33448374.86149 -26017484.58249  17646562.7424   17646566.6514
  21103909.428   -23004218.27549 -17897900.32849  21103909.9994   21103917.5054
 96  4 17 17  0 59.9890000  0  7  2  7 19 18 31 27 16
  18662899.591   -12254001.17849  -9525095.33449  18662900.6984   18662905.6564
  21089376.730    -2100599.48949  -1598109.61549  21089380.1174   21089385.9374
  17523255.343   -21131214.05449 -16452681.85149  17523256.1054   17523259.9494
  19504462.390    -5066206.96849  -3940435.98249  19504463.4584   19504467.7594
  19421933.942   -18680671.44849 -14250856.46149  19421933.7764   19421937.4044
  17625053.794   -33561398.52849 -26105554.97249  17625054.9884   17625058.9174
  21095465.766   -23048606.34749 -17932488.46649  21095466.6764   21095471.3404
 96  4 17 17  1 29.9890000  0  7  2  7 19 18 31 27 16
  18642221.486   -12362663.20349  -9609767.04149  18642222.7784   18642227.6224
  21055432.418    -2278978.22049  -1737105.98149  21055433.9664   21055440.6204
  17513086.011   -21184651.10849 -16494321.12249  17513087.4284   17513091.2074
  19510253.280    -5035771.64349  -3916720.19549  19510256.0954   19510259.5274
  19421884.806   -18680926.92549 -14251055.55149  19421884.8974   19421888.2954
  17603573.374   -33674279.67949 -26193514.30649  17603574.4614   17603578.2714
  21087087.046   -23092636.21549 -17966797.45649  21087085.9254   21087091.2144
 96  4 17 17  1 59.9890000  0  7  2  7 19 18 31 27 16
  18621595.183   -12471058.37849  -9694230.80749  18621595.9854   18621600.7334
  21021505.121    -2457286.63549  -1876047.56149  21021503.5924   21021510.6554
  17502979.665   -21237762.78549 -16535706.84949  17502980.2664   17502984.7814
  19516098.023    -5005057.88949  -3892787.41949  19516100.2264   19516104.2874
  19421932.720   -18680673.91849 -14250858.44249  19421933.7814   19421935.8854
  17582136.577   -33786927.68149 -26281291.97049  17582138.0054   17582142.1744
  21078795.349   -23136209.67649 -18000750.81949  21078795.8704   21078802.4994
 96  4 17 17  2 29.9890000  0  7  2  7 19 18 31 27 16
  18601020.530   -12579178.74549  -9778480.44149  18601021.3574   18601026.3124
  20987585.963    -2635521.21849  -2014931.61249  20987586.8344   20987593.1264
  17492933.677   -21290545.11649 -16576835.94349  17492936.1124   17492940.5714
  19521997.961    -4974057.39549  -3868631.22649  19521999.0944   19522003.5034
  19422078.926   -18679900.73849 -14250255.98749  19422080.3084   19422083.7664
  17560746.205   -33899337.99749 -26368884.42549  17560747.2444   17560750.9184
  21070590.246   -23179326.73749 -18034348.59549  21070589.5434   21070596.5294
 96  4 17 17  2 59.9890000  0  7  2  7 19 18 31 27 16
  18580500.246   -12687012.53349  -9862506.76649  18580501.3944   18580506.3424
  20953684.068    -2813684.25149  -2153759.90549  20953684.3044   20953689.3864
  17482954.412   -21343004.18149 -16617713.14849  17482953.3284   17482958.0514
  19527954.263    -4942755.52949  -3844240.20149  19527955.5014   19527960.1574
  19422322.790   -18678608.06249 -14249248.74449  19422325.5584   19422330.2204
  17539404.400   -34011487.91549 -26456273.97449  17539405.9184   17539409.6814
  21062473.020   -23221976.96049 -18067582.50849  21062474.6634   21062476.7804
 96  4 17 17  3 29.9890000  0  7  2  7 19 18 31 27 16
  18560012.695   -12794673.88449  -9946398.72049  18560014.1164   18560019.2624
  20919770.628    -2991891.03649  -2292622.30349  20919772.4134   20919777.9574
  17473006.075   -21395259.33649 -16658431.46049  17473009.8064   17473013.8654
  19533942.682    -4911281.66849  -3819715.15149  19533945.6784   19533948.8464
  19422647.741   -18676907.32949 -14247923.54849  19422648.9974   19422653.2124
  17518093.315   -34123478.54849 -26543539.39849  17518094.5074   17518098.6534
  21054424.608   -23264257.79349 -18100528.63649  21054427.3474   21054435.3124
 96  4 17 17  3 59.9890000  0  7  2  7 19 18 31 27 16
  18539578.773   -12902056.24449 -10030073.27849  18539580.0084   18539585.0594
  20885871.415    -3170038.37349  -2431438.36849  20885871.2314   20885877.6574
  17463128.074   -21447192.04749 -16698898.51049  17463127.4684   17463131.5034
  19539981.963    -4879547.78549  -3794987.48749  19539984.1744   19539988.9714
  19423066.823   -18674707.16749 -14246209.16149  19423068.6344   19423072.0564
  17496834.615   -34235191.71249 -26630588.61749  17496836.2314   17496840.3974
  21046474.608   -23306058.82149 -18133100.90949  21046474.7514   21046478.4964
 96  4 17 17  4 29.9890000  0  7  2  7 19 18 31 27 16
  18519183.617   -13009231.89549 -10113586.77049  18519184.9834   18519189.7874
  20851969.310    -3348204.40549  -2570269.00249  20851967.6374   20851974.1164
  17453289.905   -21498870.95949 -16739167.80249  17453293.1154   17453297.4434
  19546052.179    -4847640.26549  -3770124.51649  19546055.2694   19546058.9834
  19423562.802   -18672109.43349 -14244184.97749  19423563.9754   19423567.6104
  17475618.115   -34346686.06249 -26717467.32849  17475619.6224   17475623.8524
  21038593.178   -23347464.20949 -18165364.86549  21038594.4084   21038599.7374
 96  4 17 17  4 59.9890000  0  7  2  7 19 18 31 27 16
  18498828.955   -13116196.38349 -10196935.72349  18498830.1714   18498835.1414
  20818066.807    -3526349.52749  -2709083.32149  20818068.8264   20818073.8054
  17443512.660   -21550270.24949 -16779219.20349  17443512.4384   17443516.2704
  19552164.949    -4815538.01149  -3745109.80349  19552164.9474   19552169.1634
  19424135.798   -18669092.71849 -14241834.32649  19424137.3344   19424141.8434
  17454449.124   -34457930.23349 -26804151.10049  17454450.7944   17454454.5534
  21030790.900   -23388466.29249 -18197314.55249  21030791.5014   21030797.8434
 96  4 17 17  5 29.9890000  0  7  2  7 19 18 31 27 16
  18478507.843   -13222987.21449 -10280149.35149  18478508.5374   18478513.0974
  20784168.136    -3704481.11349  -2847887.11349  20784170.8854   20784176.5244
  17433775.920   -21601413.16549 -16819070.83349  17433779.7994   17433784.0824
  19558301.741    -4783278.99649  -3719972.94549  19558303.2404   19558307.7604
  19424785.649   -18665692.36349 -14239184.72949  19424784.4964   19424786.8224
  17433320.956   -34568961.85749 -26890669.25149  17433321.7334   17433325.7634
  21023054.078   -23429115.93349 -18228989.64849  21023055.9794   21023064.4834
 96  4 17 17  5 59.9890000  0  7  2  7 19 18 31 27 16
  18458233.294   -13329528.02949 -10363168.16849  18458234.5184   18458239.4944
  20750291.415    -3882503.83649  -2986606.08649  20750293.9364   20750300.1594
  17424114.124   -21652209.49049 -16858652.40049  17424113.8724   17424118.2264
  19564488.300    -4750776.31649  -3694646.20349  19564488.9024   19564492.2324
  19425515.924   -18661835.39149 -14236179.31449  19425517.2904   19425521.5254
  17412246.235   -34679710.11549 -26976966.60349  17412247.1494   17412251.2464
  21015403.345   -23469342.16449 -18260334.79149  21015403.2274   21015407.2964
 96  4 17 17  6 29.9890000  0  7  2  7 19 18 31 27 16
  18437989.773   -13435912.83049 -10446065.41849  18437990.6924   18437995.2604
  20716425.649    -4060484.29749  -3125292.13149  20716426.0074   20716431.2874
  17414494.998   -21702758.36649 -16898041.14449  17414494.8954   17414499.2974
  19570702.590    -4718096.12449  -3669181.16349  19570706.4934   19570711.5994
  19426321.342   -18657596.65649 -14232876.44849  19426323.6574   19426328.2614
  17391207.251   -34790263.93849 -27063112.43849  17391209.4074   17391213.6284
  21007808.022   -23509233.61149 -18291419.07149  21007810.3654   21007814.9614
 96  4 17 17  6 59.9890000  0  7  2  7 19 18 31 27 16
  18417796.136   -13542030.49649 -10528754.50749  18417796.9034   18417801.5534
  20682583.494    -4238314.31849  -3263860.95549  20682585.1624   20682591.6064
  17404934.698   -21752984.92049 -16937178.73249  17404937.1124   17404941.4584
  19576978.688    -4685140.53949  -3643501.52949  19576978.0914   19576983.4594
  19427225.381   -18652867.11149 -14229191.11349  19427225.8064   19427228.9154
  17370224.740   -34900533.78049 -27149036.99449  17370225.8794   17370230.0254
  21000302.338   -23548698.62249 -18322171.04249  21000301.3914   21000306.4954
 96  4 17 17  7 29.9890000  0  7  2  7 19 18 31 27 16
  18397649.640   -13647900.86249 -10611250.89249  18397650.2124   18397655.2154
  20648763.162    -4416044.89049  -3402352.27349  20648764.5424   20648770.0284
  17395426.738   -21802943.64849 -16976107.62449  17395430.0524   17395434.3774
  19583290.055    -4651968.71049  -3617653.39649  19583290.7784   19583294.8814
  19428210.252   -18647697.70149 -14225163.00049  19428209.4014   19428212.2204
  17349285.186   -35010571.37149 -27234780.57249  17349286.3244   17349290.5354
  20992865.468   -23587776.86249 -18352621.64949  20992865.4904   20992871.7954
 96  4 17 17  7 59.9890000  0  7  2  7 19 18 31 27 16
  18377552.154   -13753513.80949 -10693546.69349  18377552.8844   18377557.6184
  20614958.991    -4593686.01949  -3540773.87749  20614960.4104   20614966.8734
  17385976.254   -21852626.64649 -17014821.65049  17385976.0794   17385979.9404
  19589643.026    -4618580.18049  -3591636.39549  19589644.2994   19589648.4024
  19429276.256   -18642083.25349 -14220788.14649  19429276.8694   19429281.1514
  17328393.265   -35120359.49049 -27320329.75749  17328394.4984   17328398.3924
  20985500.191   -23626457.03449 -18382762.09649  20985503.5634   20985509.3004
 96  4 17 17  8 29.9890000  0  7  2  7 19 18 31 27 16
  18357507.159   -13858847.32049 -10775624.74949  18357508.4604   18357513.4854
  20581172.106    -4771232.42449  -3679121.68449  20581174.9384   20581180.3104
  17376573.527   -21902028.43949 -17053316.57049  17376575.0704   17376579.2754
  19596039.794    -4584968.97349  -3565445.89349  19596040.8164   19596044.5094
  19430432.329   -18636009.12249 -14216055.07849  19430432.8664   19430436.1814
  17307554.434   -35229866.25149 -27405659.70149  17307556.0334   17307559.7374
  20978218.771   -23664733.39149 -18412587.83849  20978220.8954   20978226.7074
 96  4 17 17  8 59.9890000  0  7  2  7 19 18 31 27 16
  18337516.841   -13963898.82649 -10857483.06649  18337517.8334   18337522.9894
  20547402.007    -4948695.90149  -3817404.88649  20547404.5854   20547410.2814
  17367226.452   -21951141.74649 -17091586.68849  17367228.9324   17367233.0344
  19602472.852    -4551162.86849  -3539103.50149  19602473.7184   19602477.5974
  19431672.248   -18629486.27749 -14210972.37149  19431674.1494   19431678.7644
  17286767.414   -35339103.05849 -27490779.29349  17286768.8244   17286773.0094
  20971012.841   -23702618.72449 -18442108.90549  20971010.9794   20971016.6704
 96  4 17 17  9 29.9890000  0  7  2  7 19 18 31 27 16
  18317571.505   -14068714.93849 -10939157.96449  18317571.9264   18317576.6044
  20513643.447    -5126109.74649  -3955649.42049  20513643.0264   20513649.2434
  17357937.111   -21999973.35449 -17129637.30749  17357936.7664   17357940.7004
  19608937.312    -4517192.40149  -3512633.04749  19608938.4384   19608941.8284
  19432991.948   -18622549.45149 -14205567.09149  19432992.2414   19432997.8084
  17266026.536   -35448095.79449 -27575708.70049  17266028.2024   17266032.0564
  20963869.443   -23740144.81749 -18471350.05649  20963869.7684   20963877.1084
 96  4 17 17  9 59.9890000  0  7  2  7 19 18 31 27 16
  18297674.358   -14173269.53849 -11020629.07649  18297676.1884   18297680.6224
  20479899.640    -5303429.64449  -4093820.74149  20479900.6834   20479905.9724
  17348705.484   -22048466.75349 -17167424.38349  17348708.4344   17348712.8294
  19615443.285    -4482997.94149  -3485988.05349  19615445.3444   19615449.3404
  19434401.912   -18615155.43349 -14199805.53749  19434401.5174   19434403.6174
  17245343.206   -35556790.37149 -27660405.77549  17245344.4364   17245348.2644
  20956807.271   -23777264.42449 -18500274.46449  20956807.7104   20956812.1794
 96  4 17 17 10 29.9890000  0  7  2  7 19 18 31 27 16
  18277814.838   -14277635.95549 -11101953.55849  18277815.9084   18277820.4474
  20446166.815    -5480699.67249  -4231953.19249  20446167.0264   20446173.2924
  17339532.682   -22096686.38949 -17204998.13449  17339532.8784   17339537.1054
  19621983.599    -4448636.01949  -3459212.58049  19621984.2184   19621988.9074
  19435884.510   -18607359.15349 -14193730.51449  19435885.8204   19435889.0974
  17224700.089   -35665268.59149 -27744934.25649  17224701.8134   17224705.7504
  20949807.468   -23814042.04049 -18528932.35449  20949808.0334   20949812.5144
 96  4 17 17 10 59.9890000  0  7  2  7 19 18 31 27 16
  18257999.194   -14381770.07749 -11183097.03549  18257999.6874   18258004.8564
  20412451.801    -5657859.22849  -4369999.55549  20412454.6464   20412460.2754
  17330417.527   -22144572.90549 -17242312.31849  17330420.3934   17330425.0544
  19628565.226    -4414043.50649  -3432257.42049  19628567.0294   19628570.8564
  19437452.942   -18599111.08249 -14187303.48449  19437455.0814   19437457.6844
  17204107.373   -35773487.53449 -27829260.71249  17204108.1264   17204112.2134
  20942885.499   -23850418.14149 -18557277.38149  20942885.4984   20942892.0694
 96  4 17 17 11 29.9890000  0  7  2  7 19 18 31 27 16
  18238228.723   -14485661.91149 -11264051.71349  18238229.6394   18238234.6154
  20378763.506    -5834898.43349  -4507952.15849  20378765.2424   20378770.5274
  17321371.349   -22192117.04349 -17279359.70449  17321372.8384   17321377.3194
  19635196.564    -4379199.59049  -3405106.35549  19635197.1074   19635202.0464
  19439110.869   -18590401.54549 -14180516.84849  19439111.1764   19439116.7724
  17183567.040   -35881423.31949 -27913366.51949  17183568.7154   17183572.9504
  20936043.073   -23886371.79849 -18585293.26649  20936044.9984   20936051.7374
 96  4 17 17 11 59.9880000  0  7  2  7 19 18 31 27 16
  18218499.897   -14589336.26749 -11344836.92049  18218501.1654   18218505.7514
  20345095.232    -6011835.22649  -4645824.95349  20345095.4314   20345101.8314
  17312380.145   -22239367.73949 -17316178.44049  17312381.1514   17312385.7884
  19641865.647    -4344146.35849  -3377792.19649  19641868.0084   19641871.8614
  19440844.941   -18581281.02749 -14173410.00549  19440847.3634   19440852.5894
  17163074.156   -35989115.98049 -27997282.87949  17163075.5144   17163079.6074
  20929275.597   -23921929.97149 -18613000.96249  20929276.9514   20929283.1404
 96  4 17 17 12 29.9880000  0  7  2  7 19 18 31 27 16
  18198809.610   -14692811.95049 -11425467.32349  18198810.5704   18198815.2014
  20311436.035    -6188708.15749  -4783647.98849  20311437.2254   20311442.0764
  17303436.288   -22286362.25349 -17352797.55249  17303438.5194   17303442.9504
  19648570.297    -4308926.31549  -3350348.05349  19648569.4884   19648573.9834
  19442655.769   -18571785.69449 -14166011.06749  19442653.6414   19442658.4644
  17142619.223   -36096610.42249 -28081044.78949  17142620.1604   17142623.9824
  20922580.123   -23957118.00049 -18640420.22149  20922583.3844   20922586.9214
 96  4 17 17 12 59.9880000  0  7  2  7 19 18 31 27 16
  18179167.142   -14796033.74249 -11505899.88749  18179168.0404   18179172.7614
  20277796.122    -6365483.42349  -4921394.89849  20277797.3934   20277804.6424
  17294550.106   -22333064.36149 -17389188.81549  17294551.5774   17294556.2694
  19655304.751    -4273525.06249  -3322762.70849  19655306.7554   19655311.7074
  19444534.902   -18561900.00849 -14158307.97749  19444535.2844   19444539.8624
  17122210.307   -36203856.26349 -28164612.98149  17122211.9264   17122216.0694
  20915967.382   -23991887.68549 -18667513.49049  20915965.2144   20915971.2794
 96  4 17 17 13 29.9880000  0  7  2  7 19 18 31 27 16
  18159579.674   -14898966.00149 -11586106.85049  18159580.6014   18159585.1484
  20244182.640    -6542130.90849  -5059042.26949  20244183.5354   20244189.7274
  17285727.415   -22379431.68349 -17425319.21449  17285728.2674   17285732.7974
  19662078.132    -4237929.33649  -3295025.82549  19662080.0204   19662084.9924
  19446496.557   -18551593.34749 -14150276.83949  19446496.2844   19446500.2304
  17101855.787   -36310816.77849 -28247958.84749  17101857.7954   17101861.9154
  20909437.538   -24026199.19849 -18694249.76949  20909437.9814   20909444.1454
 96  4 17 17 13 59.9880000  0  7  2  7 19 18 31 27 16
  18140044.938   -15001619.81349 -11666096.83749  18140046.0814   18140050.7684
  20210592.678    -6718653.98149  -5196592.67949  20210592.2104   20210597.1214
  17276964.681   -22425466.41449 -17461190.44649  17276967.8964   17276972.6234
  19668887.228    -4202155.32249  -3267150.02249  19668887.3694   19668893.1884
  19448531.921   -18540883.01249 -14141931.15649  19448534.4544   19448538.6284
  17081554.734   -36417502.69249 -28331090.73149  17081556.4724   17081560.2424
  20902990.957   -24060069.22549 -18720642.06449  20902991.1224   20902993.0184
 96  4 17 17 14 29.9880000  0  7  2  7 19 18 31 27 16
  18120552.216   -15104054.48949 -11745916.07549  18120553.5384   18120558.3274
  20177011.796    -6895112.36449  -5334092.68049  20177013.3664   20177019.5434
  17268263.201   -22471206.39149 -17496831.99149  17268263.8794   17268268.4264
  19675716.957    -4166262.73349  -3239181.81049  19675718.7734   19675722.5774
  19450638.505   -18529813.69949 -14133305.76149  19450641.0504   19450645.4424
  17061296.778   -36523958.35949 -28414043.19649  17061298.7764   17061302.5594
  20896614.528   -24093567.37249 -18746744.49749  20896615.9554   20896625.4124
 96  4 17 17 14 59.9880000  0  7  2  7 19 18 31 27 16
  18101102.731   -15206264.12149 -11825559.94349  18101104.0094   18101108.3274
  20143451.175    -7071470.52149  -5471514.58749  20143452.6324   20143459.9354
  17259620.163   -22516622.81949 -17532221.43149  17259621.7004   17259626.3264
  19682574.106    -4130218.38749  -3211095.34649  19682576.7984   19682582.2514
  19452823.113   -18518351.71049 -14124374.37849  19452822.4554   19452827.6814
  17041091.831   -36630138.99049 -28496781.35249  17041093.2224   17041096.9564
  20890311.438   -24126695.65949 -18772558.79149  20890313.4954   20890316.8434
 96  4 17 17 15 29.9880000  0  7  2  7 19 18 31 27 16
  18081683.437   -15308313.39049 -11905078.86349  18081684.1694   18081689.1144
  20109901.540    -7247774.74349  -5608894.44949  20109903.4294   20109909.3094
  17251028.781   -22561769.49749 -17567400.67749  17251030.2664   17251034.9164
  19689458.580    -4094053.97649  -3182915.34249  19689459.0474   19689463.2464
  19455071.125   -18506541.33249 -14115171.52749  19455070.8964   19455075.1814
  17020929.172   -36736090.29549 -28579340.81649  17020931.1504   17020935.1674
  20884061.668   -24159537.44849 -18798149.85949  20884061.9964   20884070.4224
 96  4 17 17 15 59.9880000  0  7  2  7 19 18 31 27 16
  18062300.917   -15410168.79349 -11984446.71249  18062301.6214   18062307.0364
  20076373.507    -7423965.92149  -5746186.23249  20076375.9294   20076381.0314
  17242493.913   -22606622.52449 -17602351.10149  17242495.3084   17242499.8034
  19696375.456    -4057714.06849  -3154598.56049  19696374.4604   19696379.0164
  19457387.182   -18494346.59049 -14105669.16549  19457390.3474   19457395.0174
  17000821.317   -36841762.34649 -28661682.68149  17000822.5494   17000826.6094
  20877870.587   -24192073.63449 -18823502.76249  20877870.3784   20877875.9554
 96  4 17 17 16 29.9880000  0  7  2  7 19 18 31 27 16
  18042948.580   -15511864.67549 -12063690.26549  18042949.7574   18042954.6644
  20042864.850    -7600063.87849  -5883405.38949  20042865.0474   20042871.3954
  17234006.353   -22651226.83149 -17637107.70949  17234007.4014   17234011.6674
  19703315.543    -4021219.72849  -3126161.46649  19703319.5354   19703324.4324
  19459778.457   -18481790.82949 -14095885.50249  19459779.3224   19459784.3364
  16980760.379   -36947181.78349 -28743827.70449  16980761.8304   16980765.8034
  20871733.901   -24224330.91949 -18848638.32449  20871734.7424   20871740.1594
 96  4 17 17 16 59.9880000  0  7  2  7 19 18 31 27 16
  18023638.490   -15613341.98949 -12142763.50149  18023639.4754   18023644.3044
  20009384.789    -7776002.40549  -6020500.29349  20009385.5984   20009391.8424
  17225573.154   -22695533.32449 -17671632.27349  17225575.8734   17225580.3014
  19710305.190    -3984510.77149  -3097557.13249  19710304.4164   19710308.7614
  19462243.702   -18468818.93049 -14085777.58349  19462247.7774   19462252.9504
  16960759.343   -37052287.20549 -28825728.03449  16960760.8884   16960765.0134
  20865660.569   -24256243.42249 -18873505.27749  20865659.9174   20865664.0544
 96  4 17 17 17 29.9880000  0  7  2  7 19 18 31 27 16
  18004375.476   -15714569.20449 -12221641.86149  18004376.2034   18004381.0764
  19975938.310    -7951766.04949  -6157458.92949  19975938.8024   19975944.2624
  17217205.475   -22739521.70149 -17705908.94249  17217205.1354   17217209.9464
  19717334.839    -3947562.58649  -3068766.37749  19717335.7144   19717340.8464
  19464794.951   -18455416.84149 -14075334.43749  19464799.2764   19464803.1164
  16940820.147   -37157068.05349 -28907375.45549  16940821.9034   16940825.7864
  20859662.535   -24287760.05449 -18898063.71249  20859662.6524   20859672.3534
 96  4 17 17 17 59.9880000  0  7  2  7 19 18 31 27 16
  17985155.698   -15815563.69849 -12300338.87549  17985157.9154   17985162.7104
  19942518.309    -8127381.30249  -6294301.95249  19942520.3194   19942525.9734
  17208889.094   -22783217.22949 -17739957.42049  17208890.4214   17208894.6584
  19724402.324    -3910421.98549  -3039825.69849  19724403.9474   19724408.5384
  19467424.867   -18441622.17149 -14064585.39149  19467424.7584   19467428.0024
  16920936.400   -37261554.37049 -28988793.37249  16920938.6374   16920942.5384
  20853740.982   -24318879.73149 -18922312.92049  20853741.2944   20853745.7534
 96  4 17 17 18 29.9880000  0  7  2  7 19 18 31 27 16
  17965986.770   -15916302.49949 -12378836.64149  17965987.6344   17965992.5684
  19909125.920    -8302855.99149  -6431035.44549  19909128.4914   19909133.6244
  17200634.732   -22826590.71149 -17773754.95449  17200636.5144   17200640.8884
  19731503.495    -3873098.97649  -3010742.86649  19731506.3684   19731510.6894
  19470125.168   -18427429.60249 -14053526.29249  19470124.0634   19470129.3184
  16901111.150   -37365742.74149 -29069979.12049  16901112.5124   16901116.6454
  20847897.319   -24349585.17649 -18946239.21649  20847897.9964   20847904.5134
 96  4 17 17 18 59.9880000  0  7  2  7 19 18 31 27 16
  17946865.335   -16016787.93249 -12457136.98149  17946866.2234   17946870.5484
  19875758.235    -8478206.33849  -6567672.04849  19875760.3924   19875765.8044
  17192443.570   -22869638.58749 -17807298.76649  17192445.0464   17192449.2034
  19738636.490    -3835624.34249  -2981541.90249  19738636.7974   19738641.9504
  19472893.906   -18412862.85749 -14042175.63749  19472895.7094   19472900.8864
  16881340.577   -37469642.08749 -29150939.65249  16881341.1284   16881345.2034
  20842129.473   -24379897.57849 -18969859.33449  20842129.6214   20842136.4974
 96  4 17 17 19 29.9880000  0  7  2  7 19 18 31 27 16
  17927790.328   -16117027.07049 -12535245.39949  17927791.2444   17927796.2524
  19842412.082    -8653444.76749  -6704221.42949  19842413.1644   19842418.5914
  17184311.132   -22912370.69449 -17840596.52149  17184313.4794   17184317.8674
  19745791.650    -3798020.69149  -2952240.38849  19745792.7974   19745797.4574
  19475734.712   -18397940.77949 -14030548.08349  19475736.1484   19475740.8154
  16861620.888   -37573262.40549 -29231682.75949  16861622.7604   16861626.9284
  20836434.667   -24409834.83349 -18993187.14649  20836434.0144   20836437.8394
 96  4 17 17 19 59.9880000  0  7  2  7 19 18 31 27 16
  17908757.170   -16217040.52549 -12613177.96949  17908759.6294   17908764.3714
  19809084.734    -8828580.21549  -6840690.55549  19809086.5084   19809091.9724
  17176236.291   -22954804.02149 -17873661.46249  17176238.6254   17176243.1164
  19752963.187    -3760338.49249  -2922877.68949  19752963.5004   19752968.0504
  19478637.383   -18382691.67449 -14018665.71349  19478639.5324   19478642.8774
  16841951.269   -37676628.46149 -29312227.74349  16841952.8304   16841956.8304
  20830796.442   -24439452.56149 -19016265.91349  20830797.1724   20830803.2184
 96  4 17 17 20 29.9880000  0  7  2  7 19 18 31 27 16
  17889762.847   -16316858.53849 -12690958.23949  17889764.5324   17889769.1914
  19775775.773    -9003618.67249  -6977084.10949  19775777.9324   19775783.7524
  17168216.047   -22996952.66049 -17906504.57349  17168218.1544   17168222.5814
  19760143.168    -3722591.42549  -2893464.45449  19760146.6574   19760150.4904
  19481598.522   -18367128.33849 -14006538.46649  19481599.5224   19481603.8814
  16822327.058   -37779754.69349 -29392585.85149  16822328.5134   16822332.5154
  20825210.828   -24468793.53049 -19039129.06049  20825211.2094   20825218.7624
 96  4 17 17 20 59.9880000  0  7  2  7 19 18 31 27 16
  17870818.392   -16416412.58549 -12768532.82249  17870819.9904   17870824.9204
  19742503.618    -9178473.74249  -7113334.78149  19742503.3844   19742509.3364
  17160261.302   -23038761.07149 -17939082.57349  17160262.3184   17160266.6454
  19767359.073    -3684691.30049  -2863931.93349  19767358.4274   19767363.3684
  19484632.842   -18351174.17049 -13994106.69449  19484635.5214   19484640.1114
  16802763.133   -37882565.30349 -29472698.01249  16802764.5454   16802768.3194
  20819697.221   -24497787.55049 -19061721.84549  20819696.2804   20819701.5064
 96  4 17 17 21 29.9880000  0  7  2  7 19 18 31 27 16
  17851913.920   -16515755.58149 -12845942.94849  17851915.5974   17851920.6864
  19709254.802    -9353192.61549  -7249479.33249  19709255.3254   19709261.2244
  17152362.669   -23080276.61649 -17971432.36349  17152362.1464   17152366.4524
  19774590.966    -3646682.59949  -2834314.81449  19774591.9794   19774595.3094
  19487737.380   -18334876.36049 -13981407.15649  19487737.5474   19487741.9144
  16783248.075   -37985112.59649 -29552604.99849  16783250.2394   16783254.1124
  20814234.019   -24526492.40149 -19084089.23449  20814236.0694   20814241.9844
 96  4 17 17 21 59.9880000  0  7  2  7 19 18 31 27 16
  17833057.228   -16614851.04449 -12923160.19449  17833058.6214   17833063.5224
  19676039.487    -9527727.45049  -7385480.45249  19676042.3744   19676048.9034
  17144524.952   -23121455.71249 -18003519.97749  17144525.7114   17144530.3754
  19781852.711    -3608517.28549  -2804575.66349  19781854.2884   19781859.4674
  19490910.716   -18318197.26249 -13968410.50049  19490911.1444   19490914.8274
  16763792.186   -38087356.12449 -29632275.28649  16763794.0994   16763798.2214
  20808830.920   -24554873.71049 -19106204.63049  20808831.4824   20808841.1904
 96  4 17 17 22 29.9880000  0  7  2  7 19 18 31 27 16
  17814236.267   -16713754.30949 -13000227.67249  17814237.7704   17814242.5624
  19642854.212    -9702142.52449  -7521388.25549  19642852.6374   19642858.2014
  17136742.285   -23162351.15749 -18035386.57349  17136743.6344   17136748.0904
  19789140.581    -3570226.88749  -2774739.05549  19789140.6864   19789145.7324
  19494146.931   -18301190.76049 -13955158.72649  19494147.7104   19494151.8584
  16744388.687   -38189331.10249 -29711736.31049  16744388.7814   16744392.7694
  20803487.362   -24582967.94549 -19128096.28849  20803486.0664   20803491.3294
 96  4 17 17 22 59.9870000  0  7  2  7 19 18 31 27 16
  17795463.607   -16812409.58249 -13077101.91649  17795463.9854   17795469.2174
  19609687.922    -9876401.15449  -7657174.15949  19609691.8434   19609698.2124
  17129023.224   -23202916.11649 -18066995.64149  17129024.4024   17129028.7724
  19796453.641    -3531775.46049  -2744776.95849  19796457.5894   19796462.6714
  19497453.409   -18283815.39349 -13941619.52549  19497453.2844   19497459.5224
  16725041.991   -38290988.76449 -29790950.07849  16725043.9734   16725048.0264
  20798205.240   -24610724.70549 -19149724.91649  20798204.5824   20798208.4784
 96  4 17 17 23 29.9870000  0  7  2  7 19 18 31 27 16
  17776726.435   -16910875.01449 -13153828.21949  17776727.0594   17776731.8684
  19576551.793   -10050554.64449  -7792878.13349  19576551.5144   19576557.9844
  17121358.732   -23243192.48949 -18098379.84349  17121360.1954   17121364.7894
  19803793.617    -3493227.68849  -2714739.79849  19803792.9934   19803798.3794
  19500820.350   -18266119.43349 -13927830.51049  19500822.3394   19500826.1344
  16705748.453   -38392378.54449 -29869955.10549  16705750.0864   16705754.2444
  20792976.363   -24638191.16949 -19171127.36449  20792978.2464   20792986.9364
 96  4 17 17 23 59.9870000  0  7  2  7 19 18 31 27 16
  17758029.297   -17009123.15049 -13230385.20849  17758030.7584   17758035.9214
  19543433.364   -10224573.65049  -7928477.31949  19543437.1984   19543443.0304
  17113751.104   -23283168.52749 -18129530.01249  17113752.9884   17113757.5654
  19811148.749    -3454560.44049  -2684609.54249  19811151.6344   19811157.0524
  19504252.530   -18248083.65549 -13913776.70149  19504254.2044   19504256.8074
  16686513.415   -38493462.85749 -29948722.10649  16686514.4224   16686518.5324
  20787809.480   -24665334.52249 -19192278.12249  20787813.3844   20787819.8144
 96  4 17 17 24 29.9870000  0  7  2  7 19 18 31 27 16
  17739370.981   -17107173.59849 -13306788.15749  17739372.5624   17739377.2714
  19510346.522   -10398463.49149  -8063975.85549  19510347.1744   19510352.4184
  17106198.381   -23322858.20149 -18160457.03849  17106200.5534   17106204.8054
  19818529.786    -3415785.29149  -2654395.19649  19818529.7734   19818535.2134
  19507748.794   -18229713.49749 -13899462.31949  19507749.4014   19507752.9104
  16667334.046   -38594248.14049 -30027256.09849  16667335.8694   16667339.6954
  20782708.992   -24692158.13249 -19213179.66149  20782709.7004   20782714.2494
 96  4 17 17 24 59.9870000  0  7  2  7 19 18 31 27 16
  17720759.911   -17204981.97749 -13383002.47649  17720760.4084   17720765.1234
  19477292.059   -10572158.49349  -8199322.57449  19477293.7684   19477300.0014
  17098709.725   -23362213.11549 -18191123.22049  17098711.3704   17098715.9354
  19825936.589    -3376859.69849  -2624063.61749  19825937.8874   19825942.0144
  19511316.909   -18210962.88949 -13884851.52149  19511317.6144   19511321.6914
  16648220.359   -38694688.60049 -30105521.39449  16648222.6614   16648226.5584
  20777674.091   -24718615.19849 -19233795.55249  20777675.3834   20777682.1574
 96  4 17 17 25 29.9870000  0  7  2  7 19 18 31 27 16
  17702193.284   -17302547.71349 -13459027.72849  17702194.0314   17702199.0444
  19444280.602   -10745638.25349  -8334501.58249  19444281.4274   19444288.0044
  17091285.649   -23401226.96449 -18221523.63549  17091287.4464   17091291.7054
  19833372.854    -3337771.97349  -2593605.71249  19833375.5984   19833380.2584
  19514956.828   -18191833.80549 -13869945.79949  19514958.1774   19514962.8814
  16629175.003   -38794776.90849 -30183512.28849  16629176.4164   16629180.5664
  20772710.399   -24744699.19249 -19254120.80449  20772710.0144   20772715.5354
 96  4 17 17 25 59.9870000  0  7  2  7 19 18 31 27 16
  17683672.428   -17399871.34349 -13534864.31749  17683673.9414   17683678.5814
  19411310.040   -10918913.07949  -8469520.89149  19411308.8674   19411315.0534
  17083926.978   -23439898.60949 -18251657.39549  17083928.2704   17083933.4054
  19840845.077    -3298505.84349  -2563008.76749  19840847.7764   19840853.4564
  19518668.213   -18172331.63549 -13854749.31349  19518668.5144   19518673.3274
  16610195.274   -38894513.15749 -30261228.85249  16610197.2314   16610201.3204
  20767814.203   -24770421.66349 -19274164.36449  20767815.9744   20767821.4174
 96  4 17 17 26 29.9870000  0  7  2  7 19 18 31 27 16
  17665187.407   -17497018.38649 -13610563.31449  17665187.5984   17665192.4314
  19378363.998   -11092028.87149  -8604416.27849  19378365.2444   19378371.8444
  17076624.918   -23478270.73749 -18281557.77549  17076626.5574   17076630.7314
  19848341.649    -3259128.46149  -2532325.15249  19848341.9484   19848346.3574
  19522439.381   -18152511.44749 -13839305.08249  19522439.6754   19522445.1884
  16591270.350   -38993968.46649 -30338726.49949  16591271.3874   16591275.4984
  20762979.483   -24795841.31049 -19293971.92649  20762979.9644   20762986.7284
 96  4 17 17 26 59.9870000  0  7  2  7 19 18 31 27 16
  17646739.931   -17593961.25449 -13686103.21449  17646739.9494   17646745.1984
  19345450.033   -11264990.94749  -8739191.89549  19345452.6364   19345457.6254
  17069382.955   -23516327.21949 -18311212.18849  17069384.3904   17069389.0114
  19855854.234    -3219639.07149  -2501554.24149  19855856.0534   19855861.2624
  19526272.926   -18132364.22349 -13823605.98849  19526274.1114   19526277.7834
  16572398.703   -39093139.71549 -30416002.80549  16572399.6854   16572403.8654
  20758197.765   -24820953.12049 -19313539.61549  20758199.7054   20758205.4284
 96  4 17 17 27 29.9870000  0  7  2  7 19 18 31 27 16
  17628337.476   -17690660.17349 -13761453.02249  17628338.8714   17628343.6034
  19312572.350   -11437770.04949  -8873824.94349  19312573.3264   19312579.9474
  17062205.891   -23554037.88249 -18340597.13949  17062208.4914   17062212.4864
  19863395.222    -3180007.07849  -2470672.21349  19863397.0504   19863402.2904
  19530179.726   -18111844.53349 -13807616.67049  19530178.5794   19530183.7694
  16553585.716   -39192001.36749 -30493037.86749  16553586.8634   16553591.0194
  20753484.508   -24845728.50349 -19332845.19149  20753485.4134   20753491.4144
 96  4 17 17 27 59.9870000  0  7  2  7 19 18 31 27 16
  17609968.014   -17787193.36849 -13836673.69449  17609968.9574   17609973.7394
  19279714.515   -11610429.10649  -9008364.41449  19279716.7694   19279722.7884
  17055081.764   -23591475.33749 -18369769.20749  17055084.2394   17055088.6614
  19870948.528    -3140317.73149  -2439745.49649  19870950.8144   19870955.1594
  19534140.478   -18091032.98349 -13791399.93249  19534140.5494   19534143.7944
  16534818.030   -39290626.49449 -30569888.62449  16534819.2484   16534823.3834
  20748821.053   -24870240.41049 -19351945.42349  20748822.3714   20748827.0444
 96  4 17 17 28 29.9870000  0  7  2  7 19 18 31 27 16
  17591649.473   -17883461.49149 -13911687.81449  17591649.9054   17591654.5074
  19246903.219   -11782858.87449  -9142725.23249  19246905.0784   19246910.9584
  17048029.155   -23628535.88949 -18398647.57149  17048031.8314   17048036.2404
  19878526.463    -3100499.57449  -2408718.39949  19878528.0414   19878533.1054
  19538169.785   -18069838.21549 -13774884.58049  19538171.2144   19538177.5554
  16516113.538   -39388918.95449 -30646480.15749  16516114.8034   16516118.7934
  20744222.696   -24894390.59449 -19370763.82949  20744225.7934   20744232.4254
 96  4 17 17 28 59.9870000  0  7  2  7 19 18 31 27 16
  17573372.578   -17979506.03249 -13986527.71649  17573373.2894   17573377.7594
  19214127.610   -11955106.60449  -9276944.23449  19214127.3714   19214133.7684
  17041037.780   -23665280.38949 -18427279.68049  17041039.6004   17041043.9934
  19886118.419    -3060598.50149  -2377626.69149  19886119.9824   19886124.4724
  19542266.203   -18048319.82149 -13758117.05849  19542266.9784   19542272.6014
  16497466.213   -39486910.66949 -30722837.34549  16497467.5764   16497471.5364
  20739690.797   -24918230.67549 -19389340.54549  20739690.1944   20739695.1064
 96  4 17 17 29 29.9870000  0  7  2  7 19 18 31 27 16
  17555130.152   -18075371.65649 -14061228.20749  17555130.6404   17555135.3294
  19181383.868   -12127177.30249  -9411025.26149  19181382.9674   19181388.8114
  17034100.508   -23701743.05449 -18455692.16049  17034101.2554   17034105.4804
  19893718.510    -3020648.71949  -2346497.05349  19893722.8344   19893727.8414
  19546413.974   -18026527.13049 -13741135.76849  19546414.2774   19546419.9044
  16478873.360   -39584619.37849 -30798974.00149  16478874.1924   16478878.2374
  20735203.074   -24941798.40949 -19407705.07549  20735204.9084   20735211.5714
 96  4 17 17 29 59.9870000  0  7  2  7 19 18 31 27 16
  17536923.465   -18171044.09649 -14135778.16449  17536924.8164   17536929.4204
  19148671.712   -12299062.18549  -9544961.48449  19148674.2214   19148680.5474
  17027216.599   -23737910.91849 -18483874.93549  17027218.3824   17027223.3204
  19901328.498    -2980648.40449  -2315328.03349  19901334.6284   19901339.5514
  19550610.233   -18004469.59349 -13723948.15749  19550612.2004   19550616.8604
  16460337.139   -39682022.15049 -30874872.28049  16460339.0434   16460343.2534
  20730770.084   -24965095.31549 -19425858.51049  20730771.4914   20730776.5174
 96  4 17 17 30 29.9870000  0  7  2  7 19 18 31 27 16
  17518759.001   -18266505.72949 -14210163.85349  17518758.9494   17518763.5154
  19115995.908   -12470785.04949  -9678771.48349  19115997.1604   19116002.8734
  17020389.941   -23773790.95649 -18511833.42149  17020390.9164   17020395.6224
  19908956.771    -2940586.72249  -2284111.20149  19908957.7454   19908963.2314
  19554860.243   -17982139.89149 -13706548.42749  19554861.9424   19554865.4364
  16441863.196   -39779105.86849 -30950521.93349  16441864.8574   16441868.8414
  20726387.587   -24988125.47849 -19443804.16149  20726390.3334   20726392.3044
 96  4 17 17 30 59.9870000  0  7  2  7 19 18 31 27 16
  17500648.178   -18361676.02649 -14284322.53649  17500648.7384   17500653.2714
  19083363.367   -12642270.01849  -9812396.11749  19083364.9514   19083369.9524
  17013629.940   -23809313.55149 -18539513.38949  17013630.9364   17013635.7224
  19916612.020    -2900358.75549  -2252764.79949  19916612.8564   19916617.5954
  19559176.787   -17959459.38749 -13688875.37049  19559177.3174   19559181.9974
  16423468.095   -39875775.70149 -31025849.08449  16423468.8404   16423473.1784
  20722069.972   -25010819.80249 -19461488.07149  20722069.7804   20722077.8924
 96  4 17 17 31 29.9870000  0  7  2  7 19 18 31 27 16
  17482584.750   -18456599.05649 -14358288.53849  17482585.4924   17482590.4744
  19050766.381   -12813557.15149  -9945866.56749  19050769.2604   19050775.8064
  17006932.883   -23844512.14449 -18566940.88449  17006933.0734   17006937.3654
  19924289.213    -2860009.05349  -2221323.53849  19924291.0364   19924296.0634
  19563552.791   -17936462.52549 -13670955.78449  19563553.5514   19563558.7804
  16405141.271   -39972079.19249 -31100890.77149  16405143.0904   16405147.1044
  20717808.201   -25033219.42449 -19478942.40049  20717808.6804   20717812.5714
 96  4 17 17 31 59.9870000  0  7  2  7 19 18 31 27 16
  17464565.476   -18551287.59449 -14432071.81749  17464566.8734   17464571.5974
  19018205.703   -12984674.99349 -10079205.11249  19018206.9774   19018212.7174
  17000294.264   -23879394.83349 -18594122.22049  17000294.9254   17000299.6884
  19931985.878    -2819553.03449  -2189799.41349  19931989.6984   19931994.6854
  19567987.648   -17913158.35449 -13652796.74749  19567989.2054   19567993.1284
  16386883.043   -40068031.68349 -31175658.95549  16386883.9894   16386888.3484
  20713601.301   -25055327.42449 -19496169.37449  20713600.5914   20713606.0424
 96  4 17 17 32 29.9870000  0  7  2  7 19 18 31 27 16
  17446585.558   -18645776.05949 -14505699.19549  17446586.2344   17446591.0244
  18985670.756   -13155640.95549 -10212425.31249  18985673.3474   18985679.2344
  16993713.554   -23913978.23149 -18621070.34149  16993714.3224   16993718.5824
  19939701.976    -2779014.73349  -2158211.18049  19939703.6194   19939708.5624
  19572478.081   -17889566.14249 -13634413.23849  19572478.0664   19572482.5154
  16368684.399   -40163663.48149 -31250177.24549  16368685.7554   16368689.9334
  20709443.113   -25077160.99649 -19513182.63249  20709445.9304   20709452.6154
 96  4 17 17 32 59.9870000  0  7  2  7 19 18 31 27 16
  17428631.616   -18740119.33749 -14579213.43649  17428633.4164   17428637.8434
  18953166.586   -13326456.35449 -10345528.18649  18953167.6344   18953173.8054
  16987187.905   -23948272.30149 -18647793.00549  16987188.2244   16987192.6244
  19947424.256    -2738433.84649  -2126589.77049  19947425.3374   19947431.0054
  19577018.540   -17865705.45149 -13615820.55849  19577018.4174   19577022.9234
  16350537.864   -40259026.05049 -31324485.75049  16350538.8774   16350543.0594
  20705335.899   -25098745.81949 -19530002.06749  20705338.3264   20705345.6814
 96  4 17 17 33 29.9870000  0  7  2  7 19 18 31 27 16
  17410711.908   -18834294.12449 -14652596.38949  17410712.7234   17410717.2934
  18920695.874   -13497093.26249 -10478491.98949  18920697.0084   18920702.7954
  16980723.346   -23982241.44049 -18674262.48049  16980723.9324   16980728.8554
  19955153.133    -2697814.02449  -2094938.02349  19955156.5764   19955161.8784
  19581615.044   -17841547.54149 -13596996.24449  19581616.2804   19581619.2254
  16332444.914   -40354101.63449 -31398570.62749  16332446.6824   16332450.7684
  20701280.263   -25120051.32349 -19546603.80449  20701283.7284   20701289.3284
 96  4 17 17 33 59.9860000  0  7  2  7 19 18 31 27 16
  17392833.695   -18928243.84149 -14725803.96949  17392834.5074   17392839.1504
  18888268.158   -13667498.65649 -10611275.39149  18888269.8674   18888275.0964
  16974329.524   -24015842.79549 -18700445.37649  16974329.9864   16974334.5964
  19962897.416    -2657119.31249  -2063227.92249  19962900.0124   19962905.6594
  19586275.154   -17817054.85449 -13577911.10049  19586276.3934   19586280.6194
  16314417.520   -40448838.95449 -31472391.92449  16314418.9304   16314422.7854
  20697286.263   -25141050.94149 -19562967.17349  20697287.8424   20697295.0784
 96  4 17 17 34 29.9860000  0  7  2  7 19 18 31 27 16
  17374985.600   -19022034.67649 -14798887.73549  17374986.8874   17374991.4544
  18855877.693   -13837720.83849 -10743916.02849  18855876.8334   18855882.4184
  16967994.081   -24049128.47949 -18726382.29749  16967995.7454   16968000.7074
  19970648.489    -2616393.42749  -2031493.53149  19970650.2704   19970654.6844
  19590992.351   -17792273.76449 -13558601.18449  19590993.0924   19590997.3194
  16296442.332   -40543296.84649 -31545995.48849  16296444.1244   16296447.8944
  20693334.288   -25161813.55449 -19579145.90949  20693336.6504   20693342.1694
 96  4 17 17 34 59.9860000  0  7  2  7 19 18 31 27 16
  17357182.836   -19115591.43749 -14871789.10449  17357183.4454   17357188.1464
  18823532.077   -14007687.40149 -10876357.47549  18823533.9074   18823539.3184
  16961731.953   -24082037.88749 -18752026.01049  16961733.1754   16961738.1254
  19978419.325    -2575566.16849  -1999680.13749  19978419.2384   19978424.4254
  19595771.074   -17767147.11849 -13539022.05349  19595773.4984   19595778.6044
  16278535.522   -40637393.22349 -31619317.34549  16278538.1144   16278542.3254
  20689439.048   -25182278.12349 -19595092.37049  20689443.0124   20689450.4754
 96  4 17 17 35 29.9860000  0  7  2  7 19 18 31 27 16
  17339414.975   -19208960.59149 -14944544.29649  17339415.9604   17339420.9584
  18791221.879   -14177475.42349 -11008659.81149  18791224.5824   18791229.7784
  16955525.560   -24114655.29149 -18777442.19449  16955526.5324   16955531.2004
  19986196.006    -2534697.64149  -1967834.59049  19986196.5714   19986201.1774
  19600601.201   -17741771.36949 -13519248.78149  19600603.4754   19600606.8724
  16260691.423   -40731171.07849 -31692391.00649  16260692.7554   16260696.8394
  20685591.641   -25202524.87949 -19610869.14249  20685591.3394   20685597.6834
 96  4 17 17 35 59.9860000  0  7  2  7 19 18 31 27 16
  17321686.742   -19302119.97349 -15017136.02749  17321688.4344   17321693.2604
  18758956.338   -14347042.81249 -11140790.22749  18758956.7864   18758962.3134
  16949381.357   -24146941.80549 -18802600.53949  16949382.7984   16949387.6594
  19993988.548    -2493729.51249  -1935911.44249  19993991.9004   19993997.3774
  19605480.383   -17716130.28749 -13499268.75949  19605481.4394   19605486.0024
  16242913.479   -40824594.22149 -31765188.27249  16242914.9034   16242919.1564
  20681779.184   -25222522.94249 -19626452.08449  20681782.6924   20681789.6364
 96  4 17 17 36 29.9860000  0  7  2  7 19 18 31 27 16
  17303991.674   -19395111.07549 -15089596.62849  17303992.9424   17303997.3934
  18726724.965   -14516421.38949 -11272773.50849  18726724.6404   18726730.7364
  16943293.711   -24178931.08149 -18827527.27349  16943295.6574   16943299.9044
  20001798.831    -2452691.65749  -1903933.95749  20001801.1284   20001806.5864
  19610405.676   -17690261.62749 -13479111.40649  19610405.6184   19610409.7794
  16225195.943   -40917696.46149 -31837735.48449  16225198.1364   16225202.2904
  20678022.250   -25242290.86049 -19641855.69649  20678023.4154   20678032.4314
 96  4 17 17 36 59.9860000  0  7  2  7 19 18 31 27 16
  17286333.975   -19487900.37249 -15161899.97649  17286335.3414   17286339.9764
  18694530.115   -14685590.71649 -11404593.73849  18694532.7044   18694538.4874
  16937265.917   -24210611.17349 -18852213.08049  16937267.0924   16937271.1124
  20009622.777    -2411580.10649  -1871899.03949  20009624.2094   20009630.6244
  19615371.853   -17664148.90249 -13458763.87649  19615373.3994   19615378.3424
  16207544.840   -41010451.05849 -31910011.79549  16207547.6454   16207551.9394
  20674309.062   -25261809.59649 -19657065.16849  20674310.3504   20674314.4904
 96  4 17 17 37 29.9860000  0  7  2  7 19 18 31 27 16
  17268731.708   -19580403.94149 -15233980.68349  17268732.5014   17268736.9494
  18662399.457   -14854448.08549 -11536170.88449  18662400.3534   18662406.7094
  16931313.738   -24241889.37749 -18876585.72949  16931314.6464   16931319.1384
  20017474.593    -2370311.69249  -1839741.89349  20017478.4834   20017483.1254
  19620405.075   -17637699.07449 -13438153.66149  19620407.3584   19620411.7184
  16189978.403   -41102769.80649 -31981948.48649  16189979.9014   16189984.0704
  20670655.374   -25280991.95949 -19672012.49549  20670656.7814   20670666.4924
 96  4 17 17 37 59.9860000  0  7  2  7 19 18 31 27 16
  17251151.577   -19672788.50149 -15305968.65049  17251152.8034   17251157.2434
  18630296.278   -15023149.81249 -11667626.75249  18630298.1254   18630303.8264
  16925408.533   -24272924.77449 -18900769.17749  16925409.0734   16925413.9764
  20025327.194    -2329063.05949  -1807600.15049  20025327.0044   20025332.3754
  19625472.336   -17611060.39149 -13417396.28049  19625475.4574   19625481.8394
  16172461.441   -41194822.99049 -32053678.24249  16172462.7264   16172466.9314
  20667044.563   -25299999.60049 -19686823.73749  20667041.1574   20667046.8044
 96  4 17 17 38 29.9860000  0  7  2  7 19 18 31 27 16
  17233611.392   -19764957.29349 -15377788.49549  17233613.1734   17233617.7294
  18598236.984   -15191616.97949 -11798899.85149  18598239.0854   18598244.8334
  16919561.780   -24303645.69049 -18924707.58049  16919562.7734   16919567.6594
  20033184.996    -2287767.35349  -1775421.74549  20033186.0324   20033190.8694
  19630598.765   -17584137.87849 -13396417.79449  19630600.0814   19630604.1414
  16155011.248   -41286524.58149 -32125134.03449  16155012.6474   16155016.6834
  20663473.348   -25318755.71249 -19701438.92449  20663473.0204   20663478.3734
 96  4 17 17 38 59.9860000  0  7  2  7 19 18 31 27 16
  17216113.552   -19856914.27149 -15449443.27549  17216114.5494   17216119.1524
  18566221.440   -15359858.20849 -11929996.88249  18566223.5124   18566229.6104
  16913775.113   -24334056.15749 -18948404.06249  16913775.8804   16913780.4154
  20041052.695    -2246426.74949  -1743208.36449  20041052.8554   20041058.4064
  19635771.843   -17556941.33449 -13375225.70749  19635774.9414   19635779.0394
  16137628.566   -41377872.87849 -32196314.52349  16137629.4174   16137633.6274
  20659946.500   -25337275.05849 -19715869.60949  20659949.1624   20659953.3354
 96  4 17 17 39 29.9860000  0  7  2  7 19 18 31 27 16
  17198647.605   -19948699.26649 -15520964.05349  17198648.4194   17198653.0894
  18534240.952   -15527915.87049 -12060950.88549  18534243.7884   18534248.9674
  16908040.233   -24364195.75549 -18971889.48249  16908040.5514   16908045.4444
  20048922.217    -2205077.49549  -1710988.23149  20048921.5284   20048926.8724
  19640988.968   -17529526.85949 -13353863.84949  19640992.1294   19640995.8574
  16120301.618   -41468924.69849 -32267263.99949  16120302.8774   16120307.1404
  20656461.346   -25355594.22649 -19730144.30349  20656462.3694   20656471.0514
 96  4 17 17 39 59.9860000  0  7  2  7 19 18 31 27 16
  17181226.305   -20040247.11049 -15592300.03649  17181227.6004   17181232.0884
  18502307.871   -15695732.82949 -12191717.32049  18502309.4314   18502314.8824
  16902369.025   -24393995.64349 -18995110.19649  16902369.6804   16902374.6624
  20056801.766    -2163663.21449  -1678717.42349  20056802.1214   20056807.9744
  19646257.234   -17501844.63949 -13332293.31849  19646260.3864   19646263.6964
  16103042.908   -41559618.45249 -32337934.46149  16103044.5914   16103048.8344
  20653023.696   -25373649.85159 -19744213.74459  20653026.6454   20653033.5134
 96  4 17 17 40 29.9860000  0  6  2  7 19 18 31 27
  17163840.677   -20131610.12149 -15663491.99549  17163841.6924   17163846.3764
  18470410.576   -15863355.34149 -12322332.24349  18470411.6604   18470417.3054
  16896754.841   -24423500.62849 -19018101.12449  16896755.3074   16896759.9914
  20064687.305    -2122224.89949  -1646427.90849  20064687.6654   20064694.0044
  19651567.146   -17473950.32849 -13310557.59049  19651567.9264   19651570.7304
  16085844.444   -41649994.73049 -32408357.54049  16085846.3964   16085850.6234
 96  4 17 17 40 59.9860000  0  7 26  2  7 19 18 31 27
  20550975.289     -484382.45659   -355342.19559  20550981.8844   20550987.7844
  17146491.488   -20222780.34249 -15734533.72349  17146492.5474   17146497.1964
  18438553.319   -16030767.03549 -12452782.88549  18438554.2524   18438560.0024
  16891199.268   -24452691.07349 -19040846.94449  16891200.6814   16891205.2064
  20072577.728    -2080752.81749  -1614112.07349  20072580.7684   20072585.2994
  19656915.876   -17445841.24249 -13288654.41149  19656916.8674   19656921.4674
  16068709.391   -41740042.12449 -32478524.33949  16068711.1604   16068715.0464
 96  4 17 17 41 29.9860000  0  7 26  2  7 19 18 31 27
  20520895.125     -642489.43459   -478542.44959  20520895.3394   20520899.4664
  17129181.501   -20313745.08849 -15805415.34549  17129182.5994   17129186.9704
  18406740.278   -16197942.08149 -12583049.13049  18406742.1244   18406747.2914
  16885708.394   -24481544.00849 -19063329.77749  16885710.0364   16885715.0424
  20080480.298    -2039232.60649  -1581758.73349  20080480.8054   20080486.0184
  19662303.985   -17417504.12049 -13266573.64949  19662308.3604   19662313.7744
  16051642.741   -41829732.63349 -32548413.05249  16051643.5154   16051647.5074
 96  4 17 17 41 59.9860000  0  7 26  2  7 19 18 31 27
  20490851.620     -800356.47949   -601555.71149  20490854.4734   20490858.0204
  17111903.674   -20404537.32049 -15876162.53949  17111905.2714   17111909.5764
  18374967.832   -16364905.82349 -12713150.71549  18374969.5934   18374975.5204
  16880277.052   -24510082.64049 -19085567.70249  16880279.2884   16880284.2784
  20088386.415    -1997686.77749  -1549385.41549  20088386.9594   20088390.9524
  19667740.880   -17388955.49549 -13244327.97549  19667741.6014   19667746.5134
  16034641.561   -41919069.60349 -32618026.28149  16034643.0444   16034647.2194
 96  4 17 17 42 29.9860000  0  7 26  2  7 19 18 31 27
  20460867.646     -957937.17849   -724345.86549  20460868.1964   20460872.5404
  17094667.114   -20495117.06049 -15946744.15949  17094668.5824   17094673.1684
  18343246.372   -16531616.88549 -12843055.41949  18343245.1604   18343251.8604
  16874914.949   -24538265.86549 -19107528.68149  16874916.0314   16874921.1444
  20096300.723    -1956077.40549  -1516962.58549  20096304.3354   20096309.2924
  19673221.218   -17360141.56549 -13221875.62949  19673222.9184   19673229.2734
  16017715.564   -42008017.58249 -32687336.40549  16017717.1984   16017721.1604
 96  4 17 17 42 59.9860000  0  7 26  2  7 19 18 31 27
  20430928.239    -1115261.25149   -846936.03749  20430929.0214   20430933.9644
  17077464.241   -20585520.57549 -16017188.45749  17077465.2794   17077470.0324
  18311561.500   -16698110.53749 -12972790.71149  18311563.1444   18311568.8594
  16869609.956   -24566139.98749 -19129248.80149  16869612.1224   16869616.7544
  20104220.495    -1914460.54649  -1484533.93849  20104225.2234   20104228.8514
  19678751.294   -17331101.36049 -13199246.94549  19678752.1014   19678755.7294
  16000853.658   -42096626.07549 -32756381.99549  16000855.2204   16000859.6244
 96  4 17 17 43 29.9860000  0  7 26  2  7 19 18 31 27
  20401035.001    -1272353.84049   -969345.84349  20401035.8854   20401040.4924
  17060289.320   -20675775.27449 -16087516.79349  17060290.5114   17060295.2994
  18279917.908   -16864394.94849 -13102362.95049  18279919.7904   18279925.2124
  16864358.564   -24593735.33249 -19150751.69749  16864361.0004   16864365.6374
  20112133.662    -1872874.59749  -1452129.36049  20112137.3924   20112143.0424
  19684314.176   -17301861.67749 -13176462.81149  19684312.6474   19684320.6554
  15984051.516   -42184923.91849 -32825185.51049  15984052.9744   15984057.0284
 96  4 17 17 43 59.9860000  0  7 26  2  7 19 18 31 27
  20371187.628    -1429179.45849  -1091547.61249  20371192.7154   20371198.6964
  17043152.215   -20765833.59349 -16157692.11849  17043152.7284   17043157.5634
  18248326.637   -17030409.31149 -13231724.77549  18248328.6854   18248334.1574
  16859172.214   -24620996.51249 -19171994.19749  16859173.6494   16859177.9054
  20120051.003    -1831286.11049  -1419722.81649  20120052.4054   20120056.5714
  19689927.298   -17272360.65349 -13153475.07449  19689928.7964   19689934.4374
  15967314.425   -42272877.92149 -32893721.10249  15967315.8364   15967319.9564
 96  4 17 17 44 29.9860000  0  7 26  2  7 19 18 31 27
  20341394.172    -1585745.88849  -1213547.42549  20341399.2724   20341403.6724
  17026050.440   -20855702.41649 -16227719.77049  17026051.5244   17026056.1184
  18216785.520   -17196156.73149 -13360878.59149  18216787.7304   18216793.2804
  16854045.195   -24647934.82649 -19192985.11749  16854047.2494   16854051.6874
  20127959.708    -1789717.95549  -1387332.10849  20127961.3784   20127967.2294
  19695590.016   -17242615.00249 -13130296.68549  19695589.5524   19695593.9654
  15950639.100   -42360506.60449 -32962003.20049  15950640.7954   15950644.7144
 96  4 17 17 44 59.9850000  0  7 26  2  7 19 18 31 27
  20311656.252    -1742045.95849  -1335339.68149  20311656.8774   20311660.6794
  17008985.246   -20945379.57849 -16297598.07849  17008986.3604   17008990.8694
  18185299.726   -17361627.14449 -13489816.54649  18185300.2774   18185306.0354
  16848980.270   -24674555.75149 -19213728.71249  16848981.4374   16848986.0224
  20135865.756    -1748170.64949  -1354957.65549  20135868.6734   20135873.3044
  19701293.925   -17212638.65949 -13106938.54849  19701294.4024   19701297.4434
  15934028.906   -42447791.77149 -33030017.62149  15934030.8794   15934034.8414
 96  4 17 17 45 29.9850000  0  7 26  2  7 19 18 31 27
  20281962.373    -1898081.33549  -1456925.65749  20281964.3964   20281969.8024
  16991957.561   -21034863.64349 -16367325.93249  16991958.1364   16991963.0134
  18153862.133   -17526821.10949 -13618539.10949  18153864.9944   18153869.7054
  16843978.486   -24700835.20849 -19234206.24449  16843980.7644   16843985.2804
  20143773.572    -1706618.78549  -1322579.65149  20143775.0754   20143780.2274
  19707046.453   -17182419.95349 -13083391.54249  19707045.1504   19707049.2304
  15917491.290   -42534702.44849 -33097740.23849  15917492.1014   15917496.1074
 96  4 17 17 45 59.9850000  0  7 26  2  7 19 18 31 27
  20252322.048    -2053824.34049  -1578283.82649  20252326.8554   20252331.5354
  16974970.665   -21124127.40849 -16436882.11749  16974971.7774   16974976.5444
  18122481.437   -17691729.07049 -13747038.80749  18122483.8764   18122489.1474
  16839045.924   -24726757.42949 -19254405.40349  16839047.8324   16839052.3334
  20151686.464    -1665030.24749  -1290173.06949  20151689.5414   20151694.5824
  19712842.945   -17151944.93549 -13059644.84549  19712844.7714   19712848.8674
  15901030.086   -42621206.49249 -33165145.99949  15901031.0164   15901034.9484
 96  4 17 17 46 29.9850000  0  7 26  2  7 19 18 31 27
  20222735.799    -2209311.11949  -1699442.36649  20222738.6284   20222742.7864
  16958019.138   -21213206.25549 -16506294.20949  16958020.7034   16958025.5554
  18091145.568   -17856403.69349 -13875356.67249  18091147.1424   18091152.4884
  16834171.187   -24752374.71449 -19274366.94449  16834172.6384   16834177.4244
  20159601.365    -1623442.63749  -1257767.20849  20159603.4604   20159609.1044
  19718677.627   -17121274.80349 -13035746.08649  19718680.3024   19718685.6314
  15884640.471   -42707333.91949 -33232258.29149  15884641.6234   15884645.9224
 96  4 17 17 46 59.9850000  0  7 26  2  7 19 18 31 27
  20193188.692    -2364596.75849  -1820444.13749  20193190.6924   20193196.0874
  16941091.824   -21302163.41149 -16575611.46949  16941092.7964   16941097.4114
  18059842.928   -18020894.90249 -14003531.62449  18059845.6064   18059851.0094
  16829343.875   -24777742.11149 -19294133.76949  16829345.4694   16829350.3504
  20167506.466    -1581905.20849  -1225400.45249  20167508.0754   20167512.5004
  19724542.175   -17090458.70249 -13011733.60549  19724543.7884   19724548.0944
  15868316.387   -42793117.39049 -33299102.56449  15868317.5694   15868321.5454
 96  4 17 17 47 29.9850000  0  7 26  2  7 19 18 31 27
  20163686.645    -2519622.97149  -1941243.76949  20163689.0264   20163693.7664
  16924196.107   -21390948.70849 -16644794.82949  16924197.4624   16924202.1054
  18028590.664   -18185138.51349 -14131513.64649  18028590.6494   18028596.5364
  16824576.245   -24802796.72549 -19313656.86749  16824577.8464   16824582.6364
  20175412.473    -1540360.73349  -1193028.20849  20175413.5394   20175419.4574
  19730443.996   -17059447.54049 -12987569.08349  19730445.4124   19730449.7184
  15852064.961   -42878512.58349 -33365644.28049  15852067.4704   15852071.3464
 96  4 17 17 47 59.9850000  0  7 26  2  7 19 18 31 27
  20134238.565    -2674384.30949  -2061837.00849  20134238.7484   20134242.0424
  16907332.389   -21479571.88049 -16713851.85149  16907333.1484   16907337.7754
  17997381.357   -18349139.39849 -14259306.51649  17997382.6804   17997388.2124
  16819867.867   -24827543.31149 -19332939.94649  16819868.9014   16819873.6684
  20183319.385    -1498812.47949  -1160653.02949  20183320.2324   20183325.4504
  19736379.044   -17028251.69449 -12963260.71649  19736381.3244   19736387.9284
  15835884.089   -42963546.05749 -33431904.14449  15835886.2194   15835890.2594
 96  4 17 17 48 29.9850000  0  7 26  2  7 19 18 31 27
  20104832.242    -2828901.55349  -2182240.04749  20104834.1964   20104839.2364
  16890491.212   -21568067.68249 -16782809.62149  16890492.7264   16890497.7414
  17966213.729   -18512922.13749 -14386929.42649  17966216.2454   17966221.4094
  16815213.616   -24852000.97349 -19351997.89449  16815214.8924   16815219.8824
  20191218.905    -1457291.41749  -1128299.04149  20191221.3614   20191226.5304
  19742350.534   -16996893.41649 -12938825.75449  19742349.6554   19742354.0704
  15819768.447   -43048237.55449 -33497897.53649  15819770.0784   15819773.9734
 96  4 17 17 48 59.9850000  0  7 26  2  7 19 18 31 27
  20075481.641    -2983150.55549  -2302434.06049  20075483.0774   20075486.8224
  16873675.837   -21656434.49749 -16851666.88549  16873677.2764   16873682.1874
  17935092.193   -18676469.01449 -14514368.53449  17935093.7794   17935098.7194
  16810617.562   -24876155.29549 -19370819.46249  16810618.3404   16810623.1704
  20199119.985    -1415776.62349  -1095949.94049  20199121.2224   20199127.1234
  19748348.495   -16965352.41449 -12914248.39149  19748350.0244   19748356.1074
  15803717.481   -43132582.81949 -33563621.13149  15803719.5334   15803723.6274
 96  4 17 17 49 29.9850000  0  7 26  2  7 19 18 31 27
  20046185.644    -3137094.26649  -2422390.18449  20046187.7804   20046192.7554
  16856893.363   -21744626.77149 -16920388.14449  16856894.7224   16856899.4664
  17904020.826   -18839756.69749 -14641605.67149  17904020.8764   17904026.5914
  16806084.597   -24899974.43149 -19389379.85249  16806085.5404   16806090.3164
  20207022.955    -1374242.45249  -1063585.75549  20207024.5134   20207029.7584
  19754393.034   -16933609.44749 -12889513.72749  19754392.7874   19754397.4324
  15787734.551   -43216581.09149 -33629074.34149  15787735.1904   15787739.1494
 96  4 17 17 49 59.9850000  0  7 26  2  7 19 18 31 27
  20016944.855    -3290766.28349  -2542134.61049  20016945.0784   20016949.2954
  16840140.189   -21832667.38749 -16988991.23349  16840141.3504   16840145.8204
  17872989.242   -19002828.56949 -14768674.65549  17872990.3034   17872995.5324
  16801606.416   -24923507.90949 -19407717.65949  16801607.2684   16801612.8704
  20214923.519    -1332737.55849  -1031244.39549  20214922.8124   20214928.1614
  19760466.008   -16901682.24849 -12864635.44349  19760467.3064   19760470.5364
  15771810.023   -43300258.80649 -33694277.77449  15771811.7044   15771815.9214
 96  4 17 17 50 29.9850000  0  7 26  2  7 19 18 31 27
  19987752.268    -3444164.37149  -2661665.56949  19987753.5334   19987759.2084
  16823418.016   -21920544.72549 -17057467.08549  16823418.7664   16823423.5114
  17842000.647   -19165665.49949 -14895560.55649  17842002.8514   17842008.3584
  16797180.135   -24946760.25549 -19425836.38949  16797182.7474   16797188.1204
  20222813.060    -1291269.75549   -998931.92449  20222815.2904   20222821.2974
  19766579.177   -16869573.18149 -12839615.45849  19766577.8384   19766582.2034
  15755951.493   -43383599.07549 -33759218.25649  15755952.7584   15755956.8434
 96  4 17 17 50 59.9850000  0  7 26  2  7 19 18 31 27
  19958612.098    -3597290.70049  -2780984.77449  19958614.4994   19958619.6824
  16806727.596   -22008252.52749 -17125810.83449  16806728.6304   16806733.2874
  17811058.972   -19328267.65849 -15022263.52549  17811061.0064   17811065.9294
  16792808.686   -24969737.23049 -19443740.54749  16792810.5954   16792815.1074
  20230692.328    -1249855.13949   -966660.93149  20230694.6364   20230700.4024
  19772716.409   -16837310.75549 -12814475.95749  19772716.2534   19772722.2174
  15740154.372   -43466614.10149 -33823905.30149  15740155.7494   15740159.8464
 96  4 17 17 51 29.9850000  0  7 26  2  7 19 18 31 27
  19929534.226    -3750101.22149  -2900057.90149  19929536.6614   19929540.4254
  16790081.529   -22095728.37849 -17193973.84349  16790082.5694   16790086.9494
  17780172.662   -19490583.14849 -15148743.12149  17780173.1524   17780178.5164
  16788498.643   -24992382.77449 -19461386.44949  16788500.9164   16788505.2184
  20238565.124    -1208454.76659   -934401.03259  20238574.0794   20238579.4284
  19778888.485   -16804851.14749 -12789182.86049  19778892.4284   19778898.6844
  15724430.366   -43549239.51349 -33888288.74549  15724432.5414   15724436.6764
 96  4 17 17 51 59.9850000  0  7 26  2  7 19 18 31 27
  19900514.256    -3902606.23849  -3018892.95449  19900515.8874   19900520.7414
  16773475.678   -22182994.04049 -17261973.05849  16773476.3754   16773481.0874
  17749340.300   -19652607.61649 -15274995.94349  17749340.6104   17749345.4134
  16784253.441   -25014698.82149 -19478775.59849  16784254.4664   16784259.5414
  20246453.755    -1167070.68259   -902153.83459  20246449.1624   20246455.4944
  19785107.517   -16772205.17549 -12763744.46149  19785107.5374   19785111.6354
  15708787.083   -43631452.31949 -33952350.68549  15708787.8804   15708791.9224
 96  4 17 17 52 29.9850000  0  7 26  2  7 19 18 31 27
  19871553.880    -4054783.54949  -3137472.66649  19871556.5564   19871562.0234
  16756911.267   -22270036.26649 -17329798.17049  16756913.1074   16756917.5324
  17718568.518   -19814310.11549 -15400997.87549  17718570.0284   17718575.2704
  16780076.047   -25036648.91349 -19495879.59549  16780077.8034   16780082.7054
  20254326.828    -1125671.89449   -869895.13549  20254326.7574   20254333.4424
  19791355.070   -16739371.85149 -12738160.15649  19791352.8384   19791360.4414
  15693225.709   -43713222.35649 -34016067.61249  15693227.6454   15693231.8574
 96  4 17 17 52 59.9850000  0  7 26  2  7 19 18 31 27
  19842639.765    -4206730.97349  -3255873.24349  19842641.8154   19842647.2854
  16740371.895   -22356951.82549 -17397524.58749  16740373.0214   16740377.9164
  17687841.124   -19975789.63349 -15526826.05749  17687841.2424   17687846.6104
  16775950.914   -25058328.27549 -19512772.62849  16775952.0714   16775956.8674
  20262190.832    -1084348.48349   -837695.19449  20262190.7364   20262196.5594
  19797621.975   -16706425.52059 -12712487.79959  19797624.3014   19797628.7914
  15677731.678   -43794644.76649 -34079513.65749  15677733.2284   15677737.4064
 96  4 17 17 53 29.9850000  0  7 26  2  7 19 18 31 27
  19813780.905    -4358392.24749  -3374050.85449  19813782.4714   19813787.9684
  16723863.971   -22443698.80049 -17465119.63549  16723865.7184   16723870.4544
  17657164.630   -20136983.03149 -15652431.29649  17657166.9054   17657172.6804
  16771886.503   -25079688.07049 -19529416.64349  16771887.6084   16771892.9144
  20270050.296    -1043045.26949   -805510.95849  20270050.3814   20270055.1774
  19803925.127   -16673289.85259 -12686667.79959  19803927.2464   19803935.2914
  15662314.459   -43875668.35049 -34142648.92249  15662315.0744   15662319.2084
 96  4 17 17 53 59.9850000  0  7 26  2  7 19 18 31 27
  19784987.386    -4509704.55049  -3491956.52549  19784988.9214   19784992.3724
  16707398.847   -22530227.15849 -17532544.33749  16707400.1054   16707404.7804
  17626558.090   -20297823.61949 -15777761.60649  17626559.6864   17626566.1174
  16767891.825   -25100681.29249 -19545775.02349  16767892.8264   16767897.4414
  20277911.185    -1001712.39249   -773303.60349  20277915.4904   20277921.6984
  19810274.315   -16639922.91959 -12660667.71659  19810277.8584   19810284.0924
  15646978.991   -43956250.59049 -34205440.28949  15646980.4604   15646985.0384
 96  4 17 17 54 29.9850000  0  7 26  2  7 19 18 31 27
  19756252.161    -4660708.91049  -3609622.24349  19756253.8614   19756258.8954
  16690965.859   -22616581.50549 -17599833.44249  16690967.2584   16690972.0684
  17596010.373   -20458357.35349 -15902852.81949  17596011.6944   17596017.1094
  16763957.225   -25121354.34949 -19561883.92449  16763958.6884   16763963.4104
  20285773.235     -960409.05449   -741119.26549  20285775.8734   20285782.2224
  19816660.787   -16606380.94849 -12634531.16149  19816661.7444   19816666.8754
  15631716.405   -44036461.60349 -34267942.38749  15631717.3704   15631721.3524
 96  4 17 17 54 59.9850000  0  7 26  2  7 19 18 31 27
  19727592.696    -4811321.01149  -3726982.30549  19727592.8704   19727597.2494
  16674580.723   -22702688.27249 -17666929.62649  16674581.8204   16674586.4264
  17565533.579   -20618515.15549 -16027651.09549  17565533.9014   17565540.0754
  16760097.793   -25141631.05549 -19577683.97749  16760099.9324   16760105.2354
  20293640.775     -919072.28049   -708908.83949  20293642.8264   20293647.2234
  19823090.809   -16572595.36959 -12608204.79459  19823090.3504   19823096.1594
  15616534.146   -44116238.49749 -34330106.21149  15616536.1244   15616540.1474
 96  4 17 17 55 29.9850000  0  7 26  2  7 19 18 31 27
  19698984.709    -4961649.62349  -3844121.48449  19698986.9864   19698990.5414
  16658220.071   -22788666.20749 -17733925.42449  16658220.7034   16658225.9024
  17535105.740   -20778414.49649 -16152247.96749  17535106.5124   17535112.0144
  16756295.573   -25161608.93349 -19593251.18549  16756298.3924   16756303.1954
  20301489.354     -877829.76149   -676771.89249  20301490.4074   20301495.6754
  19829537.622   -16538717.23949 -12581806.35749  19829538.6104   19829543.3674
  15601414.517   -44195696.90649 -34392021.86249  15601415.6074   15601419.8474
 96  4 17 17 55 59.9840000  0  6 26  2  7 19 31 27
  19670443.993    -5111630.70549  -3960989.83949  19670446.2744   19670451.7434
  16641896.091   -22874448.42249 -17800768.71449  16641897.0354   16641901.6584
  17504737.910   -20937991.67749 -16276593.82249  17504740.1604   17504744.9244
  16752565.879   -25181215.07049 -19608528.71149  16752567.2084   16752572.9534
  19836008.371   -16504695.53849 -12555295.97649  19836010.6324   19836017.9774
  15586369.290   -44274758.71949 -34453628.47949  15586370.7764   15586374.7854
 96  4 17 17 56 29.9840000  0  6 26  2  7 19 31 27
  19641965.031    -5261297.04349  -4077612.93949  19641965.6064   19641969.4094
  16625603.948   -22960062.26949 -17867480.80649  16625605.2324   16625609.7364
  17474423.677   -21097296.39149 -16400727.34349  17474425.3274   17474430.5794
  16748901.896   -25200472.36349 -19623534.41349  16748903.0404   16748907.6914
  19842512.067   -16470530.84549 -12528674.18849  19842513.4374   19842517.8634
  15571397.544   -44353436.89849 -34514936.15649  15571398.8574   15571402.7294
 96  4 17 17 56 59.9840000  0  6 26  2  7 19 31 27
  19613539.491    -5410661.14049  -4194000.53449  19613541.7154   19613547.0224
  16609342.185   -23045519.96649 -17934071.22649  16609343.2164   16609347.9084
  17444159.492   -21256337.01449 -16524655.09649  17444161.1584   17444166.8224
  16745299.488   -25219404.78949 -19638286.98149  16745300.4614   16745305.5164
  19849038.007   -16436229.76749 -12501946.15249  19849040.7094   19849045.3934
  15556497.032   -44431734.83249 -34575947.54649  15556499.2404   15556503.5314
 96  4 17 17 57 29.9840000  0  6 26  2  7 19 31 27
  19585174.983    -5559718.11349  -4310148.81449  19585177.3434   19585183.3934
  16593111.201   -23130813.24049 -18000533.52149  16593112.4644   16593116.8994
  17413948.150   -21415091.41649 -16648359.80549  17413951.1504   17413956.3894
  16741754.612   -25238024.97749 -19652796.24049  16741757.2674   16741761.9994
  19855598.760   -16401768.50459 -12475093.29559  19855598.7744   19855604.9494
  15541672.880   -44509641.46249 -34636654.02449  15541674.1474   15541678.2024
 96  4 17 17 57 59.9840000  0  7 26  2  7 19 15 31 27
  19556867.186    -5708493.94749  -4426078.02049  19556866.7524   19556870.4484
  16576905.969   -23215973.23649 -18066891.96249  16576907.1134   16576911.5634
  17383788.960   -21573584.95749 -16771861.26249  17383790.6814   17383795.6954
  16738260.532   -25256391.59149 -19667107.90949  16738262.3174   16738266.9214
  19422710.845     -391131.75059   -277784.86859  19422710.1834   19422718.0534
  19862181.227   -16367163.10149 -12448128.06649  19862183.2434   19862188.9794
  15526915.916   -44587187.76249 -34697079.73049  15526917.6814   15526921.9544
 96  4 17 17 58 29.9840000  0  7 26  2  7 19 15 31 27
  19528630.238    -5856866.75449  -4541693.15649  19528632.3334   19528636.8264
  16560746.951   -23300887.77149 -18133059.13549  16560748.1884   16560752.8724
  17353700.442   -21731696.34049 -16895064.92749  17353703.2954   17353708.8394
  16734834.846   -25274393.30749 -19681135.25349  16734836.2404   16734841.2434
  19399255.012     -514375.13149   -373818.67459  19399258.0194   19399264.5214
  19868814.092   -16332306.44149 -12420967.09349  19868816.2384   19868822.2314
  15512248.288   -44664265.62649 -34757140.41549  15512250.1144   15512254.1704
 96  4 17 17 58 59.9840000  0  7 26  2  7 19 15 31 27
  19500457.311    -6004892.50949  -4657037.88549  19500464.0894   19500469.0374
  16544621.715   -23385625.98549 -18199088.91649  16544623.0154   16544628.0164
  17323677.380   -21889480.38049 -17018013.52149  17323677.5604   17323683.2974
  16731467.703   -25292086.88349 -19694922.47549  16731469.2354   16731474.4774
  19375874.859     -637261.04759   -469573.91349  19375873.8644   19375880.3634
  19875482.906   -16297273.38749 -12393668.63549  19875483.7254   19875488.7214
  15497658.043   -44740937.02149 -34816884.36349  15497660.1924   15497664.4654
 96  4 17 17 59 29.9840000  0  6 26  2  7 19 15 27
  19472375.125    -6152492.82849  -4772051.11949  19472375.8514   19472380.5074
  16528544.438   -23470115.07249 -18264924.57949  16528545.3574   16528550.2104
  17293723.625   -22046881.24949 -17140663.53649  17293725.0894   17293730.3954
  16728173.185   -25309405.35249 -19708417.41749  16728173.7284   16728178.8684
  19352567.991     -759723.25749   -564998.99149  19352569.7194   19352576.4194
  15483161.651   -44817119.93349 -34876247.67149  15483163.0044   15483167.2124
 96  4 17 17 59 59.9840000  0  6 26  2  7 19 15 27
  19444357.419    -6299736.84449  -4886786.69849  19444356.8884   19444362.7874
  16512502.009   -23554419.67149 -18330616.48149  16512502.8214   16512507.4984
  17263830.639   -22203977.31649 -17263076.04749  17263831.6014   17263836.5124
  16724938.821   -25326401.17749 -19721660.95949  16724940.2954   16724944.6124
  19329332.058     -881835.33749   -660151.26249  19329333.4874   19329337.9784
  15468745.095   -44892876.13649 -34935278.48749  15468746.9584   15468750.9724
 96  4 17 18  0 29.9840000  0  6 26  2  7 19 15 27
  19416396.522    -6446660.67949  -5001272.76549  19416398.7624   19416402.5384
  16496487.576   -23638575.43149 -18396192.40749  16496488.5044   16496493.1234
  17233985.641   -22360810.58349 -17385283.77849  17233987.0664   17233992.1494
  16721762.325   -25343088.98349 -19734664.47549  16721763.6934   16721769.2314
  19306155.232    -1003626.73049   -755053.64049  19306156.9994   19306162.9504
  15454406.024   -44968235.04449 -34993999.72049  15454406.8144   15454410.8914
 96  4 17 18  0 59.9840000  0  6 26  2  7 19 15 27
  19388508.854    -6593198.29849  -5115457.92449  19388512.5084   19388517.1864
  16480515.252   -23722508.13549 -18461594.52049  16480516.7494   16480521.2304
  17204202.649   -22517311.23949 -17507232.32249  17204205.4444   17204211.0554
  16718659.560   -25359399.68149 -19747374.14249  16718660.5574   16718665.5914
  19283055.901    -1125024.63749   -849649.41249  19283055.9454   19283060.9664
  15440152.782   -45043127.03849 -35052357.12649  15440155.2074   15440159.2404
 96  4 17 18  1 29.9840000  0  6 26  2  7 19 15 27
  19360682.980    -6739428.46049  -5229403.48249  19360685.4504   19360690.6634
  16464573.827   -23806282.99049 -18526873.62849  16464574.7794   16464579.5284
  17174478.027   -22673523.94449 -17628956.50249  17174479.6084   17174485.0264
  16715613.424   -25375403.71349 -19759844.83749  16715615.1074   16715619.8744
  19260013.932    -1246097.42549   -943991.84449  19260016.6404   19260021.4174
  15425976.654   -45117630.86949 -35110412.06849  15425977.6264   15425982.0314
 96  4 17 18  1 59.9840000  0  6 26  2  7 19 15 27
  19332929.918    -6885286.68149  -5343059.22349  19332929.6024   19332934.5514
  16448673.214   -23889840.34449 -18591983.26049  16448674.3634   16448679.1804
  17144824.333   -22829355.76649 -17750383.88949  17144825.7434   17144831.4284
  16712644.687   -25391007.73649 -19772003.84949  16712645.4894   16712649.7614
  19237054.000    -1366765.81349  -1038019.17949  19237054.3514   19237058.9804
  15411883.463   -45191694.05549 -35168123.65049  15411884.0894   15411888.2524
 96  4 17 18  2 29.9840000  0  6 26  2  7 19 15 27
  19305235.386    -7030802.40649  -5456448.08249  19305239.3224   19305244.6074
  16432808.530   -23973212.07249 -18656948.24749  16432809.4084   16432813.8754
  17115239.644   -22984819.69649 -17871524.60549  17115241.3844   17115247.0474
  16709745.594   -25406239.75549 -19783872.97949  16709746.9014   16709752.0784
  19214165.889    -1487048.59849  -1131746.02149  19214165.1444   19214170.6884
  15397865.244   -45265352.91649 -35225520.17949  15397867.1454   15397871.4344
 96  4 17 18  2 59.9840000  0  6 26  2  7 19 15 27
  19277602.516    -7176023.84049  -5569607.63949  19277604.6664   19277610.0084
  16416970.312   -24056440.06949 -18721801.23449  16416971.6714   16416976.3454
  17085719.650   -23139949.66149 -17992405.08549  17085721.6174   17085726.7534
  16706907.413   -25421159.49749 -19795498.78349  16706908.1794   16706913.1824
  19191340.881    -1606985.01949  -1225202.96149  19191341.6834   19191347.2984
  15383917.535   -45338650.79949 -35282635.42449  15383919.0784   15383923.0904
 96  4 17 18  3 29.9840000  0  6 26  2  7 19 15 27
  19250019.994    -7320966.92849  -5682550.27649  19250022.9284   19250028.2324
  16401154.035   -24139552.85049 -18786564.44249  16401155.5764   16401160.4534
  17056259.408   -23294768.30849 -18113042.98449  17056260.5944   17056265.7754
  16704120.876   -25435799.89649 -19806906.92249  16704121.6314   16704127.3534
  19168576.884    -1726592.42649  -1318403.54349  19168581.3964   19168586.4174
  15370035.689   -45411601.89349 -35339480.43949  15370036.7754   15370040.8744
 96  4 17 18  3 59.9840000  0  6 26  2  7 19 15 27
  19222514.821    -7465514.25449  -5795184.54649  19222516.8734   19222521.3234
  16385379.343   -24222453.07049 -18851162.01949  16385380.1584   16385385.0044
  17026870.567   -23449201.12449 -18233380.22949  17026872.1864   17026878.4224
  16701405.829   -25450070.66249 -19818027.03449  16701406.6974   16701411.1974
  19145903.364    -1845762.65949  -1411263.46149  19145903.8884   19145910.4204
  15356240.808   -45484092.35049 -35395966.51749  15356242.4254   15356246.7114
 96  4 17 18  4 29.9840000  0  6 26  2  7 19 15 27
  19195075.092    -7609707.97549  -5907543.27649  19195077.4114   19195082.4604
  16369633.011   -24305197.84349 -18915638.47349  16369634.6114   16369639.2234
  16997545.159   -23603310.08249 -18353465.12249  16997546.4754   16997552.5064
  16698743.880   -25464057.04149 -19828925.53449  16698744.3744   16698749.4054
  19123296.706    -1964551.61849  -1503826.28649  19123298.0244   19123305.3884
  15342528.067   -45556153.06549 -35452117.72749  15342529.7324   15342534.1964
 96  4 17 18  4 59.9840000  0  6 26  2  7 19 15 27
  19167706.137    -7753540.87449  -6019620.84749  19167707.0614   19167711.2014
  16353915.698   -24387793.59249 -18979998.80449  16353916.9824   16353921.6274
  16968276.905   -23757111.72949 -18473310.55149  16968279.2514   16968285.0374
  16696134.835   -25477766.84949 -19839608.54049  16696135.9074   16696140.8204
  19100761.117    -2082965.04049  -1596096.45349  19100764.1254   19100771.7454
  15328899.061   -45627772.74049 -35507925.27549  15328900.9054   15328905.1094
 96  4 17 18  5 29.9840000  0  6 26  2  7 19 15 27
  19140411.433    -7896967.97049  -6131382.21249  19140414.1464   19140418.7324
  16338234.565   -24470201.43849 -19044212.71949  16338235.4694   16338240.0154
  16939075.747   -23910576.11649 -18592893.18249  16939075.6194   16939081.3604
  16693587.080   -25491156.63549 -19850042.17549  16693588.4804   16693593.0604
  19078306.408    -2200964.03949  -1688043.68149  19078309.6724   19078317.1834
  15315361.456   -45698912.72549 -35563359.03549  15315363.4584   15315367.6714
 96  4 17 18  5 59.9840000  0  6 26  2  7 19 15 27
  19113185.070    -8040043.47649  -6242869.61149  19113186.8694   19113191.6254
  16322578.534   -24552471.75949 -19108319.46849  16322579.8754   16322584.6454
  16909923.498   -24063771.16349 -18712265.92949  16909924.1314   16909929.0314
  16691089.046   -25504280.80949 -19860268.83749  16691090.7964   16691096.1314
  19055923.583    -2318607.11749  -1779713.56249  19055923.7974   19055930.3674
  15301903.375   -45769637.52049 -35618469.27849  15301904.9514   15301909.1624
 96  4 17 18  6 29.9840000  0  6 26  2  7 19 15 27
  19086041.894    -8182691.57849  -6354023.97149  19086041.7134   19086046.3554
  16306965.736   -24634519.16849 -19172252.51249  16306966.4844   16306971.2824
  16880839.244   -24216600.01949 -18831353.33449  16880840.9674   16880846.6294
  16688661.189   -25517042.03749 -19870212.67249  16688662.3564   16688667.5704
  19033619.583    -2435815.80549  -1871044.98849  19033620.9334   19033626.0194
  15288538.031   -45839872.25849 -35673197.65749  15288539.7074   15288543.8984
 96  4 17 18  6 59.9830000  0  6 26  2  7 19 15 27
  19058970.013    -8324951.25949  -6464875.66149  19058970.9554   19058975.8654
  16291390.586   -24716365.12249 -19236028.58949  16291391.7954   16291396.5624
  16851824.103   -24369085.72949 -18950173.36249  16851824.6154   16851830.1744
  16686296.189   -25529462.61749 -19879891.09649  16686298.9684   16686303.9584
  19011391.171    -2552620.64649  -1962061.79349  19011392.8414   19011397.6604
  15275257.172   -45909670.13749 -35727585.63049  15275257.8374   15275261.6974
 96  4 17 18  7 29.9830000  0  6 26  2  7 19 15 27
  19031957.772    -8466889.80949  -6575477.12049  19031960.0984   19031965.9224
  16275842.555   -24798070.12449 -19299694.82949  16275843.9084   16275848.5054
  16822858.843   -24521286.29349 -19068771.18849  16822861.7264   16822867.3354
  16683989.186   -25541592.36749 -19889342.87949  16683990.6664   16683995.2904
  18989229.125    -2669085.08349  -2052813.35949  18989231.6094   18989233.6604
  15262043.034   -45979105.52549 -35781691.14149  15262044.7254   15262048.4384
 96  4 17 18  7 59.9830000  0  6 26  2  7 19 15 27
  19005025.356    -8608437.04549  -6685773.66649  19005026.2174   19005030.1754
  16260331.437   -24879582.03649 -19363210.61149  16260332.4734   16260337.4154
  16793968.727   -24673117.67049 -19187081.34749  16793969.5384   16793974.4014
  16681748.872   -25553364.03649 -19898515.63749  16681750.3184   16681755.7634
  18967143.470    -2785146.27549  -2143250.68049  18967145.5494   18967149.6384
  15248907.828   -46048127.91149 -35835474.83249  15248910.0194   15248914.2104
 96  4 17 18  8 29.9830000  0  6 26  2  7 19 15 27
  18978174.717    -8749515.72049  -6795705.08849  18978179.1294   18978183.7744
  16244868.963   -24960836.13449 -19426525.49749  16244870.7904   16244875.4654
  16765166.244   -24824471.21549 -19305019.15749  16765167.2454   16765172.7784
  16679595.265   -25564685.50249 -19907337.60249  16679596.8684   16679601.2764
  18945152.350    -2900716.37849  -2233305.26949  18945152.0154   18945159.1634
  15235870.323   -46116648.52649 -35888867.53149  15235871.1924   15235875.4134
 96  4 17 18  8 59.9830000  0  6 26  2  7 19 15 27
  18951403.735    -8890208.68449  -6905335.96349  18951406.0244   18951411.0654
  16229439.889   -25041920.63249 -19489708.22349  16229440.8664   16229445.5014
  16736437.399   -24975440.87949 -19422657.84849  16736438.8554   16736444.1474
  16677507.318   -25575653.86249 -19915884.40249  16677509.0734   16677513.7794
  18923235.757    -3015876.23549  -2323040.15249  18923237.1834   18923245.8384
  15222909.828   -46184752.89749 -35941935.88549  15222911.3394   15222915.3494
 96  4 17 18  9 29.9830000  0  6 26  2  7 19 15 27
  18924705.294    -9030502.73349  -7014655.98649  18924709.0224   18924713.3044
  16214040.932   -25122843.89649 -19552765.31549  16214041.7944   16214046.2664
  16707780.828   -25126029.85149 -19539999.89249  16707782.6334   16707787.7164
  16675485.847   -25586270.91349 -19924157.47249  16675488.6704   16675493.9184
  18901401.855    -3130617.81149  -2412449.11949  18901404.0564   18901409.9074
  15210031.625   -46252428.79249 -35994670.37049  15210032.9694   15210037.3954
 96  4 17 18  9 59.9830000  0  6 26  2  7 19 15 27
  18898081.281    -9170425.63049  -7123686.82549  18898081.9844   18898086.8104
  16198664.130   -25203647.82649 -19615729.42549  16198665.0964   16198669.6644
  16679192.344   -25276265.33149 -19657066.49549  16679194.1814   16679198.6454
  16673525.122   -25596586.58449 -19932195.68449  16673525.6184   16673530.4344
  18879643.693    -3244966.81649  -2501552.26549  18879644.2144   18879649.9644
  15197229.114   -46319702.74349 -36047091.65549  15197230.9184   15197235.2154
 96  4 17 18 10 29.9830000  0  6 26  2  7 19 15 27
  18871529.439    -9309955.94749  -7232411.73849  18871530.9044   18871535.1584
  16183317.020   -25284297.35749 -19678573.21749  16183318.0794   16183322.6434
  16650673.876   -25426129.15749 -19773843.48849  16650675.8394   16650681.1474
  16671620.709   -25606580.72349 -19939983.35949  16671623.3754   16671628.5044
  18857963.703    -3358889.48649  -2590323.18249  18857965.9884   18857970.1414
  15184511.100   -46386531.51949 -36099166.03349  15184513.8944   15184518.4474
 96  4 17 18 10 59.9830000  0  6 26  2  7 19 15 27
  18845044.781    -9449127.20349  -7340856.86549  18845047.7814   18845052.3184
  16167995.363   -25364812.96849 -19741312.66149  16167996.4204   16168001.1194
  16622216.268   -25575673.86749 -19890371.82149  16622218.0584   16622223.4384
  16669774.223   -25616299.79549 -19947556.70649  16669774.8414   16669779.5404
  18836358.841    -3472423.25449  -2678791.06049  18836359.5324   18836364.8254
  15171873.107   -46452956.12249 -36150925.47249  15171874.1394   15171878.1584
 96  4 17 18 11 29.9830000  0  6 26  2  7 19 15 27
  18818623.075    -9587967.11649  -7449043.78649  18818626.0184   18818631.2754
  16152693.286   -25445225.73549 -19803971.96449  16152694.3674   16152698.9814
  16593816.714   -25724915.17249 -20006663.74049  16593818.6554   16593823.5904
  16667971.903   -25625759.92349 -19954928.26649  16667974.5264   16667979.2274
  18814821.141    -3585590.54749  -2766973.34749  18814824.6724   18814830.4894
  15159306.762   -46518992.37649 -36202382.30849  15159307.6144   15159311.9654
 96  4 17 18 11 59.9830000  0  6 26  2  7 19 15 27
  18792284.157    -9726383.70249  -7556900.89549  18792286.4504   18792291.2484
  16137431.235   -25525427.90649 -19866467.17449  16137432.6244   16137437.0124
  16565495.433   -25873752.65349 -20122640.98449  16565496.0134   16565501.1914
  16666242.213   -25634851.35449 -19962012.53649  16666244.1004   16666248.7924
  18793378.155    -3698291.81349  -2854792.51049  18793378.7084   18793385.2484
  15146833.951   -46584534.34949 -36253453.98749  15146835.3814   15146839.6044
 96  4 17 18 12 29.9830000  0  6 26  2  7 19 15 27
  18766002.814    -9864496.35049  -7664521.11049  18766005.4424   18766009.7034
  16122190.388   -25605520.52549 -19928877.01049  16122191.4744   16122195.8844
  16537226.079   -26022307.53849 -20238398.02749  16537226.9414   16537231.9094
  16664564.708   -25643676.27749 -19968889.12249  16664565.3804   16664569.9554
  18771999.115    -3810644.80249  -2942340.30849  18771999.2194   18772005.2894
  15134433.509   -46649697.95649 -36304230.83449  15134435.2074   15134439.5474
 96  4 17 18 12 59.9830000  0  6 26  2  7 19 15 27
  18739811.518   -10002134.56949  -7771771.66749  18739813.3804   18739817.6424
  16107000.511   -25685342.56049 -19991076.00549  16107001.6964   16107006.3914
  16509041.766   -26170417.93349 -20353808.71749  16509042.5084   16509047.7354
  16662965.870   -25652069.93149 -19975429.68149  16662967.7624   16662972.7864
  18750714.555    -3922482.75749  -3029486.76949  18750716.5714   18750722.1554
  15122136.774   -46714319.33749 -36354585.17849  15122138.1144   15122142.4704
 96  4 17 18 13 29.9830000  0  6 26  2  7 19 15 27
  18713698.021   -10139371.62349  -7878709.63249  18713697.4304   18713702.9994
  16091846.034   -25764980.41349 -20053131.47949  16091847.1404   16091851.8664
  16480927.232   -26318156.69949 -20468929.81949  16480928.7154   16480933.8754
  16661434.477   -25660114.27249 -19981698.02749  16661437.1984   16661442.1464
  18729513.567    -4033880.86949  -3116290.48149  18729517.9784   18729524.4134
  15109927.785   -46778478.47249 -36404579.32149  15109929.2174   15109933.4264
 96  4 17 18 13 59.9830000  0  6 26  2  7 19 15 27
  18687664.291   -10276165.15349  -7985301.97149  18687667.1564   18687672.7114
  16076737.014   -25844377.86949 -20114999.63149  16076738.4244   16076743.0154
  16452889.092   -26465488.38249 -20583733.71549  16452892.0624   16452897.5854
  16659978.600   -25667779.37349 -19987670.85849  16659978.9844   16659983.5494
  18708408.363    -4144796.09849  -3202717.90049  18708411.3084   18708418.0814
  15097810.565   -46842154.41749 -36454196.95449  15097811.9204   15097816.2104
 96  4 17 18 14 29.9830000  0  6 26  2  7 19 15 27
  18661692.490   -10412662.39849  -8091663.46749  18661692.8884   18661697.5454
  16061643.366   -25923697.13549 -20176806.85849  16061644.5674   16061648.8594
  16424904.105   -26612563.99549 -20698338.07449  16424904.5434   16424909.8854
  16658557.839   -25675233.59549 -19993479.38349  16658559.2194   16658565.2454
  18687367.253    -4255377.85749  -3288885.49849  18687368.2894   18687374.9484
  15085753.355   -46905506.95549 -36503562.57949  15085756.5714   15085760.5364
 96  4 17 18 14 59.9830000  0  6 26  2  7 19 15 27
  18635794.621   -10548723.32049  -8197684.93449  18635800.7434   18635805.1434
  16046587.628   -26002814.95849 -20238457.11649  16046588.5774   16046593.2964
  16396990.655   -26759245.77049 -20812635.54749  16396992.1254   16396997.1894
  16657203.329   -25682351.12149 -19999025.55149  16657205.7454   16657210.3794
  18666411.303    -4365488.15749  -3374685.70949  18666415.1474   18666421.4744
  15073787.165   -46968397.32149 -36552568.07249  15073788.8094   15073793.1684
 96  4 17 18 15 29.9830000  0  6 26  2  7 19 15 27
  18609988.830   -10684364.55949  -8303379.43249  18609989.6564   18609993.6964
  16031565.806   -26081753.77249 -20299967.88249  16031567.2454   16031571.8954
  16369150.126   -26905548.99749 -20926638.04749  16369151.4214   16369156.6434
  16655911.120   -25689145.70349 -20004320.05149  16655912.5184   16655917.7164
  18645545.891    -4475150.72049  -3460137.03049  18645547.2964   18645554.6354
  15061901.383   -47030853.31849 -36601235.09949  15061903.7094   15061907.9154
 96  4 17 18 15 59.9830000  0  6 26  2  7 19 15 27
  18584255.078   -10819575.82249  -8408738.81849  18584258.9464   18584264.1494
  16016579.303   -26160510.12749 -20361336.47249  16016580.0414   16016584.7694
  16341383.349   -27051463.25649 -21040337.45349  16341384.7774   16341390.0974
  16654681.084   -25695609.07649 -20009356.49149  16654682.5474   16654688.0154
  18624766.773    -4584363.98549  -3545238.25349  18624764.5914   18624771.2954
  15050102.797   -47092854.07249 -36649547.38349  15050105.5974   15050109.7364
 96  4 17 18 16 29.9830000  0  6 26  2  7 19 15 27
  18558601.760   -10954392.03349  -8513790.42049  18558604.3084   18558609.1254
  16001616.156   -26239142.12149 -20422608.15749  16001617.2544   16001621.9004
  16313684.729   -27197021.47149 -21153759.42949  16313686.2564   16313691.4244
  16653508.045   -25701777.44549 -20014163.04949  16653509.3644   16653514.2024
  18604059.167    -4693170.62949  -3630022.62349  18604060.0554   18604065.9334
  15038388.864   -47154418.97949 -36697520.04649  15038390.2804   15038394.4204
 96  4 17 18 16 59.9830000  0  6 26  2  7 19 15 27
  18533036.537   -11088741.93949  -8618478.63849  18533039.3684   18533042.6414
  15986689.585   -26317581.39849 -20483729.67249  15986690.9784   15986695.3414
  16286069.186   -27342141.30449 -21266839.79649  16286070.7434   16286075.6284
  16652403.748   -25707577.58649 -20018682.66349  16652405.0354   16652409.8144
  18583440.713    -4801502.18649  -3714436.83149  18583444.2004   18583450.6044
  15026767.605   -47215483.89849 -36745103.10949  15026769.8384   15026774.1434
 96  4 17 18 17 29.9830000  0  6 26  2  7 19 15 27
  18507558.981   -11222626.40649  -8722804.19649  18507561.5334   18507566.5254
  15971800.271   -26395827.22449 -20544700.45149  15971801.1254   15971805.5754
  16258539.523   -27486810.25949 -21379568.83949  16258541.3414   16258546.5504
  16651370.490   -25713005.50149 -20022912.24749  16651372.0424   16651377.1694
  18562917.425    -4909352.62149  -3798476.11249  18562921.4584   18562927.5704
  15015245.352   -47276041.93649 -36792291.20149  15015246.0094   15015250.2414
 96  4 17 18 17 59.9820000  0  6 26  2  7 19 15 27
  18482169.224   -11356063.16949  -8826780.89349  18482169.8574   18482174.3634
  15956945.096   -26473892.75849 -20605530.74249  15956945.5544   15956950.4074
  16231092.030   -27631051.31749 -21491964.45449  16231093.1464   16231098.1724
  16650401.043   -25718102.51449 -20026883.97549  16650402.5424   16650407.9084
  18542487.541    -5016733.34849  -3882149.39749  18542487.2504   18542493.5914
  15003815.752   -47336105.80049 -36839094.22749  15003816.1384   15003820.5084
 96  4 17 18 18 29.9820000  0  6 26  2  7 19 15 27
  18456850.412   -11489106.49149  -8930451.00449  18456852.4274   18456857.6134
  15942114.066   -26551826.38349 -20666258.25149  15942115.5234   15942120.0334
  16203712.772   -27774924.43449 -21604073.36949  16203714.6834   16203719.9024
  16649485.938   -25722913.33649 -20030632.70949  16649486.8514   16649491.7264
  18522137.425    -5123685.01449  -3965488.35449  18522134.9064   18522142.0354
  14992467.653   -47395737.63249 -36885560.61349  14992468.7024   14992472.9414
 96  4 17 18 18 59.9820000  0  6 26  2  7 19 15 27
  18431605.565   -11621773.31649  -9033827.74149  18431606.5834   18431610.2384
  15927305.803   -26629644.73649 -20726895.93149  15927307.1894   15927311.6274
  16176402.322   -27918446.66349 -21715908.85449  16176403.2084   16176409.1384
  16648619.777   -25727460.54349 -20034176.02049  16648621.5734   16648626.5524
  18501858.757    -5230218.41049  -4048501.39649  18501861.4964   18501869.1064
  14981197.543   -47454958.91449 -36931707.07449  14981199.3784   14981203.6214
 96  4 17 18 19 29.9820000  0  6 26  2  7 19 15 27
  18406452.581   -11753946.73949  -9136820.01549  18406454.4144   18406459.0684
  15912541.996   -26707231.28049 -20787352.98649  15912542.9284   15912547.4814
  16149174.670   -28061523.97049 -21827397.65049  16149176.6004   16149181.9774
  16647826.333   -25731633.20149 -20037427.46449  16647827.4824   16647832.8914
  18481687.365    -5336214.44349  -4131095.70749  18481692.1094   18481699.1354
  14970030.419   -47513643.51349 -36977435.35149  14970031.9194   14970036.2274
 96  4 17 18 19 59.9820000  0  6 26  2  7 19 15 27
  18381388.618   -11885662.16049  -9239455.40749  18381390.5264   18381394.6124
  15897814.361   -26784626.16349 -20847660.69149  15897815.0824   15897819.7494
  16122025.885   -28204195.91849 -21938570.57949  16122026.8024   16122032.2214
  16647095.361   -25735469.45849 -20040416.79649  16647097.1734   16647103.1464
  18461617.795    -5441708.38349  -4213298.75349  18461617.6764   18461624.1834
  14958955.155   -47571838.80449 -37022782.34149  14958957.8264   14958961.9064
 96  4 17 18 20 29.9820000  0  6 26  2  7 19 15 27
  18356389.463   -12017027.34349  -9341817.86349  18356392.1914   18356396.8764
  15883099.032   -26861954.54549 -20907916.57549  15883100.0954   15883104.4454
  16094936.887   -28346543.50549 -22049490.75649  16094939.2974   16094944.6894
  16646413.213   -25739063.03649 -20043217.01649  16646414.2374   16646418.5744
  18441621.002    -5546802.42549  -4295190.20749  18441619.4964   18441624.9664
  14947956.476   -47629645.60049 -37067826.61049  14947957.6114   14947961.6364
 96  4 17 18 20 59.9820000  0  6 26  2  7 19 15 27
  18331476.634   -12147954.11649  -9443838.74249  18331477.3684   18331482.0824
  15868412.202   -26939131.61149 -20968054.55749  15868413.6454   15868418.0674
  16067930.594   -28488468.30349 -22160081.49549  16067931.8194   16067937.2484
  16645789.687   -25742332.15449 -20045764.41849  16645792.0114   16645796.5314
  18421712.716    -5651409.88549  -4376702.49249  18421712.6724   18421719.2654
  14937046.381   -47686973.47249 -37112497.69249  14937048.2754   14937052.7134
 96  4 17 18 21 29.9820000  0  6 26  2  7 19 15 27
  18306631.090   -12278519.00149  -9545577.59549  18306631.9014   18306636.7964
  15853740.740   -27016234.16149 -21028134.47249  15853741.4074   15853746.0424
  16040989.178   -28630049.26549 -22270404.31149  16040990.0984   16040994.7724
  16645214.761   -25745354.13949 -20048119.24849  16645216.9224   16645222.1194
  18401880.431    -5755609.71249  -4457897.13949  18401883.6964   18401890.5794
  14926212.014   -47743912.83949 -37156866.04249  14926213.3984   14926217.4584
 96  4 17 18 21 59.9820000  0  6 26  2  7 19 15 27
  18281866.152   -12408664.88449  -9646989.97149  18281866.3034   18281871.0814
  15839094.093   -27093201.51249 -21088109.03749  15839095.1174   15839099.9554
  16014124.080   -28771221.85749 -22380408.91049  16014125.3814   16014130.5944
  16644698.647   -25748071.43149 -20050236.65049  16644699.5424   16644704.9024
  18382139.621    -5859351.05849  -4538734.53349  18382143.2814   18382148.6714
  14915458.597   -47800416.88749 -37200895.18449  14915460.8584   14915464.9994
 96  4 17 18 22 29.9820000  0  6 26  2  7 19 15 27
  18257191.326   -12538320.29749  -9748020.14349  18257193.4314   18257198.4714
  15824487.945   -27169954.73449 -21147916.74949  15824489.7434   15824494.0924
  15987347.371   -28911935.94449 -22490056.23649  15987348.8814   15987353.6884
  16644251.087   -25750419.91649 -20052066.67049  16644252.3354   16644257.9954
  18362498.592    -5962571.91349  -4619166.34949  18362500.9204   18362507.2734
  14904801.263   -47856425.33449 -37244538.14149  14904802.9454   14904807.2184
 96  4 17 18 22 59.9820000  0  6 26  2  7 19 15 27
  18232586.502   -12667624.64849  -9848776.78749  18232587.4724   18232592.3754
  15809898.975   -27246624.49549 -21207659.43149  15809899.9194   15809904.2664
  15960624.827   -29052365.07449 -22599481.51949  15960626.0494   15960630.8034
  16643845.304   -25752552.08849 -20053728.13349  16643847.2374   16643852.1704
  18342928.478    -6065423.58449  -4699310.47749  18342928.5364   18342934.1904
  14894206.877   -47912101.84849 -37287922.44849  14894208.0814   14894212.3334
 96  4 17 18 23 29.9820000  0  6 26  2  7 19 15 27
  18208047.952   -12796550.89049  -9949238.78849  18208053.8254   18208058.4064
  15795330.216   -27323181.33449 -21267314.12149  15795331.4784   15795336.0824
  15933956.737   -29192498.80449 -22708676.62049  15933959.2364   15933964.2544
  16643487.471   -25754432.53049 -20055193.44749  16643489.1364   16643493.9364
  18323429.571    -6167885.65449  -4779151.05249  18323430.9124   18323436.4924
  14883679.966   -47967415.20849 -37331023.78649  14883682.2064   14883686.4614
 96  4 17 18 23 59.9820000  0  6 26  2  7 19 15 27
  18183619.527   -12924955.93249 -10049294.66749  18183619.1364   18183623.7324
  15780810.881   -27399479.04349 -21326766.88549  15780812.5924   15780817.2124
  15907376.447   -29332189.31449 -22817526.35449  15907377.0894   15907382.1724
  16643204.605   -25755921.86549 -20056353.99249  16643206.1134   16643210.6524
  18304033.463    -6269815.80849  -4858577.14849  18304033.3774   18304040.3514
  14873253.293   -48022215.51449 -37373725.34449  14873254.2114   14873258.4604
 96  4 17 18 24 29.9820000  0  6 26  2  7 19 15 27
  18159266.341   -13052925.02749 -10149010.83249  18159267.7894   18159272.1484
  15766324.290   -27475610.81449 -21386090.35149  15766325.3004   15766329.7214
  15880863.559   -29471512.65349 -22926089.97749  15880864.7444   15880869.7324
  16642979.203   -25757105.76749 -20057276.55249  16642980.1614   16642985.4364
  18284720.858    -6371288.40149  -4937646.66149  18284724.1684   18284730.5754
  14862908.744   -48076577.10149 -37416085.03249  14862909.3284   14862913.5884
 96  4 17 18 24 59.9820000  0  6 26  2  7 19 15 27
  18134974.102   -13180560.45449 -10248466.98649  18134979.2394   18134984.5004
  15751847.989   -27551685.36149 -21445369.22949  15751848.7044   15751853.3104
  15854406.615   -29610540.83549 -23034423.61149  15854408.5104   15854413.7454
  16642794.184   -25758073.30249 -20058030.50649  16642796.2804   16642802.0404
  18265482.023    -6472392.51949  -5016429.07649  18265485.1574   18265491.2324
  14852633.895   -48130571.20649 -37458158.37049  14852634.6474   14852639.0214
 96  4 17 18 25 29.9820000  0  6 26  2  7 19 15 27
  18110781.962   -13307696.62349 -10347534.13849  18110786.0604   18110790.9554
  15737414.759   -27627526.82149 -21504466.47749  15737416.3014   15737420.9944
  15828043.850   -29749077.32649 -23142374.11549  15828045.6064   15828050.7794
  16642685.551   -25758646.42149 -20058477.12649  16642687.1404   16642691.9824
  18246351.307    -6572941.11049  -5094778.61349  18246350.6034   18246356.4584
  14842465.098   -48184003.88349 -37499794.24349  14842466.8234   14842471.0354
 96  4 17 18 25 59.9820000  0  6 26  2  7 19 15 27
  18086666.502   -13434434.15049 -10446290.64049  18086669.2754   18086673.0994
  15723008.442   -27703235.10049 -21563459.95349  15723009.5794   15723014.5254
  15801758.679   -29887209.55649 -23250009.60649  15801759.6024   15801765.1954
  16642632.119   -25758929.58949 -20058697.82149  16642633.0334   16642638.4664
  18227308.101    -6673019.70449  -5172761.92349  18227307.0404   18227313.5124
  14832385.769   -48236974.80049 -37541070.30049  14832386.8934   14832391.1044
 96  4 17 18 26 29.9820000  0  6 26  2  7 19 15 27
  18062633.359   -13560745.56249 -10544715.12349  18062632.5794   18062636.7424
  15708631.665   -27778785.83549 -21622330.66349  15708632.7714   15708637.6994
  15775553.844   -30024915.59149 -23357312.99549  15775555.1794   15775560.6434
  16642641.012   -25758884.70449 -20058662.86949  16642642.5714   16642647.6264
  18208354.649    -6772596.53249  -5250354.25149  18208358.5244   18208364.1574
  14822398.707   -48289451.56149 -37581961.29249  14822401.0294   14822405.1904
 96  4 17 18 26 59.9820000  0  6 26  2  7 19 15 27
  18038690.236   -13686554.15549 -10642747.77049  18038691.3624   18038695.9564
  15694299.746   -27854097.33249 -21681014.95749  15694301.4214   15694306.0984
  15749444.868   -30162121.16649 -23464226.41849  15749446.0034   15749451.4094
  16642726.468   -25758435.32649 -20058312.74249  16642727.8554   16642732.9674
  18189515.273    -6871597.92249  -5327498.19449  18189518.7984   18189524.8284
  14812520.148   -48341364.11549 -37622412.64249  14812521.9974   14812526.2964
 96  4 17 18 27 29.9820000  0  6 26  2  7 19 15 27
  18014818.200   -13812010.32649 -10740505.83249  18014818.1374   18014823.3804
  15679983.962   -27929330.45449 -21739638.17949  15679985.1504   15679989.9004
  15723399.022   -30298988.19249 -23570876.03649  15723401.0654   15723406.2154
  16642856.237   -25757746.05649 -20057775.67049  16642859.2334   16642864.6424
  18170756.016    -6970178.13049  -5404313.91549  18170759.2694   18170765.4904
  14802716.094   -48392887.48949 -37662560.74149  14802717.7994   14802721.8624
 96  4 17 18 27 59.9820000  0  6 26  2  7 19 15 27
  17991027.453   -13937016.53449 -10837913.25049  17991030.3484   17991034.8764
  15665695.681   -28004416.03449 -21798146.43149  15665696.5994   15665701.5394
  15697435.254   -30435433.97549 -23677197.41649  15697436.3844   15697441.5544
  16643050.037   -25756733.15449 -20056986.43749  16643051.6164   16643056.7464
  18152093.309    -7068260.32849  -5480741.58849  18152095.5144   18152101.8284
  14793001.667   -48443937.53049 -37702340.00649  14793003.2534   14793007.4354
 96  4 17 18 28 29.9820000  0  6 26  2  7 19 15 27
  17967341.678   -14061490.15249 -10934905.66949  17967343.7234   17967348.2794
  15651449.104   -28079281.87349 -21856483.45949  15651450.1814   15651454.9034
  15671565.926   -30571376.65449 -23783126.75849  15671567.3464   15671572.6684
  16643316.203   -25755336.69149 -20055898.31949  16643317.5324   16643322.7454
  18133538.673    -7165772.36249  -5556724.98749  18133539.0144   18133545.1564
  14783392.484   -48494435.15249 -37741688.82949  14783393.8474   14783398.2124
 96  4 17 18 28 59.9810000  0  6 26  2  7 19 15 27
  17943725.379   -14185601.14749 -11031615.52649  17943726.5954   17943731.1714
  15637207.683   -28154121.05749 -21914799.71549  15637208.8234   15637213.7194
  15645759.439   -30706993.67449 -23888802.33949  15645760.3654   15645765.6954
  16643615.319   -25753767.58749 -20054675.67249  16643615.8094   16643621.3534
  18115056.439    -7262897.33649  -5632406.79249  18115057.8804   18115063.2294
  14773851.117   -48544571.37849 -37780756.03949  14773853.3124   14773857.5834
 96  4 17 18 29 29.9810000  0  6 26  2  7 19 15 27
  17920199.031   -14309227.02649 -11127947.38449  17920201.3444   17920206.1044
  15622993.576   -28228817.90849 -21973005.06249  15622994.4304   15622999.5284
  15620034.015   -30842177.12449 -23994140.07849  15620035.9044   15620040.7134
  16643968.176   -25751902.72649 -20053222.57149  16643971.0724   16643976.4514
  18096670.587    -7359520.73149  -5707697.73749  18096670.3344   18096676.7464
  14764402.037   -48594230.69149 -37819451.61949  14764403.3944   14764407.5804
 96  4 17 18 29 59.9810000  0  6 26  2  7 19 15 27
  17896761.450   -14432392.16349 -11223920.21349  17896763.6584   17896768.1934
  15608801.631   -28303394.44449 -22031116.66149  15608803.2234   15608808.0244
  15594382.782   -30976978.00249 -24099179.71449  15594384.0084   15594388.7694
  16644373.217   -25749779.71749 -20051568.31849  16644375.2644   16644380.9224
  18078371.948    -7455680.29949  -5782627.25549  18078371.6294   18078378.2684
  14755037.240   -48643447.80349 -37857802.63449  14755037.5024   14755041.8234
 96  4 17 18 30 29.9810000  0  6 26  2  7 19 15 27
  17873432.964   -14554968.99049 -11319434.61649  17873437.6254   17873441.6184
  15594662.924   -28377696.30249 -22089014.22749  15594663.8934   15594668.8734
  15568826.780   -31111270.62849 -24203823.30749  15568828.9884   15568833.8854
  16644852.740   -25747266.07249 -20049609.68449  16644853.6894   16644858.4644
  18060186.388    -7551238.91449  -5857088.53649  18060188.0344   18060193.5424
  14745775.951   -48692112.21649 -37895722.97549  14745777.1254   14745781.4114
 96  4 17 18 30 59.9810000  0  6 26  2  7 19 15 27
  17850212.119   -14677010.51949 -11414531.90449  17850214.6024   17850218.8084
  15580566.144   -28451774.21249 -22146737.28349  15580567.5234   15580572.1394
  15543359.523   -31245108.19349 -24308112.30449  15543360.2594   15543365.4124
  16645402.171   -25744381.26549 -20047361.81549  16645402.2394   16645407.2504
  18042108.053    -7646239.75649  -5931115.15649  18042109.0464   18042115.3114
  14736609.752   -48740278.41349 -37933255.08649  14736611.2484   14736616.0274
 96  4 17 18 31 29.9810000  0  6 26  2  7 19 15 27
  17827067.520   -14798639.77449 -11509307.95149  17827068.9264   17827072.8734
  15566493.229   -28525727.32849 -22204363.09949  15566494.6804   15566499.3164
  15517956.091   -31378601.58449 -24412133.11149  15517957.5334   15517962.7194
  16646002.587   -25741218.87249 -20044897.65049  16646004.4314   16646009.2644
  18024118.145    -7740786.82449  -6004788.15049  18024117.3894   18024123.7804
  14727519.958   -48788044.95949 -37970475.78949  14727521.8894   14727525.9054
 96  4 17 18 31 59.9810000  0  6 26  2  7 19 15 27
  17804003.619   -14919837.01749 -11603747.35749  17804006.0734   17804010.7354
  15552448.196   -28599533.95749 -22261874.76449  15552449.7094   15552454.2854
  15492625.506   -31511711.91649 -24515855.43849  15492627.4864   15492632.4944
  16646662.177   -25737755.28549 -20042198.79749  16646663.1894   16646668.8274
  18006214.414    -7834844.94749  -6078080.20649  18006218.7824   18006224.2674
  14718512.565   -48835373.12149 -38007354.89949  14718515.6024   14718519.9184
 96  4 17 18 32 29.9810000  0  6 26  2  7 19 15 27
  17781009.538   -15040672.73249 -11697905.05449  17781011.6324   17781015.7834
  15538416.329   -28673274.11349 -22319334.63149  15538417.4224   15538422.1164
  15467362.345   -31644473.76249 -24619306.21049  15467363.3354   15467368.5854
  16647366.967   -25734057.45049 -20039317.40049  16647366.7104   16647373.1904
  17988397.545    -7928469.56049  -6151034.44049  17988402.6604   17988408.4764
  14709582.030   -48882312.11449 -38043930.74949  14709583.2484   14709587.7244
 96  4 17 18 32 59.9810000  0  6 26  2  7 19 15 27
  17758090.123   -15161112.71549 -11791754.39349  17758092.7974   17758097.0054
  15524396.928   -28746945.82849 -22376741.17049  15524398.0224   15524402.7734
  15442169.426   -31776863.52049 -24722467.04349  15442170.6734   15442175.5004
  16648117.789   -25730111.15949 -20036242.41249  16648117.7874   16648123.4434
  17970668.541    -8021638.16049  -6223633.33649  17970673.0424   17970680.1244
  14700732.500   -48928817.53549 -38080168.75449  14700733.7624   14700738.1244
 96  4 17 18 33 29.9810000  0  6 26  2  7 19 15 27
  17735255.756   -15281115.34349 -11885262.93549  17735256.6684   17735260.7124
  15510397.453   -28820510.22449 -22434064.07649  15510399.3944   15510404.0634
  15417053.016   -31908850.04549 -24825313.67449  15417054.2654   15417059.6894
  16648914.347   -25725915.51949 -20032973.12449  16648916.3664   16648921.3774
  17953032.042    -8114322.47549  -6295854.86249  17953035.0544   17953042.0724
  14691970.030   -48974859.54049 -38116045.65149  14691972.1734   14691976.3934
 96  4 17 18 33 59.9810000  0  6 26  2  7 19 15 27
  17712517.688   -15400608.66149 -11978374.61249  17712516.8944   17712522.0484
  15496431.145   -28893911.29749 -22491259.72549  15496431.4594   15496436.2144
  15392025.831   -32040367.83249 -24927795.05449  15392027.6744   15392032.4964
  16649769.449   -25721421.02349 -20029470.96449  16649771.7344   16649777.7354
  17935498.404    -8206463.96749  -6367653.42149  17935502.7774   17935507.9634
  14683305.873   -49020393.38649 -38151526.58349  14683307.4094   14683311.6204
 96  4 17 18 34 29.9810000  0  6 26  2  7 19 15 27
  17689865.531   -15519629.59349 -12071118.18949  17689869.5204   17689872.6374
  15482487.579   -28967180.64649 -22548352.73449  15482488.8214   15482493.5754
  15367076.941   -32171473.21349 -25029955.07749  15367079.0874   15367083.8454
  16650674.633   -25716669.39149 -20025768.43549  16650675.8844   16650680.6544
  17918062.589    -8298107.09949  -6439063.65849  17918062.8964   17918068.5734
  14674726.250   -49065477.65849 -38186657.18949  14674727.9934   14674732.4774
 96  4 17 18 34 59.9810000  0  6 26  2  7 19 15 27
  17667303.983   -15638199.91749 -12163510.65549  17667306.1744   17667310.2334
  15468568.020   -29040326.80549 -22605349.74249  15468569.7134   15468574.1864
  15342200.177   -32302199.45249 -25131819.65849  15342202.4694   15342207.6484
  16651625.630   -25711669.96249 -20021872.81749  16651627.4224   16651632.8204
  17900714.706    -8389274.53349  -6510103.20549  17900715.0014   17900720.5594
  14666227.259   -49110144.55649 -38221462.56949  14666228.4004   14666232.5604
 96  4 17 18 35 29.9810000  0  6 26  2  7 19 15 27
  17644819.276   -15756372.00549 -12255592.80349  17644819.2554   17644822.6794
  15454668.021   -29113372.91349 -22662268.79549  15454669.4834   15454674.1604
  15317391.199   -32432573.69449 -25233409.96649  15317393.2944   15317398.5214
  16652619.551   -25706447.57749 -20017803.47349  16652621.3884   16652626.9424
  17883450.299    -8480001.45249  -6580799.51949  17883450.0324   17883456.3054
  14657796.558   -49154436.86449 -38255976.07549  14657799.6824   14657804.1274
 96  4 17 18 35 59.9810000  0  6 26  2  7 19 15 27
  17622425.028   -15874039.96049 -12347282.12149  17622426.9114   17622431.8134
  15440809.329   -29186205.28449 -22719021.29749  15440809.8844   15440814.5404
  15292673.479   -32562465.83449 -25334624.61049  15292675.3794   15292680.5354
  16653682.643   -25700859.28949 -20013449.01549  16653684.1724   16653690.4684
  17866291.419    -8570165.55549  -6651057.22449  17866291.3714   17866298.2724
  14649463.104   -49198231.54249 -38290101.80849  14649465.7694   14649470.0394
 96  4 17 18 36 29.9810000  0  6 26  2  7 19 15 27
  17600120.443   -15991258.80249 -12438621.48949  17600120.6514   17600124.3524
  15426978.295   -29258885.24349 -22775655.04149  15426979.6314   15426984.2444
  15268037.323   -32691929.60349 -25435505.45549  15268039.4444   15268044.2114
  16654805.672   -25694954.73149 -20008848.10349  16654809.1864   16654814.1954
  17849232.847    -8659819.57849  -6720917.51449  17849231.6914   17849237.1284
  14641216.646   -49241572.36949 -38323873.88849  14641218.3014   14641222.7424
 96  4 17 18 36 59.9810000  0  6 26  2  7 19 15 27
  17577897.577   -16108029.01649 -12529611.25249  17577899.8534   17577905.0844
  15413172.727   -29331430.63449 -22832183.92049  15413174.5254   15413179.1234
  15243483.145   -32820961.96849 -25536050.13849  15243485.3024   15243490.4894
  16655985.318   -25688756.20749 -20004018.13549  16655987.6134   16655993.7284
  17832265.787    -8748970.81649  -6790386.00649  17832265.9654   17832273.3574
  14633057.071   -49284447.75649 -38357283.29649  14633059.3984   14633063.7814
 96  4 17 18 37 29.9810000  0  6 26  2  7 19 15 27
  17555766.712   -16224315.04349 -12620223.74449  17555771.2914   17555775.9814
  15399396.961   -29403828.73649 -22888598.03249  15399397.6254   15399402.2694
  15219017.044   -32949532.88349 -25636235.25149  15219019.1874   15219023.7694
  16657222.415   -25682256.04049 -19998953.10049  16657224.8704   16657230.4154
  17815404.330    -8837590.10649  -6859439.98049  17815403.5334   17815408.4144
  14624993.706   -49326824.87249 -38390304.43949  14624995.2664   14624999.5644
 96  4 17 18 37 59.9810000  0  6 26  2  7 19 15 27
  17533725.098   -16340162.93649 -12710494.83749  17533726.4704   17533732.1444
  15385631.839   -29476161.93649 -22944961.57649  15385632.9374   15385637.7454
  15194623.449   -33077721.64449 -25736122.58949  15194625.2594   15194630.4064
  16658503.371   -25675529.86949 -19993711.97749  16658504.7574   16658510.5744
  17798628.406    -8925737.96949  -6928126.62449  17798628.2154   17798634.5144
  14617014.803   -49368759.22549 -38422980.57049  14617015.6064   14617020.0234
 96  4 17 18 38 29.9810000  0  6 26  2  7 19 15 27
  17511787.201   -16455447.28449 -12800326.78049  17511789.1174   17511793.1694
  15371900.499   -29548319.14649 -23001187.98349  15371901.9094   15371906.9414
  15170320.607   -33205434.71849 -25835639.25749  15170322.7504   15170327.6644
  16659842.324   -25668492.65849 -19988228.47549  16659843.6254   16659849.1574
  17781963.970    -9013303.71749  -6996359.66649  17781966.1954   17781972.1244
  14609142.246   -49410127.42049 -38455215.54349  14609143.5054   14609147.7854
 96  4 17 18 38 59.9810000  0  6 26  2  7 19 15 27
  17489929.876   -16570310.14849 -12889830.31349  17489930.9674   17489935.6594
  15358178.173   -29620430.38349 -23057378.56749  15358179.7674   15358184.4224
  15146082.069   -33332812.51449 -25934894.66749  15146083.4874   15146088.5264
  16661214.115   -25661278.56049 -19982607.14849  16661216.4774   16661222.0434
  17765387.087    -9100423.67149  -7064245.35149  17765386.4684   17765392.6514
  14601351.641   -49451070.27049 -38487119.07749  14601352.3464   14601356.6834
 96  4 17 18 39 29.9810000  0  6 26  2  7 19 15 27
  17468169.772   -16684664.38249 -12978937.50149  17468170.7074   17468175.2404
  15344483.229   -29692399.40149 -23113458.32349  15344484.3894   15344489.2994
  15121924.144   -33459757.78549 -26033813.04749  15121926.7414   15121931.6214
  16662643.232   -25653776.22249 -19976761.19249  16662644.0294   16662649.5254
  17748910.091    -9186998.47149  -7131706.21449  17748912.5634   17748919.2154
  14593656.055   -49491507.53149 -38518628.64349  14593657.4154   14593661.6304
 96  4 17 18 39 59.9800000  0  6 26  2  7 19 15 27
  17446512.675   -16798468.54349 -13067616.06749  17446514.7854   17446518.3064
  15330826.864   -29764165.87749 -23169380.26249  15330827.6444   15330832.2494
  15097859.571   -33586224.16349 -26132358.26049  15097860.4244   15097865.4734
  16664134.284   -25645941.76149 -19970656.45549  16664134.9284   16664140.0174
  17732547.407    -9272985.20149  -7198708.86849  17732549.6364   17732556.1224
  14586062.209   -49531412.19149 -38549723.19749  14586063.5754   14586068.2274
 96  4 17 18 40 29.9800000  0  6 26  2  7 19 15 27
  17424950.916   -16911770.21649 -13155903.07649  17424954.0384   17424957.2634
  15317204.026   -29835752.79149 -23225162.27349  15317205.6194   15317210.0344
  15073879.766   -33712238.00949 -26230550.85349  15073881.2944   15073886.1884
  16665682.758   -25637804.08149 -19964315.45349  16665684.3814   16665689.4984
  17716286.259    -9358425.53849  -7265285.73749  17716290.2824   17716296.7354
  14578559.893   -49570836.22549 -38580443.22849  14578561.7794   14578566.2214
 96  4 17 18 40 59.9800000  0  6 26  2  7 19 15 27
  17403480.257   -17024600.90549 -13243823.08949  17403482.3504   17403487.3434
  15303610.584   -29907186.58649 -23280824.98049  15303611.8874   15303616.7764
  15049983.973   -33837806.43249 -26328396.36449  15049986.0694   15049991.2634
  16667287.610   -25629371.65449 -19957744.76649  16667289.1684   16667294.1274
  17700128.354    -9443346.51449  -7331457.93449  17700130.6124   17700136.9584
  14571140.743   -49609823.74149 -38610823.11849  14571142.5934   14571147.1544
 96  4 17 18 41 29.9800000  0  6 26  2  7 19 15 27
  17382123.800   -17136845.09549 -13331286.09049  17382123.8144   17382127.3024
  15290067.837   -29978353.46649 -23336279.70149  15290068.9284   15290074.0224
  15026195.992   -33962814.85449 -26425805.50849  15026197.8144   15026202.9054
  16668968.244   -25620533.08449 -19950857.59749  16668971.1334   16668976.1534
  17684088.799    -9527632.68549  -7397135.46649  17684091.8744   17684097.9354
  14563826.274   -49648260.06249 -38640773.50249  14563828.6214   14563832.7284
 96  4 17 18 41 59.9800000  0  6 26  2  7 19 15 27
  17360868.643   -17248519.41849 -13418305.04249  17360872.4534   17360876.6804
  15276573.954   -30049265.95149 -23391536.18849  15276575.0624   15276579.8924
  15002508.780   -34087288.02549 -26522797.57849  15002511.0544   15002516.2244
  16670723.834   -25611308.40349 -19943669.57249  16670725.5864   16670730.8684
  17668165.860    -9611301.39049  -7462331.87049  17668169.8454   17668176.6694
  14556615.625   -49686150.99449 -38670298.92149  14556617.9204   14556622.1534
 96  4 17 18 42 29.9800000  0  6 26  2  7 19 15 27
  17339699.186   -17359781.95549 -13505003.11649  17339700.2654   17339703.9294
  15263093.248   -30120108.71949 -23446738.35949  15263094.0854   15263098.8404
  14978895.646   -34211381.58649 -26619493.85049  14978897.3834   14978902.0234
  16672524.809   -25601847.55649 -19936297.52449  16672527.0974   16672531.7464
  17652333.274    -9694511.29549  -7527170.74449  17652335.8544   17652342.6944
  14549484.095   -49723633.22949 -38699505.87749  14549485.1404   14549489.7324
